[[{"header":{"parameterUnit":"m.s-1","parameterCategory":1,"la1":30.6,"la2":29.2853,"lo1":-89.7004,"lo2":-87.6739,"dy":0.0162,"dx":0.0183,"nx":112,"ny":82,"refTime":"2026-04-09T12:00:00:Z","depth":0,"parameterNumber":2,"parameterNumberName":"U-component_of_WINDS"},"data":[0.0,0.0,0.0,0.0,0.0,0.0,0.0,0.0,0.0,0.0,0.0,0.0,0.0,0.0,0.0,0.0,0.0,0.0,0.0,0.0,0.0,0.0,0.0,0.0,0.0,0.0,0.0,0.0,0.0,0.0,0.0,0.0,0.0,0.0,0.0,0.0,0.0,0.0,0.0,0.0,0.0,0.0,0.0,0.0,0.0,0.0,0.0,0.0,0.0,0.0,0.0,0.0,0.0,0.0,0.0,0.0,0.0,0.0,0.0,0.0,0.0,0.0,0.0,0.0,0.0,0.0,0.0,0.0,0.0,0.0,0.0,0.0,0.0,0.0,0.0,0.0,0.0,0.0,0.0,0.0,0.0,0.0,0.0,0.0,0.0,0.0,0.0,0.0,0.0,0.0,-2.0152,-2.3017,-2.5864,-2.6358,-2.3445,-1.8538,-1.3649,-0.899,0.0,0.0,0.0,0.0,0.0,0.0,0.0,0.0,0.0,0.0,0.0,0.0,0.0,0.0,0.0,0.0,0.0,0.0,0.0,0.0,0.0,0.0,0.0,0.0,0.0,0.0,0.0,0.0,0.0,0.0,0.0,0.0,0.0,0.0,0.0,0.0,0.0,0.0,0.0,0.0,0.0,0.0,0.0,0.0,0.0,0.0,0.0,0.0,0.0,0.0,0.0,0.0,0.0,0.0,0.0,0.0,0.0,0.0,0.0,0.0,0.0,0.0,0.0,0.0,0.0,0.0,0.0,0.0,0.0,0.0,0.0,0.0,0.0,0.0,0.0,0.0,0.0,0.0,0.0,0.0,0.0,0.0,0.0,0.0,0.0,0.0,0.0,0.0,0.0,0.0,0.0,0.0,0.0,0.0,0.0,0.0,0.0,0.0,0.0,0.0,0.0,0.0,0.0,0.0,-2.1725,-2.6024,-2.754,-2.7235,-2.4722,-2.0807,-1.6069,-1.0354,0.0,0.0,0.0,0.0,0.0,0.0,0.0,0.0,0.0,0.0,0.0,0.0,0.0,0.0,0.0,0.0,0.0,0.0,0.0,0.0,0.0,0.0,0.0,0.0,0.0,0.0,0.0,0.0,0.0,0.0,0.0,0.0,0.0,0.0,0.0,0.0,0.0,0.0,0.0,0.0,0.0,0.0,0.0,0.0,0.0,0.0,0.0,0.0,0.0,0.0,0.0,0.0,0.0,0.0,0.0,0.0,0.0,0.0,0.0,0.0,0.0,0.0,0.0,0.0,0.0,0.0,0.0,0.0,0.0,0.0,0.0,0.0,0.0,0.0,0.0,0.0,0.0,0.0,0.0,0.0,0.0,0.0,0.0,0.0,0.0,0.0,0.0,0.0,0.0,0.0,0.0,0.0,0.0,0.0,0.0,0.0,0.0,0.0,0.0,0.0,0.0,0.0,0.0,-2.298,-2.6045,-2.8903,-2.9835,-2.9362,-2.7203,-2.2458,-1.7533,-1.2707,-0.7026,0.0,0.0,0.0,0.0,0.0,0.0,0.0,0.0,0.0,0.0,0.0,0.0,0.0,0.0,0.0,0.0,0.0,0.0,0.0,0.0,0.0,0.0,0.0,0.0,0.0,0.0,0.0,0.0,0.0,0.0,0.0,0.0,0.0,0.0,0.0,0.0,0.0,0.0,0.0,0.0,0.0,0.0,0.0,0.0,0.0,0.0,0.0,0.0,0.0,0.0,0.0,0.0,0.0,0.0,0.0,0.0,0.0,0.0,0.0,0.0,0.0,0.0,0.0,0.0,0.0,0.0,0.0,0.0,0.0,0.0,0.0,0.0,0.0,0.0,0.0,0.0,0.0,0.0,0.0,0.0,0.0,0.0,0.0,0.0,0.0,0.0,0.0,0.0,0.0,0.0,0.0,0.0,0.0,0.0,0.0,0.0,0.0,0.0,0.0,0.0,0.0,0.0,-2.6539,-2.9683,-3.1012,-3.1627,-3.1121,-2.9058,-2.3991,-1.8994,-1.447,-0.9506,0.0,0.0,0.0,0.0,0.0,0.0,0.0,0.0,0.0,0.0,0.0,0.0,0.0,0.0,0.0,0.0,0.0,0.0,0.0,0.0,0.0,0.0,0.0,0.0,0.0,0.0,0.0,0.0,0.0,0.0,0.0,0.0,0.0,0.0,0.0,0.0,0.0,0.0,0.0,0.0,0.0,0.0,0.0,0.0,0.0,0.0,0.0,0.0,0.0,0.0,0.0,0.0,0.0,0.0,0.0,0.0,0.0,0.0,0.0,0.0,0.0,0.0,0.0,0.0,0.0,0.0,0.0,0.0,0.0,0.0,0.0,0.0,0.0,0.0,0.0,0.0,0.0,0.0,0.0,0.0,0.0,0.0,0.0,0.0,0.0,0.0,0.0,0.0,0.0,0.0,0.0,0.0,0.0,0.0,0.0,0.0,0.0,0.0,0.0,0.0,0.0,0.0,-2.7689,-3.0462,-3.1678,-3.2196,-3.1491,-2.9102,-2.5614,-2.0866,-1.4614,-1.0856,0.0,0.0,0.0,0.0,0.0,0.0,0.0,0.0,0.0,0.0,0.0,0.0,0.0,0.0,0.0,0.0,0.0,0.0,0.0,0.0,0.0,0.0,0.0,0.0,0.0,0.0,0.0,0.0,0.0,0.0,0.0,0.0,0.0,0.0,0.0,0.0,0.0,0.0,0.0,0.0,0.0,0.0,0.0,0.0,0.0,0.0,0.0,0.0,0.0,0.0,0.0,0.0,0.0,0.0,0.0,0.0,0.0,0.0,0.0,0.0,0.0,0.0,0.0,0.0,0.0,0.0,0.0,0.0,0.0,0.0,0.0,0.0,0.0,0.0,0.0,0.0,0.0,0.0,0.0,0.0,0.0,0.0,0.0,0.0,0.0,0.0,0.0,0.0,0.0,0.0,0.0,0.0,0.0,0.0,0.0,0.0,0.0,0.0,0.0,0.0,0.0,0.0,-2.9154,-3.1951,-3.3526,-3.3847,-3.3259,-3.1529,-2.7206,-2.251,-1.774,0.0,0.0,0.0,0.0,0.0,0.0,0.0,0.0,0.0,0.0,0.0,0.0,0.0,0.0,0.0,0.0,0.0,0.0,0.0,0.0,0.0,0.0,0.0,0.0,0.0,0.0,0.0,0.0,0.0,0.0,0.0,0.0,0.0,0.0,0.0,0.0,0.0,0.0,0.0,0.0,0.0,0.0,0.0,0.0,0.0,0.0,0.0,0.0,0.0,0.0,0.0,0.0,0.0,0.0,0.0,0.0,0.0,0.0,0.0,0.0,0.0,0.0,0.0,0.0,0.0,0.0,0.0,0.0,0.0,0.0,0.0,0.0,0.0,0.0,0.0,0.0,0.0,0.0,0.0,0.0,0.0,0.0,0.0,0.0,0.0,0.0,0.0,0.0,0.0,0.0,0.0,0.0,0.0,0.0,0.0,0.0,0.0,0.0,0.0,0.0,0.0,0.0,-2.68,-3.0082,-3.2734,-3.442,-3.4694,-3.4187,-3.2782,-2.8314,-2.3859,-1.9651,0.0,0.0,0.0,0.0,0.0,0.0,0.0,0.0,0.0,0.0,0.0,0.0,0.0,0.0,0.0,0.0,0.0,0.0,0.0,0.0,0.0,0.0,0.0,0.0,0.0,0.0,0.0,0.0,0.0,0.0,0.0,0.0,0.0,0.0,0.0,0.0,0.0,0.0,0.0,0.0,0.0,0.0,0.0,0.0,0.0,0.0,0.0,0.0,0.0,0.0,0.0,0.0,0.0,0.0,0.0,0.0,0.0,0.0,0.0,0.0,0.0,0.0,0.0,0.0,0.0,0.0,0.0,0.0,0.0,0.0,0.0,0.0,0.0,0.0,0.0,0.0,0.0,0.0,0.0,0.0,0.0,0.0,0.0,0.0,0.0,0.0,0.0,0.0,0.0,0.0,0.0,0.0,0.0,0.0,0.0,0.0,0.0,0.0,0.0,0.0,0.0,0.0,-2.7399,-3.0353,-3.2662,-3.3987,-3.449,-3.4013,-3.2309,-2.9002,-2.487,0.0,0.0,0.0,0.0,0.0,0.0,0.0,0.0,0.0,0.0,0.0,0.0,0.0,0.0,0.0,0.0,0.0,0.0,0.0,0.0,0.0,0.0,0.0,0.0,0.0,0.0,0.0,0.0,0.0,0.0,0.0,0.0,0.0,0.0,0.0,0.0,0.0,0.0,0.0,0.0,0.0,0.0,0.0,0.0,0.0,0.0,0.0,0.0,0.0,0.0,0.0,0.0,0.0,0.0,0.0,0.0,0.0,0.0,0.0,0.0,0.0,0.0,0.0,0.0,0.0,0.0,0.0,0.0,0.0,0.0,0.0,0.0,0.0,0.0,0.0,0.0,0.0,0.0,0.0,0.0,0.0,0.0,0.0,0.0,0.0,0.0,0.0,0.0,0.0,0.0,0.0,0.0,0.0,0.0,0.0,0.0,0.0,0.0,0.0,0.0,0.0,0.0,0.0,-2.908,-3.2015,-3.4484,-3.6309,-3.6137,-3.552,-3.4589,-3.1052,-2.6693,-2.1485,0.0,0.0,0.0,0.0,0.0,0.0,0.0,0.0,0.0,0.0,0.0,0.0,0.0,0.0,0.0,0.0,0.0,0.0,0.0,0.0,0.0,0.0,0.0,0.0,0.0,0.0,0.0,0.0,0.0,0.0,0.0,0.0,0.0,0.0,0.0,0.0,0.0,0.0,0.0,0.0,0.0,0.0,0.0,0.0,0.0,0.0,0.0,0.0,0.0,0.0,0.0,0.0,0.0,0.0,0.0,0.0,0.0,0.0,0.0,0.0,0.0,0.0,0.0,0.0,0.0,0.0,0.0,0.0,0.0,0.0,0.0,0.0,0.0,0.0,0.0,0.0,0.0,0.0,0.0,0.0,0.0,0.0,0.0,0.0,0.0,0.0,0.0,0.0,0.0,0.0,0.0,0.0,0.0,0.0,0.0,0.0,0.0,0.0,0.0,0.0,0.0,0.0,-3.0107,-3.2527,-3.4662,-3.6533,-3.6373,-3.5825,-3.5174,-3.205,-2.8072,-2.3165,0.0,0.0,0.0,0.0,0.0,0.0,0.0,0.0,0.0,0.0,0.0,0.0,0.0,0.0,0.0,0.0,0.0,0.0,0.0,0.0,0.0,0.0,0.0,0.0,0.0,0.0,0.0,0.0,0.0,0.0,0.0,0.0,0.0,0.0,0.0,0.0,0.0,0.0,0.0,0.0,0.0,0.0,0.0,0.0,0.0,0.0,0.0,0.0,0.0,0.0,0.0,0.0,0.0,0.0,0.0,0.0,0.0,0.0,0.0,0.0,0.0,0.0,0.0,0.0,0.0,0.0,0.0,0.0,0.0,0.0,0.0,0.0,0.0,0.0,0.0,0.0,0.0,0.0,0.0,0.0,0.0,0.0,0.0,0.0,0.0,0.0,0.0,0.0,0.0,0.0,0.0,0.0,0.0,0.0,0.0,0.0,0.0,0.0,0.0,0.0,0.0,0.0,-3.0563,-3.2236,-3.3728,-3.5464,-3.5538,-3.525,-3.4647,-3.2407,-2.9167,-2.4781,0.0,0.0,0.0,0.0,0.0,0.0,0.0,0.0,0.0,0.0,0.0,0.0,0.0,0.0,0.0,0.0,0.0,0.0,0.0,0.0,0.0,0.0,0.0,0.0,0.0,0.0,0.0,0.0,0.0,0.0,0.0,0.0,0.0,0.0,0.0,0.0,0.0,0.0,0.0,0.0,0.0,0.0,0.0,0.0,0.0,0.0,0.0,0.0,0.0,0.0,0.0,0.0,0.0,0.0,0.0,0.0,0.0,0.0,0.0,0.0,-2.5904,-2.4504,0.0,0.0,0.0,0.0,0.0,0.0,0.0,0.0,0.0,0.0,0.0,0.0,0.0,0.0,0.0,0.0,0.0,0.0,0.0,0.0,0.0,0.0,0.0,0.0,0.0,0.0,0.0,0.0,0.0,0.0,0.0,0.0,0.0,0.0,0.0,0.0,0.0,0.0,0.0,0.0,-3.0726,-3.2061,-3.3527,-3.5683,-3.5029,-3.4699,-3.5301,-3.3759,-3.0831,-2.6261,-2.3696,0.0,0.0,0.0,0.0,0.0,0.0,0.0,0.0,0.0,0.0,0.0,0.0,0.0,0.0,0.0,0.0,0.0,0.0,0.0,0.0,0.0,0.0,0.0,0.0,0.0,0.0,0.0,0.0,0.0,0.0,0.0,0.0,0.0,0.0,0.0,0.0,0.0,0.0,0.0,0.0,0.0,0.0,0.0,0.0,0.0,0.0,0.0,0.0,0.0,0.0,0.0,0.0,0.0,0.0,0.0,0.0,0.0,0.0,0.0,-2.861,-2.7032,0.0,0.0,0.0,0.0,0.0,0.0,0.0,0.0,0.0,0.0,0.0,0.0,0.0,0.0,0.0,0.0,0.0,0.0,0.0,0.0,0.0,0.0,0.0,0.0,0.0,0.0,0.0,0.0,0.0,0.0,0.0,0.0,0.0,0.0,0.0,0.0,0.0,0.0,0.0,0.0,-3.0074,-3.1728,-3.334,-3.5032,-3.4593,-3.4427,-3.4936,-3.3694,-3.1405,-2.7917,-2.5397,0.0,0.0,0.0,0.0,0.0,0.0,0.0,0.0,0.0,0.0,0.0,0.0,0.0,0.0,0.0,0.0,0.0,0.0,0.0,0.0,0.0,0.0,0.0,0.0,0.0,0.0,0.0,0.0,0.0,0.0,0.0,0.0,0.0,0.0,0.0,0.0,0.0,0.0,0.0,0.0,0.0,0.0,0.0,0.0,0.0,0.0,0.0,0.0,0.0,0.0,0.0,0.0,0.0,-2.631,-2.7696,-2.8685,-3.0937,-3.2109,-3.2225,-3.0018,-2.8945,-2.8799,-2.7965,0.0,0.0,0.0,0.0,0.0,0.0,0.0,0.0,0.0,0.0,0.0,0.0,0.0,0.0,0.0,0.0,0.0,0.0,0.0,0.0,0.0,0.0,-2.5055,-2.4744,-2.4649,-2.391,-2.1261,0.0,0.0,0.0,0.0,0.0,0.0,0.0,0.0,0.0,0.0,0.0,-2.8983,-3.0976,-3.2633,-3.3754,-3.3968,-3.4104,-3.4293,-3.3386,-3.1919,-2.9739,-2.7157,-2.4291,0.0,0.0,0.0,0.0,0.0,0.0,0.0,0.0,0.0,0.0,0.0,0.0,0.0,0.0,0.0,0.0,0.0,0.0,0.0,0.0,0.0,0.0,0.0,0.0,0.0,0.0,0.0,0.0,0.0,0.0,0.0,0.0,-2.5311,-2.4978,0.0,0.0,0.0,0.0,0.0,0.0,0.0,0.0,0.0,0.0,0.0,0.0,0.0,-2.5212,-2.5659,-2.6045,-2.6386,-2.6696,-2.7311,-2.7718,-2.7847,-2.819,-2.8449,-2.8541,-2.8148,0.0,-3.0799,-2.8257,0.0,0.0,0.0,0.0,0.0,0.0,0.0,0.0,0.0,0.0,0.0,0.0,0.0,0.0,0.0,0.0,0.0,0.0,0.0,0.0,0.0,0.0,-2.2917,-2.2867,-2.285,-2.2711,-2.2297,-2.195,-2.1303,-1.9969,-1.983,-1.9761,0.0,0.0,0.0,0.0,0.0,0.0,-2.7861,-2.924,-3.0553,-3.1987,-3.267,-3.3376,-3.4218,-3.4156,-3.3349,-3.1713,-2.9676,-2.7103,-2.3811,-2.1446,0.0,0.0,0.0,0.0,0.0,0.0,0.0,0.0,0.0,0.0,0.0,0.0,0.0,0.0,0.0,0.0,0.0,0.0,0.0,0.0,0.0,0.0,0.0,0.0,0.0,0.0,0.0,0.0,0.0,-2.5447,-2.531,-2.4188,-2.4331,-2.427,0.0,0.0,0.0,0.0,0.0,0.0,0.0,0.0,0.0,-2.4839,-2.403,-2.3817,-2.4284,-2.4481,-2.473,-2.4999,-2.62,-2.6827,-2.7013,-2.7948,-2.8437,-2.8505,-2.8505,-2.9051,-2.9868,-2.7739,-2.6619,-2.5982,0.0,0.0,0.0,0.0,-2.3447,-2.331,-2.3951,-2.2975,-2.1463,-2.1284,0.0,0.0,0.0,0.0,0.0,0.0,0.0,-2.1209,-2.1565,-2.237,-2.3141,-2.3141,-2.2977,-2.29,-2.29,-2.2582,-2.1795,-2.0241,-1.9807,-1.9701,-1.98,-2.0335,0.0,0.0,0.0,-2.6288,-2.723,-2.8589,-2.9771,-3.0376,-3.0735,-3.1064,-3.1484,-3.1255,-3.1091,-3.11,-2.9736,-2.8028,-2.6027,-2.4069,-2.1406,0.0,0.0,0.0,0.0,0.0,0.0,0.0,0.0,0.0,0.0,0.0,0.0,0.0,0.0,0.0,0.0,0.0,0.0,0.0,0.0,0.0,0.0,0.0,0.0,0.0,0.0,0.0,0.0,-2.4875,-2.4789,-2.3267,-2.3513,-2.3522,0.0,0.0,0.0,0.0,0.0,0.0,-2.5273,-2.3753,-2.3412,-2.452,-2.3475,-2.306,-2.342,-2.3434,-2.3581,-2.3888,-2.4676,-2.5413,-2.6156,-2.6354,-2.6766,-2.7221,-2.6676,-2.6376,-2.6283,-2.6448,-2.6264,-2.577,-2.4422,-2.3745,-2.365,-2.365,-2.3184,-2.2707,-2.3564,-2.2539,-2.0935,-2.0679,-1.9501,-1.8068,-1.7372,0.0,0.0,0.0,0.0,-2.0046,-2.0354,-2.1595,-2.2757,-2.2757,-2.2554,-2.2408,-2.2314,-2.1978,-2.1418,-2.0527,-2.0128,-2.0015,-2.0264,-2.0538,0.0,-2.2732,-2.4624,-2.5892,-2.5892,-2.7683,-2.8958,-2.8958,-2.9235,-2.9396,-2.9396,-2.9014,-2.9172,-3.0103,-2.9262,-2.8264,-2.7236,-2.5873,-2.3477,-1.9966,0.0,0.0,0.0,0.0,0.0,0.0,0.0,0.0,0.0,0.0,0.0,0.0,0.0,0.0,0.0,0.0,0.0,0.0,0.0,0.0,0.0,0.0,0.0,0.0,0.0,0.0,0.0,0.0,0.0,-2.1824,-2.2674,0.0,0.0,0.0,0.0,-2.2525,-2.099,-2.1057,-2.3346,-2.1575,-2.1611,-2.416,-2.4115,-2.4396,-2.4957,-2.497,-2.5117,-2.5398,-2.3448,-2.3525,-2.5411,-2.1333,-2.0636,-2.2502,-2.0254,-1.9181,-1.9308,-2.4063,-2.5697,-2.4949,-2.2925,-2.1808,-2.1245,-2.1245,-2.031,-1.8948,-1.9048,-1.7806,-1.6303,-1.6552,-1.5903,-1.498,-1.4811,-1.4391,0.0,0.0,-1.603,-1.7433,-1.7753,-1.9056,-2.0369,-2.0369,-2.0355,-2.0261,-2.005,-1.9753,-2.0089,-2.1989,-2.214,-2.1832,-2.1491,0.0,-2.09,-2.0603,-2.2097,-2.3184,-2.3184,-2.5849,-2.7673,-2.7673,-2.8727,-2.9396,-2.9396,-2.9396,-2.9373,-2.9465,-2.8925,-2.8097,-2.6961,-2.6382,-2.4781,-2.2108,-2.0673,0.0,0.0,0.0,0.0,0.0,0.0,0.0,0.0,0.0,0.0,0.0,0.0,0.0,0.0,0.0,0.0,0.0,0.0,0.0,0.0,0.0,0.0,0.0,0.0,0.0,0.0,0.0,0.0,-1.8594,-1.9333,0.0,-1.9052,-1.9074,-1.9184,-1.9338,-1.8776,-1.9,-2.0203,-1.9628,-1.9704,-2.0789,-2.0877,-2.0955,-2.1134,-2.1134,-2.1256,-2.1346,-2.0557,-2.0557,-2.1257,-1.9688,-1.9464,-2.0167,-1.9304,-1.8835,-1.8889,-2.0669,-2.0979,-2.0262,-1.9262,-1.8794,-1.865,-1.865,-1.8291,-1.7732,-1.7871,-1.7513,-1.6897,-1.6556,-1.5992,-1.5455,-1.5248,-1.4982,-1.4814,-1.5173,-1.572,-1.6159,-1.6456,-1.6844,-1.7173,-1.7173,-1.6988,-1.6842,-1.6764,-1.7537,-1.8379,-1.8971,-1.9445,-1.993,-2.0369,-2.0594,-2.0768,-2.1062,-2.1845,-2.235,-2.2195,-2.3111,-2.3826,-2.3826,-2.4184,-2.4459,-2.4459,-2.4459,-2.4781,-2.5536,-2.5428,-2.513,-2.4717,-2.4517,-2.3123,-2.0313,-1.9539,-1.8303,0.0,0.0,0.0,0.0,0.0,0.0,0.0,0.0,0.0,0.0,0.0,0.0,0.0,0.0,0.0,0.0,0.0,0.0,0.0,0.0,0.0,0.0,0.0,0.0,0.0,-1.7986,-1.7716,-1.7217,-1.8029,-1.8355,-1.7703,-1.7712,-1.7895,-1.8033,-1.7502,-1.772,-1.9006,-1.8404,-1.8461,-1.9314,-1.9404,-1.9364,-1.9293,-1.9293,-1.9293,-1.9293,-1.8579,-1.8579,-1.9214,-1.7784,-1.7554,-1.8172,-1.7402,-1.7057,-1.7039,-1.693,-1.6549,-1.6232,-1.7141,-1.7464,-1.7404,-1.7404,-1.7044,-1.632,-1.5813,-1.5623,-1.5489,-1.4963,-1.4618,-1.4355,-1.4095,-1.4011,-1.394,-1.4139,-1.4538,-1.4977,-1.5186,-1.5453,-1.5683,-1.5683,-1.5513,-1.5269,-1.52,-1.6054,-1.6797,-1.6492,-1.7711,-1.8971,-1.9453,-1.9699,-1.9993,-2.0437,-2.1086,-2.1517,-2.133,-2.1713,-2.1971,-2.1971,-2.1907,-2.1841,-2.1841,-2.1776,-2.203,-2.283,-2.2863,-2.2863,-2.2863,-2.2863,-2.1979,-2.0058,-1.8805,-1.7252,-1.5526,0.0,0.0,0.0,0.0,0.0,0.0,0.0,0.0,0.0,0.0,0.0,0.0,0.0,0.0,0.0,0.0,0.0,0.0,0.0,0.0,0.0,0.0,0.0,-1.658,-1.7709,-1.8231,-1.7807,-1.868,-1.9033,-1.8329,-1.8524,-1.8651,-1.8651,-1.7093,-1.7205,-1.9561,-1.785,-1.7758,-1.9808,-1.9881,-1.9863,-1.9664,-1.9664,-1.9664,-1.9664,-1.7547,-1.7629,-1.9582,-1.5358,-1.4541,-1.6393,-1.4208,-1.318,-1.3166,-1.3024,-1.305,-1.3314,-1.6639,-1.7768,-1.7507,-1.7507,-1.6397,-1.4555,-1.2731,-1.1965,-1.1816,-1.1681,-1.1531,-1.1375,-1.1226,-1.1179,-1.1241,-1.1241,-1.2391,-1.3738,-1.3738,-1.4818,-1.5936,-1.5936,-1.5833,-1.5679,-1.5405,-1.5419,-1.5349,-1.4995,-1.7289,-1.919,-1.8827,-1.8549,-1.8406,-1.8448,-1.9552,0.0,-2.0451,-2.1572,-2.2376,-2.2376,-2.212,-2.1977,-2.1977,-2.1737,-2.1574,-2.1507,-2.1507,-2.1507,-2.1456,-2.1456,-2.1456,-2.1456,-1.8411,-1.6228,-1.4931,0.0,0.0,0.0,0.0,0.0,0.0,0.0,0.0,0.0,0.0,0.0,0.0,0.0,0.0,0.0,0.0,0.0,0.0,0.0,0.0,0.0,-1.4031,-1.3769,-1.5344,-1.5031,-1.4662,-1.4665,-1.5044,-1.5249,-1.5112,-1.5143,-1.5165,-1.5165,-1.4714,-1.4773,-1.5455,-1.485,-1.4791,-1.5363,-1.5324,-1.5239,-1.5193,-1.5193,-1.5193,-1.5193,-1.4541,-1.4623,-1.511,-1.3976,-1.3728,-1.421,-1.3597,-1.3336,-1.3329,-1.3173,-1.3112,-1.3253,-1.4038,-1.4298,-1.4068,-1.4068,-1.3617,-1.2971,-1.245,-1.2128,-1.1993,-1.1952,-1.1837,-1.1701,-1.166,-1.1497,-1.1328,-1.1328,-1.1587,-1.1909,-1.1909,-1.2216,-1.2521,-1.2521,-1.255,-1.2406,-1.2245,-1.3195,-1.394,-1.3541,-1.5147,-1.6429,-1.6014,-1.5882,-1.6082,-1.6939,-1.7377,-1.7922,-1.8933,-1.9346,-1.9621,-1.9621,-1.9536,-1.9493,-1.9493,-1.9408,-1.886,-1.7568,-1.7502,-1.6952,-1.5808,-1.5754,-1.5754,-1.5754,-1.459,-1.376,0.0,0.0,0.0,0.0,0.0,0.0,0.0,0.0,0.0,0.0,0.0,0.0,0.0,0.0,0.0,0.0,0.0,0.0,0.0,0.0,0.0,0.0,-1.3426,-1.3506,-1.4526,-1.3981,-1.3512,-1.3661,-1.3892,-1.4007,-1.3946,-1.3939,-1.3939,-1.3939,-1.3878,-1.3871,-1.3933,-1.3797,-1.3688,-1.3634,-1.3546,-1.3464,-1.3403,-1.3403,-1.3403,-1.3403,-1.3403,-1.3403,-1.3403,-1.3403,-1.2899,-1.1973,-1.1973,-1.1469,-1.0627,-1.0474,-1.0442,-1.0672,0.0,0.0,0.0,0.0,-1.2583,-1.2379,-1.2379,-1.2284,-1.2155,-1.2155,-1.2054,-1.1918,-1.185,-1.1708,-1.1565,-1.1504,-1.1423,-1.1355,-1.1355,-1.1307,-1.126,-1.126,-1.1212,-1.1138,-1.1056,-1.1847,-1.2435,-1.2107,-1.289,0.0,-1.3098,-1.4075,-1.5095,-1.5785,-1.5843,-1.6085,-1.6819,-1.6884,-1.6882,-1.6882,-1.6717,-1.6645,-1.6714,-1.655,0.0,0.0,0.0,-1.4566,-1.3628,-1.3572,0.0,0.0,0.0,0.0,0.0,0.0,0.0,0.0,-1.0886,-1.0539,0.0,0.0,0.0,0.0,0.0,0.0,0.0,0.0,0.0,0.0,0.0,0.0,0.0,0.0,0.0,0.0,-1.3478,-1.3919,-1.4075,-1.398,-1.3946,-1.4082,-1.4217,-1.4245,-1.4109,-1.4095,-1.4095,-1.4095,-1.3973,-1.3946,-1.4061,-1.3926,0.0,0.0,0.0,-1.3539,-1.3403,-1.3403,-1.3403,-1.3403,-1.3148,-1.3065,-1.2982,-1.2727,-1.1552,-0.9628,-0.9711,-0.854,-0.67,-0.67,-0.67,-0.7103,-1.0796,-1.2253,-1.2234,-1.2331,-1.2259,-1.2134,-1.2134,0.0,0.0,-1.1695,-1.1523,-1.1382,-1.1174,-1.1123,-1.1085,-1.097,-1.0938,-1.0932,-1.0919,-1.0889,-1.0793,-1.0773,-1.0671,-1.0644,-1.0839,-1.0908,-1.0931,-1.0934,-1.0907,-1.088,-1.0595,-1.2745,-1.4538,-1.4696,-1.4654,-1.4648,-1.477,-1.4731,-1.468,-1.468,-1.437,0.0,-1.4308,-1.4011,-1.3757,-1.3546,-1.3345,-1.3155,-1.2975,-1.3155,-1.3041,-1.268,-1.1553,-1.087,-1.0697,-0.946,-0.8851,-0.891,-0.9806,-0.9801,0.0,0.0,0.0,0.0,0.0,0.0,0.0,0.0,0.0,0.0,0.0,0.0,0.0,0.0,0.0,-1.3098,-1.3634,-1.4082,-1.4238,-1.4231,-1.4224,-1.4251,-1.4285,-1.4285,-1.4258,-1.4258,-1.4258,-1.4258,-1.4231,-1.417,-1.4075,-1.3926,-1.3777,-1.3634,-1.3512,-1.3431,-1.3403,-1.3403,-1.3403,-1.3403,-1.1552,0.0,-1.0715,-0.8874,-0.7789,-0.7368,-0.7368,-0.7118,-0.67,-0.67,-0.67,-0.6777,-0.7506,-0.7795,-0.7946,-0.9557,-1.0089,-0.9987,-1.0144,-1.0068,-0.9656,-0.8024,-0.7338,-0.7185,-0.7165,-0.7034,0.0,-0.6959,-0.6955,-0.6939,-0.6949,-0.6917,-0.6885,-0.6885,-0.6857,-0.7254,-0.8732,-0.8998,-0.9456,-1.0869,-1.1124,-1.1063,-1.0894,-1.1148,-1.1739,-1.2972,-1.3108,-1.3581,-1.4814,-1.497,-1.494,-1.494,-1.4838,-1.4819,-1.4819,-1.4779,-1.4115,-1.2601,-1.1154,-0.9773,-0.8455,-0.9655,-0.9117,-0.6492,-0.7331,-0.7153,-0.5843,-0.5561,-0.5513,-0.5636,-0.7023,-0.7522,0.0,0.0,0.0,0.0,0.0,0.0,0.0,0.0,0.0,0.0,0.0,-1.2372,-1.2678,0.0,-1.339,-1.3688,-1.4048,-1.4346,-1.4496,-1.4523,-1.4468,-1.4319,-1.4299,-1.4299,-1.4299,-1.4299,-1.4299,-1.4299,-1.4231,-1.415,-1.4075,-1.3926,-1.3777,-1.3634,-1.3553,-1.3478,-1.3403,-1.2305,-1.1724,-1.1718,-0.9462,-0.8373,-0.8373,-0.7201,-0.6115,-0.503,-0.503,-0.4363,-0.3358,-0.3358,-0.3358,-0.3355,-0.3253,-0.4558,-0.6666,-0.7689,-0.7995,-0.7877,-0.7957,-0.7893,-0.7661,-0.6648,-0.623,-0.6112,-0.5999,-0.5962,-0.585,-0.581,-0.5801,-0.5794,-0.5833,-0.5826,-0.5816,-0.5779,-0.5769,-0.6044,-0.6982,-0.7183,-0.7428,-0.8203,-0.8384,-0.8343,-0.8168,-0.8053,-0.879,-1.1286,-1.1634,-1.19,-1.2656,-1.2699,-1.2649,-1.2649,-1.2649,-1.2649,-1.2649,-1.1807,-1.0531,-0.8635,-0.7717,-0.6889,-0.6023,-0.6827,-0.6456,-0.4843,-0.5524,-0.5524,-0.4719,-0.4693,-0.4728,-0.4826,-0.4716,-0.5118,0.0,0.0,0.0,0.0,0.0,0.0,0.0,-1.1612,-1.1681,-1.1415,-1.17,-1.2103,-1.2139,-1.2608,-1.3006,-1.2902,-1.2991,-1.3228,-1.3893,-1.3997,-1.4101,-1.4325,-1.4387,-1.4373,-1.4346,-1.434,-1.4333,-1.4299,-1.4183,-1.3928,-1.3452,-1.3249,-1.2863,-1.2307,-1.2301,-1.2234,-1.2099,-1.0331,-0.9397,-0.9378,-0.7118,-0.6035,-0.6035,-0.5616,-0.4444,-0.2771,-0.2687,-0.1681,0.0,0.0,0.0,0.0,0.0,-0.2172,-0.5289,-0.569,-0.5773,-0.567,-0.5737,-0.5688,-0.563,-0.524,-0.5086,-0.5075,-0.4871,-0.4855,-0.4844,-0.472,-0.4707,-0.4704,-0.4694,-0.4691,-0.4688,-0.4675,-0.4673,-0.4812,-0.5137,-0.5265,-0.5299,-0.562,-0.5655,-0.5621,-0.5474,-0.5464,-0.6391,-0.9215,-0.9558,-0.9479,-0.952,-0.9429,-0.9355,-0.9331,-0.9325,-0.9325,-0.9325,-0.8007,-0.6507,-0.5029,-0.4884,-0.475,-0.443,-0.475,-0.4622,-0.3984,-0.4251,-0.4254,-0.3935,-0.3945,-0.3951,-0.3886,-0.2593,-0.2911,-1.2532,-1.2088,-1.2338,-1.2258,-1.2447,-1.218,0.0,-0.9943,-0.9565,-0.7573,-0.9004,-0.9938,-0.7839,-0.9293,-1.0136,-0.8033,-0.7812,-0.874,-1.1044,-1.1323,-1.2141,-1.4419,-1.4692,-1.4638,-1.4502,-1.4489,-1.4434,-1.4306,-1.4285,-1.3318,-1.0991,-1.0883,-0.9865,-0.7522,-0.7432,-0.7477,-0.748,-0.7226,-0.7106,-0.7034,-0.4779,-0.3692,-0.3692,-0.1681,-0.0589,-0.0421,-0.0337,-0.0253,0.0,0.0,0.0,0.0,0.0,-0.0336,-0.1006,-0.29,-0.36,-0.3475,-0.3598,-0.3557,-0.3132,-0.1334,-0.0706,-0.0706,-0.0705,-0.0705,-0.0705,-0.0626,-0.0625,-0.0624,-0.0617,-0.0615,-0.0614,-0.0683,-0.0681,-0.1134,-0.2865,-0.3211,-0.3701,-0.5459,-0.5769,-0.5699,-0.5625,-0.5611,-0.5655,-0.5986,-0.5964,-0.6004,-0.6002,-0.5987,-0.5953,-0.5945,-0.5937,-0.5937,-0.5937,-0.5606,-0.5301,-0.5106,-0.4978,-0.4237,-0.2828,-0.4109,-0.3534,-0.0581,-0.2021,-0.2033,-0.0525,-0.0532,-0.0536,-0.0536,-0.0335,-0.1196,-1.0914,-0.9589,-0.8823,-0.8786,-0.8996,-0.8966,-0.8037,-0.7862,-0.7792,-0.6872,-0.7537,-0.8021,-0.7087,-0.7779,-0.8201,-0.7333,-0.721,-0.7635,-0.88,-0.8995,-0.9368,-1.0399,-1.0533,-1.1657,-1.438,-1.4645,-1.3945,-1.2443,-1.2341,-1.1209,-0.8698,-0.8517,-0.8037,-0.6815,-0.6815,-0.6782,-0.6709,-0.5418,-0.4708,-0.4741,-0.246,-0.1354,-0.143,-0.0421,0.0,0.0,0.0,0.0,0.0,0.0,0.0,0.0,0.0,0.0,-0.0084,-0.0997,-0.1313,-0.1298,-0.1362,-0.1347,-0.1177,-0.0314,0.0,0.0,0.0,0.0,0.0,0.0,0.0,0.0,0.0,0.0,0.0,0.0,0.0,-0.0232,-0.1072,-0.1218,-0.1438,-0.2252,-0.239,-0.2378,-0.2365,-0.2348,-0.2333,-0.2246,-0.4041,-0.5431,-0.5401,-0.5398,-0.5388,-0.5423,-0.542,-0.4997,-0.3942,-0.3782,-0.3232,-0.2224,-0.2077,-0.1744,-0.1083,-0.1691,-0.1421,0.0,-0.0681,-0.0683,0.0,0.0,0.0,0.0,0.0,-0.0344,-0.9046,-0.754,-0.6457,-0.6311,-0.6564,-0.6557,-0.5788,-0.5751,-0.5909,-0.5999,-0.6562,-0.7124,-0.7177,-0.7756,-0.8069,-0.7566,-0.6842,-0.6685,-0.7491,-0.7027,-0.6828,-0.7471,-0.7607,-0.8938,-1.2443,-1.2706,-1.1914,-0.9978,-0.9879,-0.8754,-0.6261,-0.6165,-0.5789,-0.5039,-0.5037,-0.4924,-0.4874,-0.3222,-0.2426,-0.2403,-0.0773,0.0,0.0,0.0,0.0,0.0,0.0,0.0,0.0,0.0,0.0,0.0,0.0,0.0,0.0,0.0,0.0,0.0,0.0,0.0,0.0,0.0,0.0,0.0,0.0,0.0,0.0,0.0,0.0,0.0,0.0,0.0,0.0,0.0,0.0,0.0,0.0,0.0,0.0,0.0,0.0,0.0,0.0,0.0,0.0,0.0,-0.2257,-0.3911,-0.3937,-0.392,-0.3911,-0.3911,-0.3911,-0.341,-0.207,-0.1931,-0.138,-0.0069,0.0,0.0,0.0,0.0,0.0,0.0,0.0,0.0,0.0,0.0,0.0,0.0,0.0,0.0,-0.6684,-0.6286,-0.6463,-0.6362,-0.6625,-0.6267,-0.3894,-0.3568,-0.3689,-0.3875,-0.5713,-0.7456,-0.7551,-0.9468,-1.0278,-0.7946,-0.5567,-0.4749,-0.7213,-0.551,-0.4828,-0.7306,-0.7576,-0.7638,-0.7837,-0.7735,-0.752,-0.7265,-0.7171,-0.6146,-0.385,-0.3669,-0.2597,-0.0269,-0.0179,-0.0179,-0.0177,-0.0177,-0.0088,-0.0087,0.0,0.0,0.0,0.0,0.0,0.0,0.0,0.0,0.0,0.0,0.0,0.0,0.0,0.0,0.0,0.0,0.0,0.0,0.0,0.0,0.0,0.0,0.0,0.0,0.0,0.0,0.0,0.0,0.0,0.0,0.0,0.0,0.0,0.0,0.0,0.0,0.0,0.0,0.0,0.0,0.0,0.0,0.0,0.0,0.0,0.0,-0.0076,-0.0149,-0.0144,-0.0141,-0.014,-0.014,-0.014,-0.014,-0.007,-0.007,-0.007,0.0,0.0,0.0,0.0,0.0,0.0,0.0,0.0,0.0,0.0,0.0,0.0,0.0,0.0,0.0,-0.427,-0.3111,-0.2155,-0.2106,-0.2234,-0.2092,-0.1296,-0.2513,-0.3735,-0.376,-0.5706,-0.7442,-0.7442,-0.8114,-0.8412,-0.7573,-0.6792,-0.6648,-0.7501,-0.5415,-0.4072,-0.4966,-0.354,-0.2597,-0.2587,-0.5564,-0.6765,-0.5052,-0.4866,-0.3841,-0.136,-0.117,-0.0807,0.0,0.0,0.0,0.0,0.0,0.0,0.0,0.0,0.0,0.0,0.0,0.0,0.0,0.0,0.0,0.0,0.0,0.0,0.0,0.0,0.0,0.0,0.0,0.0,0.0,0.0,0.0,0.0,0.0,0.0,0.0,0.0,0.0,0.0,0.0,0.0,0.0,0.0,0.0,0.0,0.0,0.0,0.0,0.0,0.0,0.0,0.0,0.0,0.0,0.0,0.0,0.0,0.0,0.0,0.0,0.0,0.0,0.0,0.0,0.0,0.0,0.0,0.0,0.0,0.0,0.0,0.0,0.0,0.0,0.0,0.0,0.0,0.0,0.0,0.0,0.0,0.0,0.0,0.0,-0.2197,-0.1037,0.0,0.0,0.0,0.0,0.0,-0.1981,-0.4051,-0.4912,-0.7045,-0.9055,-0.9861,-1.0037,-1.005,-1.0087,-0.9428,-0.8637,-0.769,-0.5415,-0.3501,-0.2523,-0.1022,0.0,0.0,-0.2966,-0.4176,-0.2575,-0.2481,-0.174,-0.0091,0.0,0.0,0.0,0.0,0.0,0.0,0.0,0.0,0.0,0.0,0.0,0.0,0.0,0.0,0.0,0.0,0.0,0.0,0.0,0.0,0.0,0.0,0.0,0.0,0.0,0.0,0.0,0.0,0.0,0.0,0.0,0.0,0.0,0.0,0.0,0.0,0.0,0.0,0.0,0.0,0.0,0.0,0.0,0.0,0.0,0.0,0.0,0.0,0.0,0.0,0.0,0.0,0.0,0.0,0.0,0.0,0.0,0.0,0.0,0.0,0.0,0.0,0.0,0.0,0.0,0.0,0.0,0.0,0.0,0.0,0.0,0.0,0.0,0.0,0.0,0.0,0.0,0.0,0.0,0.0,0.0,-0.0519,0.0,0.0,0.0,0.0,0.0,0.0,-0.1999,-0.445,-0.6929,-0.9427,-1.1906,-1.4107,-1.4537,-1.4493,-1.456,-1.2724,-1.0342,-0.7974,-0.5513,-0.3025,-0.0464,-0.0093,0.0,0.0,0.0,0.0,0.0,0.0,0.0,0.0,0.0,0.0,0.0,0.0,0.0,0.0,0.0,0.0,0.0,0.0,0.0,0.0,0.0,0.0,0.0,0.0,0.0,0.0,0.0,0.0,0.0,0.0,0.0,0.0,0.0,0.0,0.0,0.0,0.0,0.0,0.0,0.0,0.0,0.0,0.0,0.0,0.0,0.0,0.0,0.0,0.0,0.0,0.0,0.0,0.0,0.0,0.0,0.0,0.0,0.0,0.0,0.0,0.0,0.0,0.0,0.0,0.0,0.0,0.0,0.0,0.0,0.0,0.0,0.0,0.0,0.0,0.0,0.0,0.0,0.0,0.0,0.0,0.0,0.0,0.0,0.0,0.0,0.0,0.0,0.0,0.0,-0.0177,0.0,0.0,0.0,0.0,0.0,0.0,-0.1977,-0.4498,-0.6857,-0.9226,-1.104,-1.173,-1.1759,-1.1225,-0.9582,-0.8914,-0.8353,-0.769,-0.5449,-0.3628,-0.2902,-0.1122,0.0,0.0,0.0,0.0,0.0,0.0,0.0,0.0,0.0,0.0,0.0,0.0,0.0,0.0,0.0,0.0,0.0,0.0,0.0,0.0,0.0,0.0,0.0,0.0,0.0,0.0,0.0,0.0,0.0,0.0,0.0,0.0,0.0,0.0,0.0,0.0,0.0,0.0,0.0,0.0,0.0,0.0,0.0,0.0,0.0,0.0,0.0,0.0,0.0,0.0,0.0,0.0,0.0,0.0,0.0,0.0,0.0,0.0,0.0,0.0,0.0,0.0,0.0,0.0,0.0,0.0,0.0,0.0,0.0,0.0,0.0,0.0,0.0,0.0,0.0,0.0,0.0,0.0,0.0,0.0,0.0,0.0,0.0,0.0,0.0,0.0,0.0,0.0,0.0,0.0,0.0,0.0,0.0,0.0,0.0,0.0,-0.1958,-0.4165,-0.5442,-0.7602,-0.9242,-0.9202,-0.9206,-0.8721,-0.7618,-0.7493,-0.7226,-0.6115,-0.4787,-0.3438,-0.2269,-0.0848,0.0,0.0,0.0,0.0,0.0,0.0,0.0,0.0,0.0,0.0,0.0,0.0,0.0,0.0,0.0,0.0,0.0,0.0,0.0,0.0,0.0,0.0,0.0,0.0,0.0,0.0,0.0,0.0,0.0,0.0,0.0,0.0,0.0,0.0,0.0,0.0,0.0,0.0,0.0,0.0,0.0,0.0,0.0,0.0,0.0,0.0,0.0,0.0,0.0,0.0,0.0,0.0,0.0,0.0,0.0,0.0,0.0,0.0,0.0,0.0,0.0,0.0,0.0,0.0,0.0,0.0,0.0,0.0,0.0,0.0,0.0,0.0,0.0,0.0,0.0,0.0,0.0,0.0,0.0,0.0,0.0,0.0,0.0,0.0,0.0,0.0,0.0,0.0,0.0,0.0,0.0,0.0,0.0,0.0,0.0,0.0,-0.1753,-0.3381,-0.3539,-0.535,-0.6838,-0.668,-0.6637,-0.6547,-0.6425,-0.6553,-0.5802,-0.3559,-0.3355,-0.2578,-0.0286,0.0,0.0,0.0,0.0,0.0,0.0,0.0,0.0,0.0,0.0,0.0,0.0,0.0,0.0,0.0,0.0,0.0,0.0,0.0,0.0,0.0,0.0,0.0,0.0,0.0,0.0,0.0,0.0,0.0,0.0,0.0,0.0,0.0,0.0,0.0,0.0,0.0,0.0,0.0,0.0,0.0,0.0,0.0,0.0,0.0,0.0,0.0,0.0,0.0,0.0,0.0,0.0,0.0,0.0,0.0,0.0,0.0,0.0,0.0,0.0,0.0,0.0,0.0,0.0,0.0,0.0,0.0,0.0,0.0,0.0,0.0,0.0,0.0,0.0,0.0,0.0,0.0,0.0155,0.0392,0.0389,0.0543,0.0863,0.0863,0.0859,0.085,0.0541,0.0384,0.0381,0.0152,0.0,0.0,0.0,0.0,0.0,0.0,0.0,0.0,-0.0366,-0.1177,-0.3152,-0.3885,-0.414,-0.4213,-0.4114,-0.3444,-0.1562,-0.1308,-0.1134,-0.0764,-0.0677,-0.0485,-0.0096,0.0,0.0,0.0,0.0,0.0,0.0,0.0,0.0,0.0,0.0,0.0,0.0,0.0,0.0,0.0,0.0,0.0,0.0,0.0,0.0,0.0,0.0,0.0,0.0,0.0,0.0,0.0,0.0,0.0,0.0,0.0,0.0,0.0,0.0,0.0,0.0,0.0,0.0,0.0,0.0,0.0,0.0,0.0,0.0,0.0,0.0,0.0,0.0,0.0,0.0,0.0,0.0,0.0,0.0,0.0,0.0,0.0,0.0,0.0,0.0,0.0,0.0,0.0,0.0,0.0,0.0,0.0,0.0,0.0,0.0,0.0,0.0,0.0,0.0,0.0,0.0,0.0,0.0783,0.2506,0.2578,0.3359,0.5162,0.5243,0.5237,0.5226,0.3433,0.2573,0.2491,0.078,0.0,0.0,0.0,0.0,0.0,0.0,0.0,0.0,0.0,-0.0355,-0.1451,-0.1694,-0.1618,-0.1731,-0.1649,-0.1316,-0.0181,0.0,0.0,0.0,0.0,0.0,0.0,0.0,0.0,0.0,0.0,0.0,0.0,0.0,0.0,0.0,0.0,0.0,0.0,0.0,0.0,0.0,0.0,0.0,0.0,0.0,0.0,0.0,0.0,0.0,0.0,0.0,0.0,0.0,0.0,0.0,0.0,0.0,0.0,0.0,0.0,0.0,0.0,0.0,0.0,0.0,0.0,0.0,0.0,0.0,0.0,0.0,0.0,0.0,0.0,0.0,0.0,0.0,0.0,0.0,0.0,0.0,0.0,0.0,0.0,0.0,0.0,0.0,0.0,0.0,0.0,0.1048,0.1764,0.1664,0.2687,0.2523,0.0236,0.0,0.0,0.0,0.0,0.0472,0.1661,0.1741,0.2687,0.4813,0.4892,0.5364,0.6391,0.6391,0.6408,0.6529,0.5496,0.4921,0.4813,0.3894,0.3407,0.0,0.0,0.0,0.0,0.0,0.0,0.0,0.0,0.0,0.0,0.0,0.0,0.0,0.0,0.0,0.0,0.0,0.0,0.0,0.0,0.0,0.0,0.0,0.0,0.0,0.0,0.0,0.0,0.0,0.0,0.0,0.0,0.0,0.0,0.0,0.0,0.0,0.0,0.0,0.0,0.0,0.0,0.0,0.0,0.0,0.0,0.0,0.0,0.0,0.0,0.0,0.0,0.0,0.0,0.0,0.0,0.0,0.0,0.0,0.0,0.0,0.0,0.0,0.0,0.0,0.0,0.0,0.0,0.0,0.0,0.0,0.0,0.0,0.0,0.0,0.0,0.0,0.0,0.0,0.0,0.0409,0.0735,0.0737,0.1144,0.1468,0.1468,0.2926,0.404,0.3921,0.5419,0.5153,0.1733,0.0951,0.0872,0.1334,0.0944,0.1659,0.3821,0.4073,0.5032,0.7103,0.7183,0.7421,0.7898,0.7898,0.7936,0.8012,0.7605,0.732,0.716,0.6843,0.6557,0.0,0.0,0.0,0.0,0.0,0.0,0.0,0.0,0.0,0.0,0.0,0.0,0.0,0.0,0.0,0.0,0.0,0.0,0.0,0.0,0.0,0.0,0.0,0.0,0.0,0.0,0.0,0.0,0.0,0.0,0.0,0.0,0.0,0.0,0.0,0.0,0.0,0.0,0.0,0.0,0.0,0.0,0.0,0.0,0.0,0.0,0.0,0.0,0.0,0.0,0.0,0.0,0.0,0.0,0.0,0.0,0.0,0.0,0.0,0.0,0.0,0.0,0.0,0.0,0.0,0.0,0.0,0.0,0.0,0.0,0.0,0.0,0.0,0.0,0.0,0.0,0.0,0.0,0.0,0.0,0.1662,0.2977,0.3091,0.4723,0.6085,0.6085,0.6194,0.623,0.6385,0.6327,0.6204,0.5957,0.4018,0.3605,0.5552,0.4031,0.3898,0.6046,0.6348,0.7351,0.9447,0.9527,1.042,1.2368,1.2368,1.2375,1.2394,1.0437,0.9407,0.9307,0.7485,0.6557,0.0,0.0,0.0,0.0,0.0,0.0,0.0,0.0,0.0,0.0,0.0,0.0,0.0,0.0,0.0,0.0,0.0,0.0,0.0,0.0,0.0,0.0,0.0,0.0,0.0,0.0,0.0,0.0,0.0,0.0,0.0,0.0,0.0,0.0,0.0,0.0,0.0,0.0,0.0,0.0,0.0,0.0,0.0,0.0,0.0,0.0,0.0,0.0,0.0,0.0,0.0,0.0,0.0,0.0,0.0,0.0,0.0,0.0,0.0,0.0,0.0,0.0,0.0,0.0,0.0,0.0,0.0,0.0,0.0,0.0,0.0,0.0,0.0,0.0,0.0,0.0,0.0,0.1093,0.2016,0.2016,0.3846,0.5335,0.536,0.6093,0.6739,0.6739,0.7789,0.8565,0.8589,0.9632,1.0344,1.0261,0.7129,0.5376,0.6319,0.5713,0.6161,0.8437,0.8725,0.9642,1.1769,1.185,1.2262,1.3085,1.3085,1.3132,1.3227,1.2389,1.1869,1.1666,1.1056,1.0486,0.0,0.0,0.0,0.0,0.0,0.0,0.0,0.0,0.0,0.0,0.0,0.0,0.0,0.0,0.0,0.0,0.0,0.0,0.0,0.0,0.0,0.0,0.0,0.0,0.0,0.0,0.0,0.0,0.0,0.0,0.0,0.0,0.0,0.0,0.0,0.0,0.0,0.0,0.0,0.0,0.0,0.0,0.0,0.0,0.0,0.0,0.0,0.0,0.0,0.0,0.0,0.0,0.0,0.0,0.0,0.0,0.0,0.0,0.0,0.0,0.0,0.0,0.0,0.0,0.0,0.0,0.0,0.0,0.0,0.0,0.0,0.0,0.0,0.0,0.0,0.0168,0.0841,0.2268,0.3608,0.4279,0.6202,0.7706,0.7706,0.829,0.8707,0.8707,1.0014,1.0892,1.0842,1.2093,1.2935,1.2868,1.0094,0.8304,0.8348,0.7815,0.846,1.0764,1.106,1.1746,1.3241,1.3241,1.3241,1.3241,1.3241,1.3295,1.3403,1.3403,1.3268,1.303,1.3281,1.3186,0.0,0.0,0.0,0.0,0.0,0.0,0.0,0.0,0.0,0.0,0.0,0.0,0.0,0.0,0.0,0.0,0.0,0.0,0.0,0.0,0.0,0.0,0.0,0.0,0.0,0.0,0.0,0.0,0.0,0.0,0.0,0.0,0.0,0.0,0.0,0.0,0.0,0.0,0.0,0.0,0.0,0.0,0.0,0.0,0.0,0.0,0.0,0.0,0.0,0.0,0.0,0.0,0.0,0.0,0.0,0.0,0.0,0.0,0.0,0.0,0.0,0.0,0.0,0.0,0.0,0.0,0.0,0.0,0.0,0.0,0.0,0.0,0.0,0.0,0.0,0.0589,0.2771,0.3357,0.4027,0.6199,0.8457,0.9961,1.0044,1.189,1.3321,1.3321,1.3268,1.3227,1.3376,1.3139,1.3017,1.3152,1.3044,1.2815,1.266,1.0844,1.0728,1.2996,1.3315,1.3397,1.3397,1.3397,1.3397,1.3397,1.3397,1.3397,1.3403,1.3403,1.3322,1.3173,1.3329,1.3241,0.0,0.0,0.0,0.0,0.0,0.0,0.0,0.0,0.0,0.0,0.0,0.0,0.0,0.0,0.0,0.0,0.0,0.0,0.0,0.0,0.0,0.0,0.0,0.0,0.0,0.0,0.0,0.0,0.0,0.0,0.0,0.0,0.0,0.0,0.0,0.0,0.0,0.0,0.0,0.0,0.0,0.0,0.0,0.0,0.0,0.0,0.0,0.0,0.0,0.0,0.0,0.0,0.0,0.0,0.0,0.0,0.0,0.0,0.0,0.0,0.0,0.0,0.0,0.0,0.0,0.0,0.0359,0.1971,0.249,0.2467,0.2459,0.2437,0.2068,0.0427,0.1191,0.2459,0.3111,0.5784,0.8207,0.879,1.0798,1.2305,1.2388,1.2982,1.3403,1.3403,1.3363,1.3349,1.3397,1.3227,1.3125,1.3166,1.3044,1.2983,1.303,1.2498,1.2507,1.3322,1.3376,1.3403,1.3403,1.3403,1.3403,1.3403,1.3403,1.3403,1.3403,1.3403,1.3376,1.3329,1.3268,1.3146,-0.0271,0.0,0.0,0.0,0.0,0.0,0.0,0.0,0.0,0.0,0.0,0.0,0.0,0.0,0.0,0.0,0.0,0.0,0.0,0.0,0.0,0.0,0.0,0.0,0.0,0.0,0.0,0.0,0.0,0.0,0.0,0.0,0.0,0.0,0.0,0.0,0.0,0.0,0.0,0.0,0.0,0.0,0.0,0.0,0.0,0.0,0.0,0.0,0.0,0.0,0.0,0.0,0.0,0.0,0.0,0.0,0.0,0.0,0.0,0.0,0.0,0.0,0.0,0.0,0.0,0.0,0.0538,0.2955,0.3563,0.3806,0.467,0.4903,0.452,0.3013,0.368,0.4935,0.5743,0.8148,1.0299,1.1131,1.2395,1.3403,1.3403,1.3403,1.3403,1.3403,1.3403,1.3403,1.3403,1.3315,1.3261,1.3261,1.318,1.3166,1.3254,1.3207,1.3241,1.339,1.3403,1.3403,1.3403,1.3403,1.3403,1.3403,1.3403,1.3403,1.3403,1.3403,1.3403,1.3397,1.3247,1.3125,0.0,-0.0272,0.0,0.0,0.0,0.0,0.0,0.0,0.0,0.0,0.0,0.0,0.0,0.0,0.0,0.0,0.0,0.0,0.0,0.0,0.0,0.0,0.0,0.0,0.0,0.0,0.0,0.0,0.0,0.0,0.0,0.0,0.0,0.0,0.0,0.0,0.0,0.0,0.0,0.0,0.0,0.0,0.0,0.0,0.0,0.0,0.0,0.0,0.0,0.0,0.0,0.0,0.0,0.0,0.0,0.0,0.0,0.0,0.0,0.0,0.0,0.0,0.009,0.0269,0.0269,0.0269,0.0718,0.3134,0.3938,0.4642,0.6797,0.7395,0.7286,0.7122,0.7131,0.7758,0.9889,1.0309,1.0981,1.3008,1.3424,1.3417,1.3431,1.3431,1.3431,1.3431,1.3424,1.3417,1.3417,1.341,1.3403,1.3403,1.3403,1.3403,1.3403,1.3268,1.3247,1.339,1.3403,1.3403,1.3403,1.3403,1.3403,1.3403,1.3403,1.3403,1.3403,1.3403,1.3403,1.3397,1.3254,1.3186,-0.5254,0.0,0.0,0.0,0.0,0.0,0.0,0.0,0.0,0.0,0.0,0.0,0.0,0.0,0.0,0.0,0.0,0.0,0.0,0.0,0.0,0.0,0.0,0.0,0.0,0.0,0.0,0.0,0.0,0.0,0.0,0.0,0.0,0.0,0.0,0.0,0.0,0.0,0.0,0.0,0.0,0.0,0.0,0.0,0.0,0.0,0.0,0.0,0.0,0.0,0.0,0.0,0.0,0.0,0.0,0.0,0.0,0.0,0.0,0.0,0.0,0.0,0.1256,0.2776,0.2776,0.2776,0.3224,0.5633,0.7595,0.9193,0.9703,0.9875,0.9405,0.7552,0.8391,0.9831,1.0355,1.1707,1.2927,1.3631,1.3648,1.3607,1.3722,1.3736,1.3736,1.3736,1.3648,1.3573,1.3573,1.3471,1.3403,1.3403,1.3403,1.3403,1.3403,1.337,1.3363,1.3397,1.3403,1.3403,1.3403,1.3403,1.3403,1.3403,1.3403,1.3403,1.3403,1.3403,1.3403,1.3403,1.3363,1.3288,-0.7004,-0.4195,-0.1562,-0.1561,-0.0782,0.0,0.0,0.0,0.0,0.0,0.0,0.0,0.0,0.0,0.0,0.0,0.0,0.0,0.0,0.0,0.0,0.0,0.0,0.0,0.0,0.0,0.0,0.0,0.0,0.0,0.0,0.0,0.0,0.0,0.0,0.0,0.0,0.0,0.0,0.0,0.0,0.0,0.0,0.0,0.0,0.0,0.0,0.0,0.0,0.0,0.0,0.0,0.0,0.0,0.0,0.0,0.0,0.0,0.0,0.0,0.0,0.0,0.0897,0.215,0.3224,0.4385,0.5722,0.804,0.9735,1.0984,1.2059,1.2325,1.2042,1.0729,1.1291,1.2109,1.2125,1.2962,1.3749,1.3824,1.3777,1.3749,1.3824,1.3838,1.3838,1.3838,1.3777,1.3729,1.3729,1.3654,1.358,1.3512,1.3505,1.3478,1.3403,1.3403,1.3403,1.3403,1.3403,1.3403,1.3403,1.3403,1.3403,1.3403,1.3403,1.3403,1.3403,1.3403,1.3403,1.3403,1.3403,1.3356,-0.7718,-0.5288,-0.3297,-0.3406,-0.1655,0.0,0.0,0.0,0.0,0.0,0.0,0.0,0.0,0.0,0.0,0.0,0.0,0.0,0.0,0.0,0.0,0.0,0.0,0.0,0.0,0.0,0.0,0.0,0.0,0.0,0.0,0.0,0.0,0.0,0.0,0.0,0.0,0.0,0.0,0.0,0.0,0.0,0.0,0.0,0.0,0.0,0.0,0.0,0.0,0.0,0.0,0.0,0.0,0.0,0.0,0.0,0.0,0.0,0.0,0.0269,0.0538,0.0538,0.1076,0.1971,0.4027,0.6347,0.8664,1.0629,1.125,1.1699,1.3761,1.4299,1.4299,1.4299,1.4204,1.4109,1.4109,1.3987,1.3885,1.3905,1.3892,1.3885,1.3905,1.3912,1.3912,1.3912,1.3892,1.3878,1.3878,1.3858,1.3797,1.3675,1.3661,1.3607,1.3478,1.3464,1.3464,1.3464,1.3424,1.3403,1.3403,1.3403,1.3403,1.3403,1.3403,1.3403,1.3403,1.3403,1.3403,1.3403,1.3403,1.3403,-0.9543,-0.6515,-0.3367,-0.3313,-0.1619,0.0,0.0,0.0,0.0,0.0,0.0,0.0,0.0,0.0,0.0,0.0,0.0,0.0,0.0,0.0,0.0,0.0,0.0,0.0,0.0,0.0,0.0,0.0,0.0,0.0,0.0,0.0,0.0,0.0,0.0,0.0,0.0,0.0,0.0,0.0,0.0,0.0,0.0,0.0,0.0,0.0,0.0,0.0,0.0,0.0,0.0,0.0,0.0,0.0,0.0,0.0,0.0,0.0,0.0,0.1345,0.3045,0.3045,0.5811,0.9108,0.9468,1.1255,1.3312,1.3673,1.3761,1.385,1.421,1.4299,1.4299,1.4299,1.4285,1.4265,1.4265,1.4143,1.4075,1.4204,1.4122,1.4075,1.4204,1.4231,1.4231,1.4231,1.4116,1.4034,1.4034,1.3926,1.3831,1.381,1.381,1.3797,1.3777,1.3777,1.3777,1.3777,1.3539,1.3403,1.3403,1.3403,1.3403,1.3403,1.3403,1.3403,1.3403,1.3403,1.3403,1.3403,1.3403,1.3403,-0.8232,-0.5848,-0.3409,-0.3329,-0.1639,0.0,0.0,0.0,0.0,0.0,0.0,0.0,0.0,0.0,0.0,0.0,0.0,0.0,0.0,0.0,0.0,0.0,0.0,0.0,0.0,0.0,0.0,0.0,0.0,0.0,0.0,0.0,0.0,0.0,0.0,0.0,0.0,0.0,0.0,0.0,0.0,0.0,0.0,0.0,0.0,0.0,0.0,0.0,0.0,0.0,0.0,0.0,0.0,0.0,0.0,0.0,0.0,0.0,0.0,0.1614,0.358,0.358,0.5901,0.9019,1.0268,1.1433,1.2597,1.3938,1.4299,1.4299,1.4299,1.4299,1.4299,1.4299,1.4299,1.4299,1.4299,1.4245,1.4217,1.4285,1.4245,1.4217,1.4285,1.4299,1.4299,1.4299,1.4238,1.4197,1.4197,1.4129,1.4055,1.3973,1.3966,1.3933,1.3844,1.3838,1.3838,1.3838,1.3715,1.3641,1.3641,1.3641,1.36,1.3526,1.36,1.36,1.3526,1.36,1.36,1.3526,1.3526,1.3478,-0.5927,-0.4279,-0.2616,-0.258,-0.1219,0.0,0.0,0.0,0.0,0.0,0.0,0.0,0.0,0.0,0.0,0.0,0.0,0.0,0.0,0.0,0.0,0.0,0.0,0.0,0.0,0.0,0.0,0.0,0.0,0.0,0.0,0.0,0.0,0.0,0.0,0.0,0.0,0.0,0.0,0.0,0.0,0.0,0.0,0.0,0.0,0.0,0.0,0.0,0.0,0.0,0.0,0.0,0.0,0.0,0.0,0.0,0.0,0.0,0.0,0.1976,0.4383,0.4383,0.6433,0.9108,1.0984,1.1522,1.1971,1.3761,1.4299,1.4299,1.4299,1.4299,1.4299,1.4299,1.4299,1.4299,1.4299,1.4299,1.4299,1.4299,1.4299,1.4299,1.4299,1.4299,1.4299,1.4299,1.4299,1.4299,1.4299,1.4299,1.4251,1.4136,1.4122,1.4075,1.396,1.3946,1.3946,1.3946,1.3878,1.3838,1.3838,1.3838,1.379,1.3682,1.3783,1.379,1.3682,1.379,1.3783,1.3682,1.3682,1.36,-0.3503,-0.1933,-0.0253,-0.0256,-0.0086,0.0,0.0,0.0,0.0,0.0,0.0,0.0,0.0,0.0,0.0,0.0,0.0,0.0,0.0,0.0,0.0,0.0,0.0,0.0,0.0,0.0,0.0,0.0,0.0,0.0,0.0,0.0,0.0,0.0,0.0,0.0,0.0,0.0,0.0,0.0,0.0,0.0,0.0,0.0,0.0,0.0,0.0,0.0,0.0,0.0,0.0,0.0,0.0,0.0,0.0,0.0,0.0,0.0,0.0,0.2979,0.6879,0.6879,1.0002,1.385,1.4033,1.4033,1.4122,1.421,1.4299,1.4299,1.4299,1.4299,1.4299,1.4299,1.4299,1.4299,1.4299,1.4299,1.4299,1.4299,1.4299,1.4299,1.4299,1.4299,1.4299,1.4299,1.4299,1.4299,1.4299,1.4299,1.4299,1.4285,1.4285,1.4278,1.4272,1.4265,1.4265,1.4265,1.4,1.3838,1.3838,1.3838,1.3838,1.3824,1.3838,1.3838,1.3824,1.3838,1.3838,1.3824,1.3824,1.3749,-0.1243,-0.0663,0.0,0.0,0.0,0.0,0.0,0.0,0.0,0.0,0.0,0.0,0.0,0.0,0.0,0.0,0.0,0.0,0.0,0.0,0.0,0.0,0.0,0.0,0.0,0.0,0.0,0.0,0.0,0.0,0.0,0.0,0.0,0.0,0.0,0.0,0.0,0.0,0.0,0.0,0.0,0.0,0.0,0.0,0.0,0.0,0.0,0.0,0.0,0.0,0.0,0.0,0.0,0.0,0.0,0.0,0.0,0.0,0.0,0.3084,0.7121,0.7074,1.0357,1.4299,1.4299,1.4299,1.4299,1.4299,1.4299,1.4299,1.4299,1.4299,1.4299,1.4299,1.4299,1.4299,1.4299,1.4299,1.4299,1.4299,1.4299,1.4299,1.4299,1.4299,1.4299,1.4299,1.4299,1.4299,1.4299,1.4299,1.4299,1.4299,1.4299,1.4299,1.4299,1.4299,1.4299,1.4299,1.419,1.4129,1.4129,1.4129,1.4082,1.3987,1.4075,1.4082,1.3987,1.4082,1.4075,1.3987,1.3987,1.3905,0.0,0.0,0.0,0.0,0.0,0.0,0.0,0.0,0.0,0.0,0.0,0.0,0.0,0.0,0.0,0.0,0.0,0.0,0.0,0.0,0.0,0.0,0.0,0.0,0.0,0.0,0.0,0.0,0.0,0.0,0.0,0.0,0.0,0.0,0.0,0.0,0.0,0.0,0.0,0.0,0.0,0.0,0.0,0.0,0.0,0.0,0.0,0.0,0.0,0.0,0.0,0.0,0.0,0.0,0.0,0.0,0.0,0.0,0.0,0.3183,0.7161,0.7201,1.0411,1.4367,1.4367,1.4333,1.4306,1.4353,1.4333,1.4312,1.4353,1.4333,1.4312,1.4353,1.4333,1.4299,1.4299,1.4299,1.4299,1.4299,1.4299,1.4299,1.4299,1.4299,1.4299,1.4299,1.4299,1.4299,1.4299,1.4299,1.4299,1.4299,1.4299,1.4299,1.4299,1.4299,1.4299,1.4299,1.4299,1.4299,1.4299,1.4299,1.4251,1.4143,1.4245,1.4251,1.4143,1.4251,1.4245,1.4143,1.4143,1.4061,0.0,0.0,0.0,0.0,0.0,0.0,0.0,0.0,0.0,0.0,0.0,0.0,0.0,0.0,0.0,0.0,0.0,0.0,0.0,0.0,0.0,0.0,0.0,0.0,0.0,0.0,0.0,0.0,0.0,0.0,0.0,0.0,0.0,0.0,0.0,0.0,0.0,0.0,0.0,0.0,0.0,0.0,0.0,0.0,0.0,0.0,0.0,0.0,0.0,0.0,0.0,0.0,0.0,0.0,0.0,0.0,0.0,0.0,0.0,0.3274,0.7356,0.7443,1.061,1.4509,1.4509,1.4414,1.4333,1.4468,1.4414,1.4333,1.4475,1.4407,1.434,1.4475,1.4401,1.4299,1.4299,1.4299,1.4299,1.4299,1.4299,1.4299,1.4299,1.4299,1.4299,1.4299,1.4299,1.4299,1.4299,1.4299,1.4299,1.4299,1.4299,1.4299,1.4299,1.4299,1.4299,1.4299,1.4299,1.4299,1.4299,1.4299,1.4299,1.4299,1.4299,1.4299,1.4299,1.4299,1.4299,1.4299,1.4299,1.4217,0.0,0.0,0.0,0.0,0.0,0.0,0.0,0.0,0.0,0.0,0.0,0.0,0.0,0.0,0.0,0.0,0.0,0.0,0.0,0.0,0.0,0.0,0.0,0.0,0.0,0.0,0.0,0.0,0.0,0.0,0.0,0.0,0.0,0.0,0.0,0.0,0.0,0.0,0.0,0.0,0.0,0.0,0.0,0.0,0.0,0.0,0.0,0.0,0.0,0.0,0.0,0.0,0.0,0.0,0.0,0.0,0.0,0.0,0.0,0.3232,0.7398,0.7387,1.061,1.4509,1.4509,1.4414,1.4333,1.4468,1.4482,1.4509,1.4767,1.4645,1.4434,1.4373,1.4333,1.4299,1.4299,1.4299,1.4299,1.4299,1.4299,1.4299,1.4299,1.4299,1.4299,1.4299,1.4299,1.4299,1.4299,1.4299,1.4299,1.4299,1.4299,1.4299,1.4299,1.4299,1.4299,1.4299,1.4299,1.4299,1.4299,1.4299,1.4299,1.4299,1.4299,1.4299,1.4299,1.4299,1.4299,1.4299,1.4299,1.4278,0.0,0.0,0.0,0.0,0.0,0.0,0.0,0.0,0.0,0.0,0.0,0.0,0.0,0.0,0.0,0.0,0.0,0.0,0.0,0.0,0.0,0.0,0.0,0.0,0.0,0.0,0.0,0.0,0.0,0.0,0.0,0.0,0.0,0.0,0.0,0.0,0.0,0.0,0.0,0.0,0.0,0.0,0.0,0.0,0.0,0.0,0.0,0.0,0.0,0.0,0.0,0.0,0.0,0.0,0.0,0.0,0.0,0.0,0.0,0.3225,0.7378,0.7383,1.061,1.4509,1.4509,1.4414,1.434,1.4543,1.4557,1.4584,1.4889,1.4787,1.4577,1.4496,1.4387,1.4299,1.4299,1.4299,1.4319,1.4373,1.4387,1.4387,1.4387,1.4434,1.4434,1.4319,1.4299,1.4299,1.4299,1.4299,1.4299,1.4299,1.4299,1.4299,1.4299,1.4299,1.4299,1.4299,1.4299,1.4299,1.4299,1.4299,1.4299,1.4299,1.4299,1.4299,1.4299,1.4299,1.4299,1.4299,1.4299,1.4299,0.0,0.0,0.0,0.0,0.0,0.0,0.0,0.0,0.0,0.0,0.0,0.0,0.0,0.0,0.0,0.0,0.0,0.0,0.0,0.0,0.0,0.0,0.0,0.0,0.0,0.0,0.0,0.0,0.0,0.0,0.0,0.0,0.0,0.0,0.0,0.0,0.0,0.0,0.0,0.0,0.0,0.0,0.0,0.0,0.0,0.0,0.0,0.0,0.0,0.0,0.0,0.0,0.0,0.0,0.0,0.0,0.0,0.0,0.0274,0.3458,0.7453,0.7628,1.079,1.4509,1.4509,1.4421,1.438,1.4658,1.4652,1.4618,1.4916,1.4875,1.476,1.476,1.4543,1.434,1.434,1.4333,1.436,1.4489,1.4502,1.4496,1.4509,1.4624,1.4631,1.438,1.434,1.4333,1.4319,1.4333,1.4333,1.4319,1.4319,1.4319,1.4319,1.4306,1.4299,1.4299,1.4299,1.4299,1.4299,1.4299,1.4299,1.4299,1.4299,1.4299,1.4299,1.4299,1.4299,1.4299,1.4299,1.4299,0.0,0.0,0.0,0.0,0.0,0.0,0.0,0.0,0.0,0.0,0.0,0.0,0.0,0.0,0.0,0.0,0.0,0.0,0.0,0.0,0.0,0.0,0.0,0.0,0.0,0.0,0.0,0.0,0.0,0.0,0.0,0.0,0.0,0.0,0.0,0.0,0.0,0.0,0.0,0.0,0.0,0.0,0.0,0.0,0.0,0.0,0.0,0.0,0.0,0.0,0.0,0.0,0.0,0.0,0.0,0.0,0.0,0.0274,0.2186,0.4839,0.7699,0.9545,1.2147,1.4509,1.4509,1.4489,1.4502,1.4685,1.4801,1.4909,1.5092,1.5031,1.4923,1.4923,1.478,1.4645,1.4645,1.455,1.4475,1.4509,1.4421,1.438,1.4489,1.4536,1.4577,1.4638,1.4645,1.4604,1.4482,1.457,1.4597,1.4482,1.4468,1.4468,1.4468,1.4367,1.4299,1.4299,1.4299,1.4299,1.4299,1.4299,1.4299,1.4299,1.4299,1.4299,1.4299,1.4299,1.4299,1.4299,1.4299,1.4299,0.0,0.0,0.0,0.0,0.0,0.0,0.0,0.0,0.0,0.0,0.0,0.0,0.0,0.0,0.0,0.0,0.0,0.0,0.0,0.0,0.0,0.0,0.0,0.0,0.0,0.0,0.0,0.0,0.0,0.0,0.0,0.0,0.0,0.0,0.0,0.0,0.0,0.0,0.0,0.0,0.0,0.0,0.0,0.0,0.0,0.0,0.0,0.0,0.0,0.0,0.0,0.0,0.0,0.072,0.1717,0.1727,0.2457,0.3545,0.4814,0.69,0.9157,1.0366,1.2419,1.4414,1.4414,1.4455,1.4543,1.4699,1.4848,1.5004,1.5147,1.5126,1.5072,1.5072,1.4903,1.474,1.474,1.4679,1.4645,1.4719,1.4672,1.4645,1.4719,1.4672,1.4672,1.4828,1.4787,1.4713,1.4631,1.4692,1.4679,1.4529,1.4509,1.4482,1.4414,1.434,1.4299,1.4299,1.4299,1.4299,1.4299,1.4299,1.4299,1.4299,1.4299,1.4299,1.4299,1.4299,1.4299,1.4299,1.4299,1.4299,0.0,0.0,0.0,0.0,0.0,0.0,0.0,0.0,0.0,0.0,0.0,0.0,0.0,0.0,0.0,0.0,0.0,0.0,0.0,0.0,0.0,0.0,0.0,0.0,0.0,0.0,0.0,0.0,0.0,0.0,0.0,0.0,0.0,0.0,0.0,0.0,0.0,0.0,0.0,0.0,0.0,0.0,0.0,0.0,0.0,0.0,0.0,0.0,0.0,0.0,0.0,0.0,0.0,0.1262,0.2993,0.3446,0.4803,0.6609,0.7422,0.8994,1.0806,1.1161,1.2686,1.4299,1.4299,1.4421,1.4577,1.4706,1.4869,1.5031,1.5153,1.5181,1.5181,1.5181,1.4997,1.4814,1.4814,1.4794,1.4821,1.4943,1.497,1.497,1.497,1.4882,1.4862,1.4991,1.4896,1.4808,1.478,1.4801,1.476,1.4604,1.459,1.4529,1.4387,1.4373,1.4367,1.434,1.434,1.434,1.434,1.4312,1.4299,1.4299,1.4299,1.4299,1.4299,1.4299,1.4299,1.4299,1.4299,1.4299,0.0,0.0,0.0,0.0,0.0,0.0,0.0,0.0,0.0,0.0,0.0,0.0,0.0,0.0,0.0,0.0,0.0,0.0,0.0,0.0,0.0,0.0,0.0,0.0,0.0,0.0,0.0,0.0,0.0,0.0,0.0,0.0,0.0,0.0,0.0,0.0,0.0,0.0,0.0,0.0,0.0,0.0,0.0,0.0,0.0,0.0,0.0,0.0,0.0,0.0,0.0,0.0,0.0,0.018,0.0719,0.2872,0.3768,0.4662,0.8769,1.0461,1.1072,1.3135,1.4033,1.4299,1.4299,1.4489,1.4713,1.4733,1.4943,1.516,1.5174,1.5181,1.5181,1.5181,1.5153,1.5126,1.5126,1.5025,1.4943,1.497,1.497,1.497,1.497,1.5059,1.5133,1.5153,1.5133,1.5079,1.4957,1.5045,1.5065,1.4923,1.4909,1.4848,1.4692,1.4679,1.4624,1.4489,1.4482,1.4482,1.4482,1.4367,1.4299,1.4299,1.4299,1.4299,1.4299,1.4299,1.4299,1.4299,1.4299,1.4299,0.0,0.0,0.0,0.0,0.0,0.0,0.0,0.0,0.0,0.0,0.0,0.0,0.0,0.0,0.0,0.0,0.0,0.0,0.0,0.0,0.0,0.0,0.0,0.0,0.0,0.0,0.0,0.0,0.0,0.0,0.0,0.0,0.0,0.0,0.0,0.0,0.0,0.0,0.0,0.0,0.0,0.0718,0.2061,0.2061,0.1255,0.0,0.0,0.0,0.0,0.0,0.0,0.0,0.0,0.0807,0.233,0.4651,0.6433,0.804,1.1522,1.2686,1.2863,1.3938,1.4299,1.4312,1.4394,1.457,1.476,1.4841,1.5018,1.5181,1.5181,1.5181,1.5181,1.5181,1.5181,1.5181,1.5181,1.5133,1.5086,1.5086,1.5086,1.5086,1.5086,1.514,1.5181,1.5181,1.5181,1.516,1.5099,1.5147,1.5126,1.4984,1.497,1.4909,1.4753,1.474,1.4713,1.4645,1.4557,1.4509,1.4509,1.4373,1.4299,1.4299,1.4299,1.4299,1.4299,1.4299,1.4299,1.4299,1.4299,1.4299,0.0,0.0,0.0,0.0,0.0,0.0,0.0,0.0,0.0,0.0,0.0,0.0,0.0,0.0,0.0,0.0,0.0,0.0,0.0,0.0,0.0,0.0,0.0,0.0,0.0,0.0,0.0,0.0,0.0,0.0,0.0,0.0,0.0,0.0,0.0,0.0,0.0,0.0,0.0269,0.0897,0.0897,0.215,0.4472,0.4472,0.349,0.1793,0.1793,0.1434,0.0897,0.0897,0.0538,0.0,0.0,0.1434,0.3848,0.6255,0.8664,1.1072,1.3489,1.4326,1.4353,1.4353,1.438,1.4434,1.4536,1.4679,1.4821,1.4936,1.5072,1.5181,1.5181,1.5181,1.5181,1.5181,1.5181,1.5181,1.5181,1.5181,1.5181,1.5181,1.5181,1.5181,1.5181,1.5181,1.5181,1.5181,1.5181,1.5181,1.5181,1.5181,1.514,1.5038,1.5025,1.4964,1.4808,1.4835,1.4835,1.4801,1.4692,1.4631,1.4631,1.4455,1.4353,1.4353,1.4319,1.4299,1.4299,1.4299,1.4299,1.4299,1.4299,1.4299,0.0,0.0,0.0,0.0,0.0,0.0,0.0,0.0,0.0,0.0,0.0,0.0,0.0,0.0,0.0,0.0,0.0,0.0,0.0,0.0,0.0,0.0,0.0,0.0,0.0,0.0,0.0,0.0,0.0,0.0,0.0,0.0,0.0,0.0,0.0,0.0,0.0,0.0,0.1166,0.3403,0.3403,0.4651,0.6882,0.6882,0.6879,0.67,0.67,0.5454,0.3403,0.3403,0.2061,0.0,0.0,0.1434,0.3848,0.6255,0.8664,1.1072,1.3489,1.4387,1.4502,1.4502,1.4597,1.4719,1.4726,1.4835,1.4964,1.497,1.5072,1.5181,1.5181,1.5181,1.5181,1.5181,1.5181,1.5181,1.5181,1.5181,1.5181,1.5181,1.5181,1.5181,1.5181,1.5181,1.5181,1.5181,1.5181,1.5181,1.5181,1.5181,1.5181,1.5174,1.5174,1.5113,1.497,1.5079,1.5099,1.497,1.495,1.4943,1.4943,1.4658,1.4502,1.4502,1.4367,1.4299,1.4299,1.4299,1.4299,1.4299,1.4299,1.4299,0.155,0.0954,0.0327,0.1539,0.0962,0.0,0.0,0.0,0.0,0.0,0.0,0.0,0.0,0.0,0.0,0.0,0.0,0.0,0.0,0.0,0.0,0.0,0.0,0.0,0.0,0.0,0.0,0.0,0.0,0.0,0.0,0.0,0.0,0.0,0.0,0.0718,0.233,0.233,0.349,0.5811,0.5811,0.7057,0.938,0.938,1.0268,1.161,1.0091,0.7235,0.349,0.1971,0.0807,0.018,0.1703,0.2866,0.4116,0.7951,1.004,1.1178,1.3617,1.4536,1.4658,1.4658,1.4699,1.476,1.4855,1.493,1.4991,1.5079,1.5147,1.5181,1.5181,1.5181,1.5181,1.5181,1.5181,1.5181,1.5181,1.5181,1.5181,1.5181,1.5181,1.5181,1.5181,1.5181,1.5153,1.5059,1.5126,1.5147,1.5059,1.5126,1.5181,1.5181,1.5181,1.516,1.5113,1.5153,1.516,1.5113,1.5025,1.497,1.497,1.4679,1.4509,1.4509,1.4373,1.4299,1.4299,1.4299,1.4299,1.4299,1.4299,1.4299,0.2347,0.1467,0.0477,0.2419,0.144,0.0,0.0,0.0,0.0,0.0,0.0,0.0,0.0,0.0,0.0,0.0,0.0,0.0,0.0,0.0,0.0,0.0,0.0,0.0,0.0,0.0,0.0,0.0,0.0,0.0,0.0,0.0,0.0,0.0,0.0,0.1166,0.358,0.358,0.5186,0.8308,0.8308,0.9553,1.1876,1.1876,1.2774,1.4122,1.0895,0.7684,0.4561,0.215,0.1166,0.1345,0.2955,0.4561,0.6347,0.9589,1.1357,1.2333,1.4022,1.4692,1.4821,1.4821,1.4848,1.4909,1.5011,1.5038,1.5059,1.5153,1.5181,1.5181,1.5181,1.5181,1.5181,1.5181,1.5181,1.5181,1.5181,1.5181,1.5181,1.5181,1.5181,1.5181,1.5181,1.5181,1.5153,1.5059,1.512,1.5147,1.5052,1.5126,1.5181,1.5181,1.5181,1.5181,1.5181,1.5181,1.5181,1.5181,1.5092,1.5038,1.5038,1.4801,1.4645,1.459,1.4441,1.4346,1.4299,1.4299,1.4299,1.4299,1.4299,1.4299,0.0,0.0,0.0,0.2516,0.1472,0.0,0.0,0.0,0.0,0.0,0.0,0.0,0.0,0.0,0.0,0.0,0.0,0.0,0.0,0.0,0.0,0.0,0.0,0.0,0.0,0.0,0.0,0.0,0.0,0.0,0.0,0.0,0.0,0.009,0.009,0.1255,0.3759,0.3848,0.6168,1.0806,1.0806,1.2059,1.4299,1.4299,1.4299,1.4033,0.9197,0.7057,0.6882,0.4561,0.358,0.358,0.3759,0.6614,1.0733,1.093,1.2513,1.455,1.4692,1.4848,1.4977,1.4977,1.5072,1.5181,1.5181,1.5181,1.5181,1.5181,1.5181,1.5181,1.5181,1.5181,1.5181,1.5181,1.5181,1.5181,1.5181,1.5181,1.5181,1.5181,1.5181,1.5181,1.5181,1.5181,1.5181,1.5174,1.5174,1.5174,1.5174,1.5174,1.5174,1.5181,1.5181,1.5181,1.5181,1.5181,1.5181,1.5181,1.5181,1.5181,1.5181,1.5045,1.4896,1.474,1.459,1.4441,1.4299,1.4299,1.4299,1.4299,1.4299,1.4299,0.4087,0.0,0.0,0.0,0.0,0.0,0.0,0.0,0.0,0.0,0.0,0.0,0.0,0.0,0.0,0.0,0.0,0.0,0.0,0.0,0.0,0.0,0.0,0.0,0.0,0.0,0.0,0.0,0.0,0.0,0.0,0.0,0.081,0.2509,0.2597,0.4561,0.8664,0.8753,1.0268,1.3312,1.3312,1.3673,1.4299,1.4299,1.4299,1.4033,0.9197,0.7057,0.6882,0.4561,0.358,0.3938,0.7417,0.9598,1.1014,1.2861,1.4101,1.4848,1.4896,1.5004,1.5126,1.5126,1.5153,1.5181,1.5181,1.5181,1.5181,1.5181,1.5181,1.5181,1.5181,1.5181,1.5181,1.5181,1.5181,1.5181,1.5181,1.5181,1.5181,1.5181,1.5181,1.5181,1.5181,1.5181,1.5147,1.5045,1.5031,1.5031,1.5031,1.5031,1.5065,1.5174,1.5181,1.5181,1.5181,1.5181,1.5181,1.5181,1.5181,1.5181,1.5181,1.5045,1.4896,1.474,1.459,1.4441,1.4299,1.4299,1.4299,1.4299,1.4299,1.4299,0.0,0.0,0.0,0.6012,0.0,0.0,0.26,0.2628,0.2419,0.1506,0.1434,0.1087,0.0187,0.0,0.0,0.0,0.0,0.0,0.0,0.0,0.0,0.0,0.0,0.0,0.0,0.0,0.0,0.0,0.0,0.0,0.0,0.1,0.2161,0.3582,0.4561,0.6879,1.0629,1.0717,1.1876,1.4299,1.4299,1.4299,1.4299,1.4299,1.4299,1.4122,1.0268,0.8575,0.849,0.718,0.601,0.5457,0.933,1.1452,1.2615,1.4101,1.4814,1.4977,1.5038,1.5113,1.5181,1.5181,1.5181,1.5181,1.5181,1.5181,1.5181,1.5181,1.5181,1.5181,1.5181,1.5181,1.5181,1.5181,1.5181,1.5181,1.5181,1.5181,1.5181,1.5181,1.5181,1.5181,1.5181,1.5181,1.5153,1.5072,1.5059,1.5059,1.5059,1.5059,1.5092,1.5174,1.5181,1.5181,1.5181,1.5181,1.5181,1.5181,1.5181,1.5181,1.5181,1.5106,1.4991,1.4841,1.4685,1.4509,1.4299,1.4299,1.4299,1.4299,1.4299,1.4299,0.4817,0.4485,0.0,0.0,0.715,0.0,0.6169,0.6276,0.5821,0.3935,0.3634,0.3127,0.1098,0.0742,0.0747,0.0746,0.0754,0.0571,0.0095,0.0,0.0,0.0,0.0287,0.0287,0.0,0.0286,0.0286,0.0,0.0,0.0,0.0,0.2273,0.3708,0.3945,0.6261,0.8664,1.1072,1.1072,1.2148,1.4299,1.4299,1.4299,1.4299,1.4319,1.4312,1.421,1.1804,1.0733,1.0743,1.0835,0.9559,0.7792,1.031,1.2632,1.4597,1.4869,1.4984,1.5011,1.514,1.5181,1.5181,1.5181,1.5181,1.5181,1.5181,1.5181,1.5181,1.5181,1.5181,1.5181,1.5181,1.5181,1.5181,1.5181,1.5181,1.5181,1.5181,1.5181,1.5181,1.5181,1.5181,1.5181,1.5181,1.5181,1.5181,1.5181,1.5167,1.5167,1.5181,1.5167,1.5167,1.5181,1.5181,1.5181,1.5181,1.5181,1.5181,1.5181,1.5181,1.5181,1.5181,1.5181,1.5113,1.4977,1.4801,1.4584,1.4326,1.4306,1.4299,1.4299,1.4299,1.4299,0.5169,0.5507,0.5723,0.8101,0.7275,0.0,0.5896,0.6142,0.6128,0.5573,0.5576,0.558,0.5145,0.5132,0.5157,0.5112,0.5442,0.4388,0.0571,0.0,0.0,0.0,0.1822,0.2209,0.0191,0.1809,0.219,0.0191,0.0,0.0,0.0,0.2257,0.45,0.6335,0.8701,1.1161,1.3584,1.3584,1.385,1.4299,1.4299,1.4299,1.4306,1.4421,1.4407,1.4129,1.1889,1.0845,1.0845,1.0865,1.059,1.04,1.2981,1.431,1.4889,1.495,1.5045,1.5147,1.5174,1.5181,1.5181,1.5181,1.5181,1.5181,1.5181,1.5181,1.5181,1.5181,1.5181,1.5181,1.5181,1.5181,1.5181,1.5181,1.5181,1.5181,1.5181,1.5181,1.5181,1.5181,1.5181,1.5181,1.5181,1.5181,1.5181,1.5181,1.5086,1.5052,1.5167,1.5079,1.5059,1.5167,1.5181,1.5181,1.5181,1.5181,1.5181,1.5181,1.5181,1.5181,1.5181,1.5181,1.5113,1.4977,1.4699,1.4529,1.4468,1.4353,1.4299,1.4299,1.4299,1.4299,0.6562,0.694,0.7431,0.951,0.9336,0.0,0.0,0.9045,0.8913,0.7806,0.7657,0.7417,0.6257,0.6199,0.628,0.64,0.6669,0.6115,0.3806,0.3595,0.3347,0.2002,0.3058,0.2775,0.0286,0.1144,0.1331,0.0095,0.0,0.0,0.0,0.2264,0.4688,0.7024,0.9402,1.1876,1.4299,1.4299,1.4299,1.4299,1.4299,1.4299,1.4306,1.4448,1.4475,1.4318,1.3207,1.2728,1.2788,1.2788,1.2829,1.3084,1.4362,1.4903,1.4977,1.5052,1.512,1.5181,1.5181,1.5181,1.5181,1.5181,1.5181,1.5181,1.5181,1.5181,1.5181,1.5181,1.5181,1.5181,1.5181,1.5181,1.5181,1.5181,1.5181,1.5181,1.5181,1.5181,1.5181,1.5181,1.5181,1.5181,1.5181,1.5181,1.5181,1.5181,1.512,1.5099,1.5174,1.512,1.5106,1.5174,1.5181,1.5181,1.5181,1.5181,1.5181,1.5181,1.5181,1.5181,1.5181,1.5181,1.5113,1.4977,1.4821,1.4665,1.4509,1.4441,1.4367,1.4299,1.4299,1.4299,0.808,0.8623,0.9237,1.1063,0.0,1.145,0.0,0.0,0.0,1.0064,0.9745,0.9159,0.7334,0.7151,0.7293,0.7596,0.7799,0.8052,0.8122,0.8549,0.7795,0.471,0.445,0.3516,0.0951,0.0285,0.0,0.0,0.0,0.0,0.0,0.2271,0.4697,0.6991,0.9477,1.161,1.3584,1.4033,1.4033,1.3584,1.4122,1.4299,1.4306,1.4475,1.4536,1.4516,1.457,1.4672,1.4787,1.4787,1.4875,1.5011,1.5011,1.5011,1.5025,1.514,1.5181,1.5181,1.5181,1.5181,1.5181,1.5181,1.5181,1.5181,1.5181,1.5181,1.5181,1.5181,1.5181,1.5181,1.5181,1.5181,1.5181,1.5181,1.5181,1.5181,1.5181,1.5181,1.5181,1.5181,1.5181,1.5181,1.5181,1.5181,1.5181,1.5181,1.5181,1.5181,1.5181,1.5181,1.5181,1.5181,1.5181,1.5181,1.5181,1.5181,1.5181,1.5181,1.5181,1.5181,1.5181,1.5181,1.5126,1.5011,1.4984,1.4848,1.4597,1.457,1.4468,1.4299,1.4326,1.434,0.0,0.0,0.0,1.1736,1.187,1.1911,1.1714,0.0,1.1959,1.1575,0.0,1.1684,1.1396,0.0,0.0,1.1605,1.223,1.2656,1.2675,1.3153,1.1821,0.7107,0.682,0.5963,0.3479,0.1213,0.0,0.0,0.0,0.0,0.0,0.2255,0.4677,0.7064,0.9424,1.0806,1.1072,1.3224,1.3224,1.1161,1.3312,1.4299,1.4306,1.4584,1.4638,1.4529,1.4801,1.493,1.4943,1.4943,1.5031,1.516,1.516,1.516,1.516,1.5174,1.5181,1.5181,1.5181,1.5181,1.5181,1.5181,1.5181,1.5181,1.5181,1.5181,1.5181,1.5181,1.5181,1.5181,1.5181,1.5181,1.5181,1.5181,1.5181,1.5181,1.5181,1.5181,1.5181,1.5181,1.5181,1.5181,1.5181,1.5181,1.5181,1.5181,1.5181,1.5181,1.5181,1.5181,1.5181,1.5181,1.5181,1.5181,1.5181,1.5181,1.5181,1.5181,1.5181,1.5181,1.5181,1.5181,1.5174,1.516,1.5031,1.495,1.4916,1.478,1.457,1.4306,1.4428,1.4489,0.0,0.0,1.1789,1.1728,1.1755,1.1775,1.1647,1.1714,1.1789,1.1721,0.0,0.0,0.0,0.0,0.0,0.0,1.2827,1.3173,1.3254,1.3566,1.2619,0.9406,0.9092,0.7706,0.3774,0.2571,0.1466,0.0092,0.0,0.0,0.0,0.0989,0.2603,0.4951,0.6091,0.7951,1.0629,1.1699,1.2414,1.2774,1.385,1.4299,1.4312,1.4604,1.4706,1.4652,1.478,1.4936,1.5079,1.4909,1.497,1.5181,1.5181,1.5181,1.5181,1.5181,1.5181,1.5181,1.5181,1.5181,1.5181,1.5181,1.5181,1.5181,1.5181,1.5181,1.5181,1.5181,1.5181,1.5181,1.5181,1.5181,1.5181,1.5181,1.5181,1.5181,1.5181,1.5181,1.5181,1.5181,1.5181,1.5181,1.5181,1.5181,1.5181,1.5181,1.5181,1.5181,1.5181,1.5181,1.5181,1.5181,1.5181,1.5181,1.5181,1.5181,1.5181,1.5181,1.5181,1.5181,1.5181,1.5181,1.5181,1.5181,1.5126,1.5052,1.497,1.4903,1.4767,1.4557,1.4618,1.4645,1.1051,1.1475,1.1904,1.1823,1.1769,1.1721,1.164,1.1681,1.1742,1.1742,1.1803,0.0,0.0,0.0,0.0,0.0,0.0,1.2935,1.3037,1.3186,1.2778,1.1399,1.0771,0.8858,0.4737,0.3896,0.2893,0.1093,0.0359,0.0,0.0,0.0,0.1076,0.349,0.358,0.5276,0.8753,1.0091,1.125,1.2325,1.3673,1.4299,1.4306,1.4563,1.4699,1.474,1.4787,1.4923,1.5113,1.4936,1.4964,1.5126,1.5167,1.5181,1.5181,1.5181,1.5181,1.5181,1.5181,1.5181,1.5181,1.5181,1.5181,1.5181,1.5181,1.5181,1.5181,1.5181,1.5181,1.5181,1.5181,1.5181,1.5181,1.5181,1.5181,1.5181,1.5181,1.5181,1.5181,1.5181,1.5181,1.5181,1.5181,1.5181,1.5181,1.5181,1.5181,1.5181,1.5181,1.5181,1.5181,1.5181,1.5181,1.5181,1.5181,1.5181,1.5181,1.5181,1.5181,1.5181,1.5181,1.5181,1.5181,1.5181,1.5181,1.5133,1.5031,1.5031,1.497,1.4862,1.4821,1.4801,0.9677,1.1106,1.2623,1.2338,1.2155,1.1972,1.1687,1.1843,1.2047,1.2047,1.2277,1.2474,1.2474,0.0,0.0,0.0,0.0,0.0,0.0,1.2874,1.303,1.3105,1.1481,0.9432,0.7164,0.4935,0.3558,0.345,0.1327,0.0,0.0,0.0,0.1076,0.349,0.358,0.3669,0.3848,0.8397,0.9553,0.7417,1.2059,1.4299,1.4306,1.4448,1.4597,1.4746,1.4896,1.497,1.4984,1.5113,1.5092,1.4991,1.5126,1.5181,1.5181,1.5181,1.5181,1.5181,1.5181,1.5181,1.5181,1.5181,1.5181,1.5181,1.5181,1.5181,1.5181,1.5181,1.5181,1.5181,1.5181,1.5181,1.5181,1.5181,1.5181,1.5181,1.5181,1.5181,1.5181,1.5181,1.5181,1.5181,1.5181,1.5181,1.5181,1.5181,1.5181,1.5181,1.5181,1.5181,1.5181,1.5181,1.5181,1.5181,1.5181,1.5181,1.5181,1.5181,1.5181,1.5181,1.5181,1.5181,1.5181,1.5181,1.5181,1.5181,1.5174,1.5174,1.5174,1.5167,1.5025,1.4964,0.9172,1.0137,1.0963,1.2114,1.2318,1.2135,1.183,1.1918,1.2135,1.2135,1.2298,1.2501,1.2501,0.0,0.0,0.0,0.0,0.0,0.0,1.2542,1.2678,1.3119,1.2765,1.1584,0.9266,0.7111,0.5913,0.5778,0.3701,0.2382,0.2417,0.2419,0.2061,0.1256,0.2776,0.4385,0.5901,0.9108,1.1072,1.1876,1.3496,1.4299,1.4306,1.4448,1.4536,1.459,1.4645,1.478,1.497,1.4909,1.4977,1.5113,1.516,1.5181,1.5181,1.5181,1.5181,1.5181,1.5181,1.5181,1.5181,1.5181,1.5181,1.5181,1.5181,1.5181,1.5181,1.5181,1.5181,1.5181,1.5181,1.5181,1.5181,1.5181,1.5181,1.5181,1.5181,1.5181,1.5181,1.5181,1.5181,1.5181,1.5181,1.5181,1.5181,1.5181,1.5181,1.5181,1.5181,1.5181,1.5181,1.5181,1.5181,1.5181,1.5181,1.5181,1.5181,1.5181,1.5181,1.5181,1.5181,1.5181,1.5181,1.5181,1.5181,1.5181,1.5181,1.5181,1.5181,1.5181,1.5133,1.5113,0.6959,0.8521,1.0043,1.1255,1.2069,1.2522,1.2223,1.2311,1.2454,1.2454,1.261,1.2773,1.2881,0.0,0.0,0.0,0.0,0.0,0.0,1.2467,1.261,1.3044,1.2649,1.1681,1.0315,0.8199,0.6949,0.6939,0.5504,0.4723,0.4686,0.401,0.3217,0.2494,0.3216,0.474,0.7057,0.9468,1.1522,1.3046,1.385,1.4299,1.4306,1.4394,1.4462,1.4516,1.457,1.4706,1.4889,1.4896,1.4984,1.5113,1.516,1.5181,1.5181,1.5181,1.5181,1.5181,1.5181,1.5181,1.5181,1.5181,1.5181,1.5181,1.5181,1.5181,1.5181,1.5181,1.5181,1.5181,1.5181,1.5181,1.5181,1.5181,1.5181,1.5181,1.5181,1.5181,1.5181,1.5181,1.5181,1.5181,1.5181,1.5181,1.5181,1.5181,1.5181,1.5181,1.5181,1.5181,1.5181,1.5181,1.5181,1.5181,1.5181,1.5181,1.5181,1.5181,1.5181,1.5181,1.5181,1.5181,1.5181,1.5181,1.5181,1.5181,1.5181,1.5181,1.5181,1.5181,1.5181,1.5181]},{"header":{"parameterUnit":"m.s-1","parameterCategory":1,"la1":30.6,"la2":29.2853,"lo1":-89.7004,"lo2":-87.6739,"dy":0.0162,"dx":0.0183,"nx":112,"ny":82,"refTime":"2026-04-09T12:00:00:Z","depth":0,"parameterNumber":3,"parameterNumberName":"V-component_of_WINDS"},"data":[0.0,0.0,0.0,0.0,0.0,0.0,0.0,0.0,0.0,0.0,0.0,0.0,0.0,0.0,0.0,0.0,0.0,0.0,0.0,0.0,0.0,0.0,0.0,0.0,0.0,0.0,0.0,0.0,0.0,0.0,0.0,0.0,0.0,0.0,0.0,0.0,0.0,0.0,0.0,0.0,0.0,0.0,0.0,0.0,0.0,0.0,0.0,0.0,0.0,0.0,0.0,0.0,0.0,0.0,0.0,0.0,0.0,0.0,0.0,0.0,0.0,0.0,0.0,0.0,0.0,0.0,0.0,0.0,0.0,0.0,0.0,0.0,0.0,0.0,0.0,0.0,0.0,0.0,0.0,0.0,0.0,0.0,0.0,0.0,0.0,0.0,0.0,0.0,0.0,0.0,2.78,2.4255,2.0945,1.9998,2.2395,2.4769,2.7153,2.9521,0.0,0.0,0.0,0.0,0.0,0.0,0.0,0.0,0.0,0.0,0.0,0.0,0.0,0.0,0.0,0.0,0.0,0.0,0.0,0.0,0.0,0.0,0.0,0.0,0.0,0.0,0.0,0.0,0.0,0.0,0.0,0.0,0.0,0.0,0.0,0.0,0.0,0.0,0.0,0.0,0.0,0.0,0.0,0.0,0.0,0.0,0.0,0.0,0.0,0.0,0.0,0.0,0.0,0.0,0.0,0.0,0.0,0.0,0.0,0.0,0.0,0.0,0.0,0.0,0.0,0.0,0.0,0.0,0.0,0.0,0.0,0.0,0.0,0.0,0.0,0.0,0.0,0.0,0.0,0.0,0.0,0.0,0.0,0.0,0.0,0.0,0.0,0.0,0.0,0.0,0.0,0.0,0.0,0.0,0.0,0.0,0.0,0.0,0.0,0.0,0.0,0.0,0.0,0.0,2.5213,2.0241,1.9644,2.0523,2.2803,2.5017,2.7347,2.9857,0.0,0.0,0.0,0.0,0.0,0.0,0.0,0.0,0.0,0.0,0.0,0.0,0.0,0.0,0.0,0.0,0.0,0.0,0.0,0.0,0.0,0.0,0.0,0.0,0.0,0.0,0.0,0.0,0.0,0.0,0.0,0.0,0.0,0.0,0.0,0.0,0.0,0.0,0.0,0.0,0.0,0.0,0.0,0.0,0.0,0.0,0.0,0.0,0.0,0.0,0.0,0.0,0.0,0.0,0.0,0.0,0.0,0.0,0.0,0.0,0.0,0.0,0.0,0.0,0.0,0.0,0.0,0.0,0.0,0.0,0.0,0.0,0.0,0.0,0.0,0.0,0.0,0.0,0.0,0.0,0.0,0.0,0.0,0.0,0.0,0.0,0.0,0.0,0.0,0.0,0.0,0.0,0.0,0.0,0.0,0.0,0.0,0.0,0.0,0.0,0.0,0.0,0.0,2.5354,2.1952,1.868,1.8149,1.8977,2.1397,2.4083,2.6806,2.9488,3.2531,0.0,0.0,0.0,0.0,0.0,0.0,0.0,0.0,0.0,0.0,0.0,0.0,0.0,0.0,0.0,0.0,0.0,0.0,0.0,0.0,0.0,0.0,0.0,0.0,0.0,0.0,0.0,0.0,0.0,0.0,0.0,0.0,0.0,0.0,0.0,0.0,0.0,0.0,0.0,0.0,0.0,0.0,0.0,0.0,0.0,0.0,0.0,0.0,0.0,0.0,0.0,0.0,0.0,0.0,0.0,0.0,0.0,0.0,0.0,0.0,0.0,0.0,0.0,0.0,0.0,0.0,0.0,0.0,0.0,0.0,0.0,0.0,0.0,0.0,0.0,0.0,0.0,0.0,0.0,0.0,0.0,0.0,0.0,0.0,0.0,0.0,0.0,0.0,0.0,0.0,0.0,0.0,0.0,0.0,0.0,0.0,0.0,0.0,0.0,0.0,0.0,0.0,2.2517,1.9415,1.777,1.6817,1.7339,2.0065,2.3067,2.6083,2.9101,3.2221,0.0,0.0,0.0,0.0,0.0,0.0,0.0,0.0,0.0,0.0,0.0,0.0,0.0,0.0,0.0,0.0,0.0,0.0,0.0,0.0,0.0,0.0,0.0,0.0,0.0,0.0,0.0,0.0,0.0,0.0,0.0,0.0,0.0,0.0,0.0,0.0,0.0,0.0,0.0,0.0,0.0,0.0,0.0,0.0,0.0,0.0,0.0,0.0,0.0,0.0,0.0,0.0,0.0,0.0,0.0,0.0,0.0,0.0,0.0,0.0,0.0,0.0,0.0,0.0,0.0,0.0,0.0,0.0,0.0,0.0,0.0,0.0,0.0,0.0,0.0,0.0,0.0,0.0,0.0,0.0,0.0,0.0,0.0,0.0,0.0,0.0,0.0,0.0,0.0,0.0,0.0,0.0,0.0,0.0,0.0,0.0,0.0,0.0,0.0,0.0,0.0,0.0,2.1536,1.8622,1.6888,1.5877,1.6656,2.0001,2.2513,2.5425,2.9073,3.2327,0.0,0.0,0.0,0.0,0.0,0.0,0.0,0.0,0.0,0.0,0.0,0.0,0.0,0.0,0.0,0.0,0.0,0.0,0.0,0.0,0.0,0.0,0.0,0.0,0.0,0.0,0.0,0.0,0.0,0.0,0.0,0.0,0.0,0.0,0.0,0.0,0.0,0.0,0.0,0.0,0.0,0.0,0.0,0.0,0.0,0.0,0.0,0.0,0.0,0.0,0.0,0.0,0.0,0.0,0.0,0.0,0.0,0.0,0.0,0.0,0.0,0.0,0.0,0.0,0.0,0.0,0.0,0.0,0.0,0.0,0.0,0.0,0.0,0.0,0.0,0.0,0.0,0.0,0.0,0.0,0.0,0.0,0.0,0.0,0.0,0.0,0.0,0.0,0.0,0.0,0.0,0.0,0.0,0.0,0.0,0.0,0.0,0.0,0.0,0.0,0.0,0.0,2.187,1.9103,1.6624,1.6054,1.6809,1.9274,2.2328,2.5668,2.9307,0.0,0.0,0.0,0.0,0.0,0.0,0.0,0.0,0.0,0.0,0.0,0.0,0.0,0.0,0.0,0.0,0.0,0.0,0.0,0.0,0.0,0.0,0.0,0.0,0.0,0.0,0.0,0.0,0.0,0.0,0.0,0.0,0.0,0.0,0.0,0.0,0.0,0.0,0.0,0.0,0.0,0.0,0.0,0.0,0.0,0.0,0.0,0.0,0.0,0.0,0.0,0.0,0.0,0.0,0.0,0.0,0.0,0.0,0.0,0.0,0.0,0.0,0.0,0.0,0.0,0.0,0.0,0.0,0.0,0.0,0.0,0.0,0.0,0.0,0.0,0.0,0.0,0.0,0.0,0.0,0.0,0.0,0.0,0.0,0.0,0.0,0.0,0.0,0.0,0.0,0.0,0.0,0.0,0.0,0.0,0.0,0.0,0.0,0.0,0.0,0.0,0.0,2.5101,2.2259,1.962,1.7021,1.6455,1.7138,1.931,2.2573,2.598,2.948,0.0,0.0,0.0,0.0,0.0,0.0,0.0,0.0,0.0,0.0,0.0,0.0,0.0,0.0,0.0,0.0,0.0,0.0,0.0,0.0,0.0,0.0,0.0,0.0,0.0,0.0,0.0,0.0,0.0,0.0,0.0,0.0,0.0,0.0,0.0,0.0,0.0,0.0,0.0,0.0,0.0,0.0,0.0,0.0,0.0,0.0,0.0,0.0,0.0,0.0,0.0,0.0,0.0,0.0,0.0,0.0,0.0,0.0,0.0,0.0,0.0,0.0,0.0,0.0,0.0,0.0,0.0,0.0,0.0,0.0,0.0,0.0,0.0,0.0,0.0,0.0,0.0,0.0,0.0,0.0,0.0,0.0,0.0,0.0,0.0,0.0,0.0,0.0,0.0,0.0,0.0,0.0,0.0,0.0,0.0,0.0,0.0,0.0,0.0,0.0,0.0,0.0,2.5718,2.2614,1.9966,1.8119,1.7055,1.7565,2.0386,2.3276,2.6265,0.0,0.0,0.0,0.0,0.0,0.0,0.0,0.0,0.0,0.0,0.0,0.0,0.0,0.0,0.0,0.0,0.0,0.0,0.0,0.0,0.0,0.0,0.0,0.0,0.0,0.0,0.0,0.0,0.0,0.0,0.0,0.0,0.0,0.0,0.0,0.0,0.0,0.0,0.0,0.0,0.0,0.0,0.0,0.0,0.0,0.0,0.0,0.0,0.0,0.0,0.0,0.0,0.0,0.0,0.0,0.0,0.0,0.0,0.0,0.0,0.0,0.0,0.0,0.0,0.0,0.0,0.0,0.0,0.0,0.0,0.0,0.0,0.0,0.0,0.0,0.0,0.0,0.0,0.0,0.0,0.0,0.0,0.0,0.0,0.0,0.0,0.0,0.0,0.0,0.0,0.0,0.0,0.0,0.0,0.0,0.0,0.0,0.0,0.0,0.0,0.0,0.0,0.0,2.7237,2.5638,2.3756,2.1016,2.0134,2.0353,2.1824,2.3506,2.606,2.9776,0.0,0.0,0.0,0.0,0.0,0.0,0.0,0.0,0.0,0.0,0.0,0.0,0.0,0.0,0.0,0.0,0.0,0.0,0.0,0.0,0.0,0.0,0.0,0.0,0.0,0.0,0.0,0.0,0.0,0.0,0.0,0.0,0.0,0.0,0.0,0.0,0.0,0.0,0.0,0.0,0.0,0.0,0.0,0.0,0.0,0.0,0.0,0.0,0.0,0.0,0.0,0.0,0.0,0.0,0.0,0.0,0.0,0.0,0.0,0.0,0.0,0.0,0.0,0.0,0.0,0.0,0.0,0.0,0.0,0.0,0.0,0.0,0.0,0.0,0.0,0.0,0.0,0.0,0.0,0.0,0.0,0.0,0.0,0.0,0.0,0.0,0.0,0.0,0.0,0.0,0.0,0.0,0.0,0.0,0.0,0.0,0.0,0.0,0.0,0.0,0.0,0.0,2.8198,2.7415,2.6179,2.3499,2.295,2.3154,2.4062,2.5153,2.705,2.9985,0.0,0.0,0.0,0.0,0.0,0.0,0.0,0.0,0.0,0.0,0.0,0.0,0.0,0.0,0.0,0.0,0.0,0.0,0.0,0.0,0.0,0.0,0.0,0.0,0.0,0.0,0.0,0.0,0.0,0.0,0.0,0.0,0.0,0.0,0.0,0.0,0.0,0.0,0.0,0.0,0.0,0.0,0.0,0.0,0.0,0.0,0.0,0.0,0.0,0.0,0.0,0.0,0.0,0.0,0.0,0.0,0.0,0.0,0.0,0.0,0.0,0.0,0.0,0.0,0.0,0.0,0.0,0.0,0.0,0.0,0.0,0.0,0.0,0.0,0.0,0.0,0.0,0.0,0.0,0.0,0.0,0.0,0.0,0.0,0.0,0.0,0.0,0.0,0.0,0.0,0.0,0.0,0.0,0.0,0.0,0.0,0.0,0.0,0.0,0.0,0.0,0.0,2.9194,2.8646,2.7804,2.5885,2.5584,2.5847,2.6586,2.7556,2.8725,3.0196,0.0,0.0,0.0,0.0,0.0,0.0,0.0,0.0,0.0,0.0,0.0,0.0,0.0,0.0,0.0,0.0,0.0,0.0,0.0,0.0,0.0,0.0,0.0,0.0,0.0,0.0,0.0,0.0,0.0,0.0,0.0,0.0,0.0,0.0,0.0,0.0,0.0,0.0,0.0,0.0,0.0,0.0,0.0,0.0,0.0,0.0,0.0,0.0,0.0,0.0,0.0,0.0,0.0,0.0,0.0,0.0,0.0,0.0,0.0,0.0,4.4086,4.309,0.0,0.0,0.0,0.0,0.0,0.0,0.0,0.0,0.0,0.0,0.0,0.0,0.0,0.0,0.0,0.0,0.0,0.0,0.0,0.0,0.0,0.0,0.0,0.0,0.0,0.0,0.0,0.0,0.0,0.0,0.0,0.0,0.0,0.0,0.0,0.0,0.0,0.0,0.0,0.0,3.2877,3.2131,3.106,2.9546,2.862,2.7849,2.721,2.7643,2.8625,3.0276,3.1446,0.0,0.0,0.0,0.0,0.0,0.0,0.0,0.0,0.0,0.0,0.0,0.0,0.0,0.0,0.0,0.0,0.0,0.0,0.0,0.0,0.0,0.0,0.0,0.0,0.0,0.0,0.0,0.0,0.0,0.0,0.0,0.0,0.0,0.0,0.0,0.0,0.0,0.0,0.0,0.0,0.0,0.0,0.0,0.0,0.0,0.0,0.0,0.0,0.0,0.0,0.0,0.0,0.0,0.0,0.0,0.0,0.0,0.0,0.0,4.6009,4.5324,0.0,0.0,0.0,0.0,0.0,0.0,0.0,0.0,0.0,0.0,0.0,0.0,0.0,0.0,0.0,0.0,0.0,0.0,0.0,0.0,0.0,0.0,0.0,0.0,0.0,0.0,0.0,0.0,0.0,0.0,0.0,0.0,0.0,0.0,0.0,0.0,0.0,0.0,0.0,0.0,3.4673,3.4399,3.3779,3.2596,3.1978,3.1408,3.0841,3.0472,3.0795,3.2045,3.1857,0.0,0.0,0.0,0.0,0.0,0.0,0.0,0.0,0.0,0.0,0.0,0.0,0.0,0.0,0.0,0.0,0.0,0.0,0.0,0.0,0.0,0.0,0.0,0.0,0.0,0.0,0.0,0.0,0.0,0.0,0.0,0.0,0.0,0.0,0.0,0.0,0.0,0.0,0.0,0.0,0.0,0.0,0.0,0.0,0.0,0.0,0.0,0.0,0.0,0.0,0.0,0.0,0.0,5.3794,5.3489,5.2832,5.3315,5.2526,5.0704,4.9591,4.914,4.9135,4.8806,0.0,0.0,0.0,0.0,0.0,0.0,0.0,0.0,0.0,0.0,0.0,0.0,0.0,0.0,0.0,0.0,0.0,0.0,0.0,0.0,0.0,0.0,4.52,4.4524,4.4353,4.4268,4.3956,0.0,0.0,0.0,0.0,0.0,0.0,0.0,0.0,0.0,0.0,0.0,3.6193,3.6268,3.6164,3.5337,3.5022,3.478,3.4594,3.3678,3.3416,3.4136,3.2945,3.2903,0.0,0.0,0.0,0.0,0.0,0.0,0.0,0.0,0.0,0.0,0.0,0.0,0.0,0.0,0.0,0.0,0.0,0.0,0.0,0.0,0.0,0.0,0.0,0.0,0.0,0.0,0.0,0.0,0.0,0.0,0.0,0.0,5.3667,5.3262,0.0,0.0,0.0,0.0,0.0,0.0,0.0,0.0,0.0,0.0,0.0,0.0,0.0,5.5005,5.6304,5.6986,5.7732,5.8579,5.9242,5.9441,5.938,5.9435,5.9311,5.9007,5.8849,0.0,4.9892,5.1241,0.0,0.0,0.0,0.0,0.0,0.0,0.0,0.0,0.0,0.0,0.0,0.0,0.0,0.0,0.0,0.0,0.0,0.0,0.0,0.0,0.0,0.0,4.8317,4.8211,4.8176,4.8155,4.809,4.4881,4.2149,4.2581,4.2646,4.2377,0.0,0.0,0.0,0.0,0.0,0.0,3.924,3.8714,3.8238,3.7868,3.6603,3.548,3.4668,3.4455,3.4534,3.4837,3.4139,3.4691,3.6842,3.5693,0.0,0.0,0.0,0.0,0.0,0.0,0.0,0.0,0.0,0.0,0.0,0.0,0.0,0.0,0.0,0.0,0.0,0.0,0.0,0.0,0.0,0.0,0.0,0.0,0.0,0.0,0.0,0.0,0.0,5.5198,5.5861,5.5463,5.6125,5.6151,0.0,0.0,0.0,0.0,0.0,0.0,0.0,0.0,0.0,5.799,5.8372,5.9134,6.0293,6.0593,6.1208,6.2069,6.1911,6.2068,6.2498,6.2042,6.1863,6.1832,6.1832,6.0062,5.7071,5.6094,5.5033,5.3866,0.0,0.0,0.0,0.0,5.1302,5.115,5.2403,5.2838,5.2627,5.2025,0.0,0.0,0.0,0.0,0.0,0.0,0.0,4.9218,5.0043,5.0245,5.0196,5.0196,4.9841,4.9533,4.9533,4.7611,4.5823,4.5463,4.5015,4.425,4.2703,4.2278,0.0,0.0,0.0,4.0869,4.114,4.083,4.051,4.0402,3.9784,3.9229,3.8793,3.8425,3.8054,3.7643,3.6639,3.6692,3.8137,3.742,3.7931,0.0,0.0,0.0,0.0,0.0,0.0,0.0,0.0,0.0,0.0,0.0,0.0,0.0,0.0,0.0,0.0,0.0,0.0,0.0,0.0,0.0,0.0,0.0,0.0,0.0,0.0,0.0,0.0,5.7209,5.8224,5.7587,5.875,5.8957,0.0,0.0,0.0,0.0,0.0,0.0,5.8824,5.9538,6.0595,6.2049,6.2578,6.3356,6.4347,6.4383,6.4787,6.5632,6.5131,6.514,6.5561,6.5229,6.5019,6.4914,6.4802,6.4672,6.4245,6.0827,5.8816,5.7711,5.6,5.5101,5.4717,5.4717,5.4619,5.465,5.6366,5.7036,5.6937,5.5866,5.488,5.3805,5.1731,0.0,0.0,0.0,0.0,5.2222,5.3024,5.2785,5.2337,5.2337,5.1871,5.1381,5.1166,5.0546,4.9554,4.8066,4.7132,4.6032,4.421,4.4169,0.0,4.2196,4.2436,4.2774,4.2774,4.2526,4.2332,4.2332,4.2141,4.1981,4.1981,4.1533,4.0992,4.0313,3.9186,3.8902,3.9629,3.9369,3.9757,4.0937,0.0,0.0,0.0,0.0,0.0,0.0,0.0,0.0,0.0,0.0,0.0,0.0,0.0,0.0,0.0,0.0,0.0,0.0,0.0,0.0,0.0,0.0,0.0,0.0,0.0,0.0,0.0,0.0,0.0,5.9357,6.1875,0.0,0.0,0.0,0.0,6.1263,6.2507,6.3391,6.3709,6.4248,6.5059,6.6156,6.6256,6.7026,6.8568,6.8605,6.9009,6.9779,7.0335,7.0309,6.9816,7.0883,7.1089,7.0561,7.0345,6.9754,6.8746,6.4359,6.1656,6.0232,6.0113,5.9113,5.778,5.778,5.857,5.964,5.9731,6.0113,6.0579,6.124,5.9351,5.6646,5.5762,5.4418,0.0,0.0,5.522,5.508,5.588,5.5739,5.5397,5.5397,5.5361,5.5104,5.4349,5.3543,5.2164,4.9388,4.8163,4.7358,4.6483,0.0,4.4949,4.4182,4.4198,4.43,4.43,4.3665,4.3229,4.3229,4.2489,4.1981,4.1981,4.1981,4.1949,4.1885,4.1214,4.117,4.2016,4.1412,4.1345,4.1909,4.2505,0.0,0.0,0.0,0.0,0.0,0.0,0.0,0.0,0.0,0.0,0.0,0.0,0.0,0.0,0.0,0.0,0.0,0.0,0.0,0.0,0.0,0.0,0.0,0.0,0.0,0.0,0.0,0.0,6.2773,6.5528,0.0,6.4837,6.4912,6.5287,6.5811,6.6299,6.7088,6.8203,6.8452,6.8999,6.9904,6.9918,7.018,7.0779,7.0779,7.0906,7.1205,7.1396,7.1396,7.1191,7.16,7.1702,7.1507,7.1421,7.1223,7.0805,6.8676,6.6537,6.451,6.4,6.3447,6.296,6.296,6.3268,6.367,6.3632,6.3691,6.3614,6.2331,6.0742,5.9228,5.8434,5.7413,5.6771,5.7888,5.7661,5.7296,5.8105,5.779,5.7286,5.7286,5.6893,5.6406,5.6144,5.5621,5.4731,5.3203,5.1155,4.9329,4.8133,4.8079,4.7621,4.595,4.6188,4.6337,4.5761,4.548,4.5286,4.5286,4.5008,4.4814,4.4814,4.4814,4.4592,4.4119,4.3821,4.3857,4.4136,4.389,4.4067,4.4703,4.4407,4.3917,0.0,0.0,0.0,0.0,0.0,0.0,0.0,0.0,0.0,0.0,0.0,0.0,0.0,0.0,0.0,0.0,0.0,0.0,0.0,0.0,0.0,0.0,0.0,0.0,0.0,6.4857,6.6994,6.6277,6.9092,7.034,6.8451,6.8489,6.8885,6.9415,6.9872,7.0744,7.2188,7.2465,7.2692,7.3036,7.3053,7.2902,7.2637,7.2637,7.2637,7.2637,7.2823,7.2823,7.2658,7.3022,7.3117,7.2886,7.2833,7.2794,7.2718,7.1901,7.0626,6.8935,6.7184,6.6333,6.6107,6.6107,6.62,6.6382,6.6505,6.6349,6.5779,6.3856,6.2693,6.1872,6.105,6.0388,6.0084,6.0639,6.0263,5.9793,6.0345,5.9753,5.9046,5.9046,5.8404,5.7742,5.7477,5.7163,5.6705,5.5899,5.3512,5.125,5.0022,5.001,4.9641,4.8147,4.8207,4.8187,4.7629,4.737,4.7251,4.7251,4.6979,4.6838,4.6838,4.6566,4.6187,4.5666,4.5606,4.5606,4.5606,4.5606,4.5822,4.6269,4.5823,4.5386,4.4932,0.0,0.0,0.0,0.0,0.0,0.0,0.0,0.0,0.0,0.0,0.0,0.0,0.0,0.0,0.0,0.0,0.0,0.0,0.0,0.0,0.0,0.0,0.0,6.4988,6.8167,7.0493,6.9795,7.2556,7.3594,7.1194,7.1628,7.2119,7.2119,7.3307,7.4524,7.5636,7.6179,7.616,7.5572,7.5513,7.5113,7.4358,7.4358,7.4358,7.4358,7.4886,7.4866,7.4379,7.5485,7.5686,7.5107,7.4835,7.4745,7.4668,7.386,7.3538,7.3173,6.9641,6.7788,6.7089,6.7089,6.7329,6.7751,6.8276,6.7859,6.7013,6.6244,6.5397,6.4512,6.3666,6.3397,6.3346,6.3346,6.3012,6.2612,6.2612,6.1723,6.0798,6.0798,6.0138,5.929,5.8514,5.8308,5.8044,5.7208,5.5044,5.3083,5.2259,5.1487,5.0916,5.0859,5.0277,0.0,4.9834,4.9317,4.8957,4.8957,4.8258,4.7808,4.7808,4.7015,4.6531,4.6519,4.6519,4.6519,4.6542,4.6542,4.6542,4.6542,4.6739,4.7128,4.7718,0.0,0.0,0.0,0.0,0.0,0.0,0.0,0.0,0.0,0.0,0.0,0.0,0.0,0.0,0.0,0.0,0.0,0.0,0.0,0.0,0.0,6.8579,7.0424,6.8858,7.1483,7.3712,7.4149,7.6065,7.71,7.641,7.6564,7.6679,7.6679,7.7045,7.7352,7.7696,7.7297,7.699,7.6799,7.6169,7.5748,7.5518,7.5518,7.5518,7.5518,7.5686,7.567,7.5535,7.5872,7.5917,7.5749,7.5663,7.563,7.5592,7.4707,7.4361,7.4216,7.264,7.1474,7.0724,7.0724,7.0056,6.9145,6.9281,6.8783,6.8013,6.7782,6.7128,6.6359,6.6128,6.5205,6.4243,6.4243,6.3681,6.3105,6.3105,6.2847,6.2588,6.2588,6.2383,6.2013,6.1209,6.0771,6.0084,5.8652,5.7532,5.6365,5.494,5.449,5.3861,5.2326,5.1935,5.1502,5.0639,5.0399,5.0292,5.0292,5.0074,4.9965,4.9965,4.9747,4.9455,4.91,4.9082,4.9233,4.9572,4.9589,4.9589,4.9589,4.8477,4.7988,0.0,0.0,0.0,0.0,0.0,0.0,0.0,0.0,0.0,0.0,0.0,0.0,0.0,0.0,0.0,0.0,0.0,0.0,0.0,0.0,0.0,0.0,7.2438,7.4687,7.4296,7.5434,7.663,7.7476,7.8784,7.9438,7.9092,7.9054,7.9054,7.9054,7.8707,7.8669,7.9015,7.8246,7.763,7.7323,7.6823,7.6361,7.6015,7.6015,7.6015,7.6015,7.6015,7.6015,7.6015,7.6015,7.6062,7.6134,7.6134,7.6172,7.6216,7.5724,7.5492,7.5341,0.0,0.0,0.0,0.0,7.136,7.0206,7.0206,6.9667,6.8936,6.8936,6.8359,6.759,6.7205,6.6397,6.559,6.5243,6.4782,6.4397,6.4397,6.4128,6.3858,6.3858,6.3589,6.3166,6.2704,6.2401,6.1808,6.052,5.9998,0.0,5.7592,5.6717,5.5847,5.46,5.4135,5.3656,5.2939,5.2549,5.2345,5.2345,5.2029,5.1805,5.1824,5.1508,0.0,0.0,0.0,5.1008,5.1307,5.1322,0.0,0.0,0.0,0.0,0.0,0.0,0.0,0.0,4.936,4.9316,0.0,0.0,0.0,0.0,0.0,0.0,0.0,0.0,0.0,0.0,0.0,0.0,0.0,0.0,0.0,0.0,7.6438,7.8938,7.9823,7.9285,7.9092,7.9862,8.0631,8.0785,8.0015,7.9939,7.9939,7.9939,7.9246,7.9092,7.9746,7.8977,0.0,0.0,0.0,7.6784,7.6015,7.6015,7.6015,7.6015,7.602,7.6034,7.6048,7.6052,7.616,7.6348,7.6338,7.6438,7.6582,7.6582,7.6582,7.6389,7.4456,7.3715,7.3599,7.2712,7.1813,7.1081,7.1081,0.0,0.0,6.9887,6.9322,6.8474,6.7677,6.7369,6.7138,6.6444,6.6251,6.6213,6.6136,6.5507,6.4929,6.4814,6.4197,6.3608,6.3495,6.3484,6.3202,6.2409,6.2255,6.1704,6.0089,5.8391,5.7245,5.7084,5.6409,5.5885,5.5853,5.5217,5.4786,5.4786,5.4101,0.0,5.3632,5.2983,5.2485,5.2378,5.2309,5.2276,5.2281,5.2276,5.2305,5.2313,5.2654,5.2839,5.2874,5.3308,5.361,5.36,5.0741,5.0423,0.0,0.0,0.0,0.0,0.0,0.0,0.0,0.0,0.0,0.0,0.0,0.0,0.0,0.0,0.0,7.4284,7.7323,7.9862,8.0746,8.0708,8.0669,8.0823,8.1016,8.1016,8.0862,8.0862,8.0862,8.0862,8.0708,8.0362,7.9823,7.8977,7.813,7.7323,7.663,7.6169,7.6015,7.6015,7.6015,7.6015,7.616,0.0,7.6243,7.64,7.6518,7.6521,7.6521,7.6545,7.6582,7.6582,7.6582,7.6497,7.5369,7.4947,7.4813,7.3837,7.2938,7.2203,7.2181,7.164,7.0947,7.1111,7.0557,6.9826,6.9632,6.9096,0.0,6.8358,6.8319,6.8163,6.7534,6.7223,6.6912,6.6205,6.5933,6.5576,6.4687,6.4532,6.4229,6.3253,6.3089,6.2743,6.1781,6.0147,5.8681,5.762,5.7349,5.7118,5.6771,5.6609,5.6495,5.6495,5.6361,5.6285,5.6285,5.6134,5.5579,5.458,5.4216,5.4045,5.4148,5.4066,5.412,5.434,5.4312,5.4336,5.4453,5.5228,5.5979,5.6595,5.3801,5.3103,0.0,0.0,0.0,0.0,0.0,0.0,0.0,0.0,0.0,0.0,0.0,7.0167,7.1898,0.0,7.5938,7.763,7.9669,8.1362,8.2208,8.2362,8.2054,8.1208,8.1093,8.1093,8.1093,8.1093,8.1093,8.1093,8.0708,8.0246,7.9823,7.8977,7.813,7.7323,7.6861,7.6438,7.6015,7.6081,7.6173,7.6135,7.6369,7.6457,7.6457,7.6537,7.6631,7.6749,7.6749,7.6829,7.6919,7.6919,7.6919,7.6841,7.6415,7.5879,7.5252,7.4722,7.3747,7.266,7.2651,7.2069,7.1387,7.1488,7.1212,7.0752,7.033,6.9902,6.9481,6.9013,6.8897,6.8819,6.8384,6.8307,6.819,6.7762,6.7645,6.7386,6.6431,6.6252,6.5832,6.448,6.4221,6.3911,6.3106,6.2215,6.109,5.9446,5.8821,5.8489,5.829,5.7881,5.7652,5.7652,5.7652,5.7652,5.7652,5.7711,5.752,5.6927,5.6704,5.6614,5.6712,5.6621,5.6665,5.6786,5.6724,5.6724,5.6796,5.723,5.7658,5.8081,5.6757,5.637,0.0,0.0,0.0,0.0,0.0,0.0,0.0,6.9862,7.1236,7.207,7.2341,7.3304,7.6108,7.7417,7.8777,8.0891,8.2024,8.2936,8.358,8.3641,8.3149,8.1762,8.1593,8.1516,8.1362,8.1323,8.1285,8.1093,8.0439,8.0008,7.9851,7.9172,7.8444,7.7703,7.7665,7.724,7.6391,7.6532,7.6534,7.6379,7.6545,7.6677,7.6677,7.6709,7.6785,7.6942,7.6945,7.7052,7.7187,7.7187,7.7187,7.7187,7.7187,7.6571,7.5635,7.545,7.4386,7.3061,7.2899,7.2276,7.1536,7.1566,7.1616,7.146,7.077,7.0536,7.038,6.9684,6.9489,6.945,6.9294,6.9255,6.9216,6.9021,6.8982,6.8816,6.8127,6.7843,6.7331,6.5893,6.5459,6.507,6.4181,6.4064,6.3468,6.1659,6.0776,6.0275,6.011,5.9531,5.9068,5.8914,5.8875,5.8875,5.8875,5.8833,5.8821,5.8965,5.8782,5.8714,5.8739,5.8714,5.8725,5.881,5.8948,5.8987,5.9049,5.9204,5.9282,5.9287,5.9396,5.9264,6.6406,6.6845,6.8229,6.9077,7.0591,7.2301,0.0,7.489,7.5844,7.6893,7.7526,7.812,7.8712,8.0009,8.1088,8.1558,8.3032,8.4039,8.3885,8.3887,8.3734,8.3371,8.3324,8.3016,8.2247,8.217,8.1862,8.1131,8.1016,8.0666,8.0109,7.9966,7.9625,7.9018,7.8987,7.8551,7.7687,7.7711,7.733,7.6552,7.6765,7.6864,7.6864,7.7052,7.7146,7.7186,7.7187,7.7187,7.7187,7.7187,7.7187,7.7187,7.7187,7.7108,7.6868,7.5921,7.4952,7.402,7.3232,7.2413,7.1728,7.1902,7.1949,7.191,7.1832,7.1793,7.1793,7.1677,7.1638,7.1481,7.07,7.0505,7.031,6.9528,6.9332,6.9287,6.9081,6.8401,6.779,6.7475,6.6782,6.5965,6.5109,6.4953,6.4636,6.3625,6.3392,6.3074,6.2329,6.2173,6.1823,6.1039,6.0961,6.0961,6.0961,6.0287,5.9844,5.9861,5.9127,5.8754,5.8877,5.8763,5.8839,5.9138,5.9731,6.0083,6.0193,6.0974,6.1365,6.1365,6.1366,6.0887,6.9895,7.1035,7.2512,7.2871,7.4616,7.6468,7.7278,7.8082,7.9109,8.0567,8.1056,8.1442,8.2038,8.2682,8.3269,8.382,8.4537,8.5127,8.5525,8.5583,8.5543,8.5463,8.5014,8.4276,8.314,8.3054,8.2779,8.203,8.1967,8.1695,8.1058,8.1038,8.0694,7.9905,7.9905,7.9516,7.866,7.872,7.8374,7.7511,7.7734,7.7566,7.7096,7.7147,7.7187,7.7187,7.7187,7.7187,7.7187,7.7187,7.7187,7.7187,7.7187,7.7187,7.707,7.6126,7.5223,7.4363,7.3464,7.2605,7.1904,7.1952,7.1992,7.1992,7.1992,7.2344,7.2773,7.2773,7.2773,7.2656,7.2305,7.1836,7.1367,7.1015,7.0898,7.0742,7.0187,6.9794,6.936,6.8791,6.8435,6.8083,6.7732,6.7224,6.6795,6.6407,6.4913,6.3675,6.3325,6.3286,6.3169,6.2774,6.2735,6.2613,6.2219,6.1837,6.1673,6.1757,6.141,6.146,6.2022,6.2008,6.2015,6.2187,6.2457,6.2613,6.2656,6.3047,6.3203,6.3203,6.3203,6.3007,7.2366,7.407,7.5702,7.5949,7.7966,7.9966,8.026,8.0968,8.1935,8.3182,8.3375,8.3525,8.4147,8.441,8.4773,8.5408,8.5743,8.6147,8.6708,8.6864,8.6763,8.6475,8.5874,8.5039,8.3887,8.3768,8.3451,8.276,8.2693,8.2427,8.1831,8.176,8.1513,8.0937,8.0898,8.0513,7.9695,7.9779,7.9416,7.8635,7.8746,7.8515,7.789,7.789,7.789,7.789,7.7656,7.7578,7.7539,7.7305,7.7187,7.7187,7.7187,7.7187,7.7109,7.6211,7.5351,7.4453,7.332,7.2539,7.1992,7.1992,7.1992,7.1992,7.1992,7.2617,7.3281,7.3281,7.3476,7.3672,7.3672,7.3203,7.2656,7.2422,7.2344,7.2109,7.125,7.0859,7.0508,6.9883,6.9609,6.9453,6.9453,6.8945,6.8555,6.8555,6.6719,6.5117,6.4372,6.4099,6.3943,6.3943,6.3943,6.3737,6.3247,6.3213,6.3266,6.3359,6.3359,6.3633,6.4258,6.4297,6.4297,6.4297,6.4297,6.4297,6.4297,6.4297,6.4297,6.4297,6.4297,6.4414,7.274,7.4658,7.676,7.7591,7.9725,8.1909,8.2955,8.383,8.449,8.452,8.4338,8.4162,8.4193,8.4746,8.5242,8.5451,8.6383,8.698,8.681,8.6974,8.6701,8.5665,8.5524,8.5166,8.4285,8.4176,8.3843,8.3042,8.3011,8.2701,8.2019,8.1988,8.2068,8.2226,8.2226,8.1836,8.0937,8.0937,8.0508,7.9648,7.9648,7.9648,7.9609,7.9609,7.9609,7.957,7.8789,7.8476,7.8398,7.7539,7.7187,7.7187,7.7187,7.7187,7.7109,7.6211,7.5351,7.4336,7.2617,7.2031,7.1992,7.1992,7.1992,7.1992,7.1992,7.2617,7.3281,7.3281,7.3906,7.457,7.457,7.4531,7.4297,7.3476,7.3242,7.3008,7.2148,7.1289,7.0703,7.0664,6.9961,6.9414,6.9414,6.9375,6.9375,6.9453,6.9375,6.8398,6.5859,6.4804,6.4297,6.4297,6.4297,6.4297,6.4258,6.4258,6.4258,6.4258,6.4258,6.4258,6.4297,6.4297,6.4297,6.4297,6.4297,6.4297,6.4297,6.4297,6.4297,6.4297,6.4297,6.4765,7.5191,7.7046,7.8994,8.0441,8.1883,8.3372,8.4873,8.5314,8.5543,8.6129,8.563,8.5065,8.5065,8.524,8.5407,8.5485,8.6295,8.6894,8.6825,8.698,8.674,8.5794,8.5356,8.4999,8.4687,8.4896,8.4769,8.4106,8.4078,8.3779,8.3114,8.2492,8.2222,8.2304,8.2304,8.2148,8.1875,8.1875,8.1445,8.0547,7.9961,7.9687,7.9687,7.9687,7.9687,7.9648,7.8867,7.8515,7.8437,7.7578,7.7187,7.7187,7.7187,7.7187,7.7109,7.6211,7.5703,7.5312,7.414,7.3711,7.3633,7.3047,7.2851,7.2734,7.2187,7.3008,7.414,7.414,7.4805,7.5469,7.5469,7.5039,7.4531,7.4219,7.414,7.4062,7.3789,7.3047,7.2422,7.2422,7.1719,7.1133,7.1133,7.0664,7.0078,6.9531,6.8984,6.832,6.7422,6.6562,6.6015,6.6015,6.6015,6.5781,6.5195,6.5156,6.5156,6.5156,6.5156,6.543,6.6015,6.6015,6.6015,6.6015,6.6015,6.6015,6.6015,6.6015,6.6015,6.6015,6.6015,6.6172,7.743,7.9251,8.1054,8.2773,8.3867,8.4883,8.6328,8.6461,8.6311,8.6501,8.5922,8.5262,8.4898,8.4799,8.4915,8.5225,8.6087,8.6719,8.6808,8.698,8.6687,8.5627,8.515,8.4765,8.4453,8.4948,8.5014,8.4296,8.4221,8.3927,8.3164,8.2617,8.2304,8.2304,8.2304,8.2304,8.2304,8.2304,8.2031,8.1445,8.0898,8.0625,8.0625,8.0625,8.0625,8.0586,7.9765,7.9375,7.9336,7.8437,7.793,7.7656,7.7656,7.7461,7.7148,7.6562,7.6367,7.6211,7.5,7.4609,7.4492,7.3945,7.375,7.3672,7.3086,7.3945,7.5078,7.5078,7.5703,7.6367,7.6367,7.5937,7.5469,7.5156,7.5078,7.4883,7.4258,7.3711,7.3203,7.289,7.2383,7.1992,7.1992,7.1523,7.0976,7.039,6.9609,6.8984,6.8711,6.8164,6.7812,6.7812,6.7773,6.7578,6.6992,6.6992,6.6992,6.6953,6.668,6.6914,6.7773,6.7539,6.75,6.7773,6.7812,6.7695,6.7344,6.7344,6.7187,6.6914,6.6914,6.6914,7.9334,8.1094,8.2851,8.4531,8.5586,8.6406,8.7226,8.7243,8.6722,8.5657,8.5222,8.4714,8.3742,8.351,8.3795,8.4735,8.578,8.6572,8.6783,8.7013,8.6627,8.5116,8.4961,8.4609,8.375,8.4414,8.457,8.3711,8.3672,8.332,8.2461,8.2422,8.2422,8.2383,8.2383,8.2344,8.2304,8.2304,8.2304,8.2304,8.2304,8.2304,8.2304,8.2304,8.2304,8.2265,8.1367,8.1015,8.0937,8.0078,7.9258,7.8555,7.8555,7.8047,7.7305,7.7265,7.7265,7.7031,7.5312,7.4726,7.4726,7.4687,7.4687,7.4648,7.4609,7.5195,7.5898,7.5898,7.6523,7.7187,7.7187,7.7187,7.6992,7.6094,7.5898,7.543,7.3711,7.332,7.3047,7.2226,7.2031,7.1992,7.1992,7.1992,7.1992,7.1992,7.1289,7.0469,6.9687,6.9531,6.9453,6.9414,6.9414,6.9414,6.9414,6.9453,6.9453,6.9414,6.8672,6.8633,6.9453,6.8711,6.8633,6.9375,6.9453,6.9101,6.8242,6.8242,6.7851,6.7031,6.7031,6.7031,8.1132,8.289,8.4492,8.5586,8.6054,8.625,8.6484,8.6305,8.582,8.4762,8.3397,8.2467,8.2806,8.2368,8.2482,8.4104,8.5709,8.6747,8.6808,8.7526,8.7464,8.5771,8.5735,8.5547,8.4648,8.4765,8.4804,8.4609,8.457,8.4453,8.4258,8.4258,8.3945,8.3281,8.3281,8.2969,8.2304,8.2304,8.2304,8.2304,8.2304,8.2304,8.2304,8.2304,8.2304,8.2265,8.1367,8.1015,8.0937,8.0078,7.957,7.9375,7.9375,7.9258,7.8984,7.8398,7.8164,7.8008,7.6914,7.6523,7.6445,7.5781,7.5586,7.5469,7.4805,7.5195,7.5898,7.5898,7.6523,7.7187,7.7187,7.7187,7.6992,7.6094,7.5898,7.5586,7.4492,7.375,7.3242,7.3008,7.2422,7.1992,7.1992,7.1992,7.1992,7.1992,7.1797,7.1367,7.0508,6.9883,6.9453,6.9414,6.9453,6.9453,6.9453,6.9453,6.9414,6.9414,6.9219,6.918,6.9414,6.9258,6.9258,6.9414,6.9414,6.9336,6.9101,6.9101,6.8984,6.875,6.8828,6.8828,8.2969,8.4414,8.5586,8.6094,8.6484,8.6562,8.5781,8.5446,8.478,8.3025,8.1756,8.1116,8.1553,8.1591,8.2116,8.3913,8.5649,8.6966,8.7443,8.7682,8.751,8.665,8.6324,8.6015,8.5508,8.5469,8.5469,8.5469,8.5117,8.4883,8.4883,8.4883,8.4687,8.4179,8.4179,8.375,8.289,8.2851,8.2695,8.2304,8.2304,8.2304,8.2304,8.2304,8.2304,8.2265,8.1797,8.1562,8.1523,8.1054,8.0625,8.0273,8.0273,8.0039,7.9648,7.918,7.9023,7.8945,7.8476,7.8086,7.7617,7.6758,7.6484,7.6367,7.5898,7.6094,7.6484,7.6484,7.6836,7.7187,7.7187,7.7187,7.707,7.6601,7.6484,7.6133,7.4883,7.4219,7.3633,7.289,7.2344,7.1992,7.1992,7.1992,7.1992,7.1992,7.1992,7.1836,7.1328,7.0898,7.0586,7.0547,7.0586,7.0586,7.0586,7.0547,7.0547,7.0547,7.0195,7.0156,7.0547,7.0195,7.0195,7.0547,7.0547,7.0351,6.9961,6.9961,6.9805,6.9453,6.9453,6.9453,8.4687,8.5781,8.6523,8.6406,8.6953,8.6992,8.5156,8.4591,8.3721,8.1055,8.029,8.0177,8.0387,8.0939,8.2044,8.3973,8.5648,8.7072,8.8131,8.7826,8.7501,8.7499,8.6914,8.6484,8.6367,8.6367,8.6367,8.6367,8.5664,8.5195,8.5078,8.5195,8.5195,8.5078,8.4844,8.4414,8.3789,8.3554,8.3125,8.2461,8.2344,8.2304,8.2304,8.2304,8.2304,8.2304,8.2304,8.2304,8.2304,8.2304,8.1836,8.1172,8.1172,8.0703,8.0039,7.9922,7.9883,7.9844,7.9726,7.9258,7.8515,7.7656,7.7305,7.7187,7.7187,7.7187,7.7187,7.7187,7.7187,7.7187,7.7187,7.7187,7.7187,7.7031,7.7031,7.6562,7.4961,7.4609,7.414,7.2656,7.2265,7.2226,7.2344,7.2265,7.2187,7.2187,7.2187,7.2148,7.1992,7.1992,7.1992,7.1992,7.1992,7.1992,7.1992,7.1992,7.1992,7.1992,7.1289,7.1211,7.1913,7.1249,7.117,7.1909,7.1948,7.1557,7.0815,7.0818,7.0468,6.9803,6.9765,6.9765,8.6094,8.7109,8.8125,8.7422,8.7383,8.6836,8.4375,8.3788,8.2999,8.0211,7.9084,7.8993,8.0397,8.0168,8.0903,8.4243,8.5654,8.6633,8.7536,8.8708,8.8983,8.7656,8.7969,8.8008,8.7344,8.7265,8.7265,8.7265,8.7148,8.6719,8.6015,8.664,8.6719,8.6015,8.457,8.4101,8.4687,8.3242,8.2812,8.3359,8.2656,8.2304,8.2304,8.2304,8.2304,8.2304,8.2304,8.2304,8.2304,8.2304,8.2226,8.207,8.207,8.1992,8.1758,8.1054,8.0781,8.0664,7.9961,7.9609,7.9375,7.8555,7.7773,7.7187,7.7187,7.7187,7.7187,7.7187,7.7187,7.7187,7.7187,7.7187,7.7031,7.6289,7.6133,7.5859,7.4805,7.4609,7.4492,7.4219,7.3555,7.3281,7.4023,7.3555,7.3086,7.3086,7.3086,7.2812,7.2109,7.1992,7.1992,7.1992,7.1992,7.1992,7.1992,7.1992,7.1992,7.1992,7.1875,7.1753,7.1753,7.1594,7.1562,7.1572,7.1605,7.1527,7.1371,7.148,7.1438,7.1324,7.148,7.1562,8.8047,8.875,8.9179,8.832,8.7812,8.6562,8.3047,8.2265,8.1366,7.8229,7.7638,7.8069,7.9317,7.9553,8.0419,8.3125,8.4297,8.5469,8.7265,8.7812,8.8047,8.8125,8.8086,8.7929,8.7539,8.75,8.75,8.75,8.75,8.7304,8.6914,8.7265,8.7304,8.6875,8.6054,8.539,8.4883,8.4062,8.3398,8.2929,8.25,8.2304,8.2304,8.2304,8.2304,8.2304,8.2304,8.2304,8.2304,8.2304,8.2304,8.2304,8.2304,8.2304,8.2265,8.1836,8.1679,8.1601,8.1211,8.0742,8.0312,7.9922,7.8945,7.789,7.789,7.7578,7.7187,7.7187,7.7187,7.7187,7.7187,7.7187,7.7109,7.668,7.6211,7.5781,7.5351,7.4922,7.4609,7.4609,7.4258,7.4101,7.4531,7.4258,7.3984,7.3984,7.3899,7.3494,7.2637,7.2411,7.226,7.2031,7.2422,7.25,7.2031,7.1992,7.2147,7.2481,7.2518,7.2411,7.2222,7.2217,7.2184,7.2139,7.2139,7.2334,7.2794,7.2879,7.2646,7.2222,7.2786,7.2576,8.9531,8.9844,8.957,8.8867,8.7969,8.6172,8.2187,8.1133,8.0078,7.6836,7.6719,7.7461,7.8359,7.9023,8.0078,8.1992,8.2851,8.4219,8.6836,8.6797,8.6953,8.8281,8.8047,8.7695,8.7539,8.75,8.75,8.75,8.75,8.75,8.75,8.75,8.75,8.75,8.7304,8.6562,8.5195,8.5,8.4101,8.2578,8.2578,8.2461,8.2304,8.2304,8.2304,8.2304,8.2304,8.2304,8.2304,8.2304,8.2304,8.2304,8.2304,8.2304,8.2304,8.2304,8.2304,8.2304,8.2304,8.1836,8.1289,8.1289,8.0117,7.875,7.875,7.8281,7.7734,7.7734,7.7734,7.7695,7.7539,7.7461,7.7422,7.7226,7.668,7.6172,7.6172,7.5625,7.5156,7.5156,7.496,7.4879,7.5074,7.4913,7.4751,7.4751,7.4474,7.3991,7.3293,7.2924,7.2551,7.2206,7.2611,7.2651,7.1941,7.2103,7.2403,7.2908,7.3129,7.3108,7.2936,7.2928,7.2904,7.2854,7.2854,7.3204,7.3903,7.3906,7.3503,7.2695,7.3589,7.3105,8.9531,8.9414,8.8789,8.8711,8.75,8.5586,8.2812,8.1562,8.0234,7.7617,7.7148,7.7461,7.8359,7.8555,7.9414,8.1914,8.2383,8.332,8.5937,8.6914,8.7422,8.7578,8.8203,8.8281,8.7578,8.75,8.75,8.75,8.75,8.75,8.75,8.75,8.75,8.75,8.6719,8.625,8.6094,8.5312,8.4414,8.3476,8.3476,8.3086,8.2304,8.2304,8.2304,8.2304,8.2304,8.2304,8.2304,8.2304,8.2304,8.2304,8.2304,8.2304,8.2304,8.2304,8.2304,8.2304,8.2304,8.2265,8.2187,8.2187,8.1015,7.9609,7.9609,7.9531,7.9453,7.9453,7.9453,7.9297,7.8555,7.8398,7.8164,7.7383,7.7148,7.707,7.707,7.7031,7.6953,7.6953,7.6154,7.5762,7.6539,7.5869,7.5223,7.5223,7.4548,7.3996,7.3904,7.3243,7.2744,7.2647,7.2154,7.1784,7.1543,7.2388,7.2864,7.2757,7.3476,7.3814,7.3615,7.3605,7.3562,7.3418,7.3418,7.3457,7.3573,7.3678,7.3305,7.253,7.3526,7.3105,9.0039,9.0547,9.0156,8.9609,8.8594,8.6601,8.2461,8.125,8.0117,7.7031,7.6836,7.7305,7.7656,7.7734,7.8398,8.039,8.0312,8.1094,8.4219,8.4492,8.4961,8.6523,8.6992,8.7265,8.7461,8.75,8.75,8.75,8.75,8.75,8.75,8.75,8.75,8.75,8.7148,8.6484,8.5429,8.5078,8.4219,8.2812,8.2812,8.2656,8.2304,8.2304,8.2304,8.2304,8.2304,8.2304,8.2304,8.2304,8.2304,8.2304,8.2304,8.2304,8.2304,8.2304,8.2304,8.2304,8.2304,8.2304,8.2304,8.2304,8.1836,8.1172,8.0625,8.0117,7.9687,7.9687,7.9687,7.9492,7.8711,7.8125,7.7617,7.7265,7.7187,7.7187,7.7187,7.7101,7.7005,7.7005,7.6583,7.6298,7.6649,7.6359,7.6069,7.6069,7.5694,7.5178,7.4664,7.3788,7.3021,7.2441,7.2384,7.2339,7.2224,7.2588,7.3178,7.4052,7.4412,7.4496,7.4308,7.4295,7.4268,7.4207,7.4207,7.4476,7.5014,7.5039,7.4411,7.3138,7.4536,7.4026,8.9922,9.0547,9.0078,8.9726,8.8594,8.6484,8.2344,8.0976,7.9805,7.6875,7.6758,7.7187,7.7187,7.7187,7.7656,7.9101,7.9062,7.9883,8.2812,8.289,8.3476,8.5586,8.5586,8.5859,8.6992,8.7344,8.75,8.75,8.75,8.75,8.75,8.75,8.75,8.75,8.75,8.6797,8.5312,8.5273,8.4414,8.2695,8.2695,8.2539,8.2304,8.2304,8.2304,8.2304,8.2304,8.2304,8.2304,8.2304,8.2304,8.2304,8.2304,8.2304,8.2304,8.2304,8.2304,8.2304,8.2304,8.2304,8.2304,8.2304,8.2304,8.2187,8.1562,8.0976,8.0469,8.0469,8.0273,7.9883,7.9062,7.8203,7.7539,7.7265,7.7187,7.7187,7.7105,7.6998,7.6868,7.6834,7.6663,7.6527,7.6527,7.6466,7.6419,7.6419,7.6062,7.5705,7.5357,7.4256,7.336,7.2976,7.2977,7.2888,7.2568,7.2824,7.3538,7.4815,7.5128,7.5221,7.5091,7.5091,7.5091,7.5091,7.5091,7.5399,7.6015,7.6015,7.5245,7.3899,7.5322,7.4784,8.8867,8.8789,8.7734,8.8515,8.6797,8.4453,8.2695,8.0937,7.9219,7.7539,7.7187,7.7187,7.7187,7.7187,7.75,7.8359,7.918,8.0312,8.207,8.3047,8.3906,8.4804,8.414,8.4297,8.6054,8.6992,8.75,8.75,8.75,8.75,8.75,8.75,8.75,8.75,8.75,8.707,8.6211,8.6172,8.5312,8.3594,8.3594,8.3125,8.2304,8.2304,8.2304,8.2304,8.2304,8.2304,8.2304,8.2304,8.2304,8.2304,8.2304,8.2304,8.2304,8.2304,8.2304,8.2304,8.2304,8.2304,8.2304,8.2304,8.2304,8.2304,8.2304,8.2265,8.2265,8.2265,8.164,8.0781,7.9922,7.9101,7.8281,7.7422,7.7187,7.7146,7.6942,7.688,7.6847,7.6624,7.6448,7.6306,7.6295,7.6147,7.6029,7.6029,7.5245,7.5014,7.5861,7.4514,7.3822,7.4591,7.3976,7.3144,7.2259,7.3106,7.3992,7.4658,7.5515,7.5976,7.5976,7.5976,7.5976,7.5976,7.5976,7.5976,7.6015,7.6015,7.5553,7.4707,7.5592,7.5091,8.4922,8.6094,8.6523,8.6172,8.5937,8.5039,8.207,8.0976,7.9922,7.7656,7.7187,7.7187,7.7187,7.7187,7.7656,7.9101,7.9062,7.9687,8.1992,8.2031,8.2383,8.3828,8.4804,8.582,8.6992,8.7344,8.75,8.75,8.75,8.75,8.75,8.75,8.75,8.75,8.6914,8.6484,8.6211,8.5039,8.414,8.3594,8.3008,8.2578,8.2304,8.2304,8.2304,8.2304,8.2304,8.2304,8.2304,8.2304,8.2304,8.2304,8.2304,8.2304,8.2304,8.2304,8.2304,8.2304,8.2304,8.2304,8.2304,8.2304,8.2304,8.2304,8.2304,8.2304,8.2265,8.2125,8.1485,8.0743,8.047,7.9767,7.8957,7.8241,7.7999,7.7695,7.7046,7.6696,7.6475,7.641,7.6231,7.6081,7.6068,7.6048,7.6015,7.6015,7.5784,7.5707,7.5976,7.5014,7.4437,7.4668,7.3976,7.363,7.3899,7.4189,7.4742,7.5553,7.5861,7.6015,7.6015,7.6015,7.6015,7.6015,7.6015,7.6015,7.6015,7.6015,7.5861,7.5592,7.5245,7.4553,8.2929,8.4375,8.5156,8.4961,8.4804,8.4062,8.1562,8.0508,7.9492,7.7578,7.7187,7.7187,7.7187,7.7187,7.7539,7.8594,7.8594,7.9062,8.0625,8.0937,8.1523,8.2929,8.4648,8.5937,8.6484,8.7109,8.75,8.75,8.7187,8.7148,8.7461,8.6875,8.6679,8.6992,8.6484,8.6054,8.5703,8.4297,8.3594,8.3594,8.2734,8.2304,8.2304,8.2304,8.2304,8.2304,8.2304,8.2304,0.0,8.2304,8.2304,8.2304,8.2304,8.2304,8.2304,8.2304,8.2304,8.2304,8.2304,8.2304,8.2304,8.2304,8.2304,8.2304,8.2304,8.2304,8.2264,8.2056,8.1602,8.1082,8.0685,8.0163,7.9598,7.8888,7.839,7.7891,7.7287,7.6717,7.63,7.6183,7.6106,7.6015,7.6015,7.6015,7.6015,7.6015,7.6015,7.6015,7.6015,7.5515,7.5207,7.5207,7.4745,7.4668,7.5168,7.4899,7.5091,7.5938,7.6015,7.6015,7.6015,7.6015,7.6015,7.6015,7.6015,7.6015,7.6015,7.6015,7.6015,7.5976,7.513,7.4437,0.0,8.3242,8.3515,8.4258,8.3281,8.1875,8.1015,7.9609,0.0,7.7383,7.7187,7.7187,7.7187,7.7148,7.7148,7.7187,7.789,7.8437,7.8476,8.0,8.1445,8.2383,8.3984,8.5039,8.5078,8.6562,8.75,8.75,8.6679,8.6562,8.7461,8.5859,8.5273,8.6094,8.6054,8.5664,8.4922,8.3984,8.3554,8.3594,8.2734,8.2304,8.2304,8.2304,8.2304,8.2304,8.2304,8.2304,8.2304,8.2304,8.2304,8.2304,8.2304,8.2304,8.2304,8.2304,8.2304,8.2304,8.2304,8.2304,8.2304,8.2304,8.2304,8.2265,8.2265,8.2265,8.2223,8.2049,8.1976,8.1743,8.073,8.0481,8.0256,7.9408,7.8544,7.7896,7.7733,7.7008,7.6323,7.6202,7.613,7.6092,7.6169,7.6169,7.6169,7.6169,7.613,7.6092,7.6092,7.6053,7.6015,7.6015,7.6015,7.6015,7.6015,7.5245,7.513,7.5938,7.6015,7.6015,7.6015,7.6015,7.6015,7.6015,7.6015,7.6015,7.6015,7.6015,7.6015,7.5976,7.5168,7.4784,7.8848,0.0,8.0508,8.0117,8.0156,8.0117,0.0,7.8789,7.8242,7.7383,7.7187,7.7187,7.7187,7.664,7.6406,7.7109,7.7383,7.7734,7.8398,8.0508,8.2578,8.4101,8.5234,8.6172,8.6836,8.7265,8.75,8.75,8.6679,8.6562,8.7461,8.5859,8.5,8.5195,8.457,8.4414,8.4883,8.3359,8.2929,8.3594,8.2734,8.2304,8.2304,8.2304,8.2304,8.2304,8.2304,8.2304,8.2304,8.2304,8.2304,8.2304,8.2304,8.2304,8.2304,8.2304,8.2304,8.2304,8.2304,8.2304,8.2304,8.2304,8.2217,8.2062,8.2062,8.2062,8.2046,8.1837,8.1679,8.1475,8.1219,8.1159,8.0979,8.027,7.9834,7.9354,7.8657,7.7756,7.7246,7.7799,7.74,7.7169,7.7823,7.79,7.79,7.79,7.74,7.6976,7.6976,7.6399,7.6015,7.6015,7.6015,7.6015,7.6015,7.5822,7.5784,7.5976,7.6015,7.6015,7.6015,7.6015,7.6015,7.6015,7.6015,7.6015,7.6015,7.6015,7.6015,7.6015,7.5784,7.5361,7.7143,7.8403,7.9555,7.9516,7.9605,7.9609,7.914,7.8476,7.7656,7.6797,7.6601,7.6484,7.6094,7.5625,7.5586,7.6445,7.6601,7.7187,7.8828,8.0586,8.25,8.4648,8.5664,8.6523,8.7422,8.75,8.75,8.75,8.6679,8.6562,8.7461,8.5859,8.4883,8.4883,8.4062,8.3633,8.3711,8.2773,8.2539,8.3008,8.2539,8.2304,8.2304,8.2304,8.2304,8.2304,8.2304,8.2304,8.2304,8.2304,8.2304,8.2304,8.2304,8.2304,8.2304,8.2304,8.2304,8.2304,8.2304,8.2304,8.2304,8.2304,8.2221,8.212,8.2046,8.1953,8.1831,8.1636,8.1491,8.1371,8.1298,8.1258,8.1182,8.0814,8.0343,7.9829,7.9352,7.8507,7.7977,7.84,7.813,7.7977,7.84,7.8477,7.8477,7.8477,7.813,7.7861,7.7861,7.7438,7.7015,7.663,7.6592,7.6438,7.6015,7.6015,7.6015,7.6015,7.6015,7.6015,7.6015,7.6015,7.6015,7.6015,7.6015,7.6015,7.6015,7.6015,7.6015,7.6015,7.6015,7.5745,7.6643,7.8063,7.9502,8.0005,7.9826,7.9492,7.9336,7.8203,7.6953,7.6094,7.5898,7.5664,7.4922,7.4687,7.4883,7.5742,7.6015,7.6953,7.9375,8.0664,8.2265,8.4609,8.5781,8.6679,8.7422,8.75,8.75,8.75,8.6562,8.6445,8.7461,8.5703,8.4765,8.4883,8.4062,8.3164,8.2304,8.2304,8.2304,8.2304,8.2304,8.2304,8.2304,8.2422,8.2422,8.2304,8.2422,8.2422,8.2304,8.2304,8.2383,8.25,8.2344,8.2383,8.2461,8.2344,8.2304,8.2304,8.2304,8.2265,8.2264,8.2264,8.2219,8.2125,8.1971,8.1785,8.1572,8.1418,8.1335,8.1311,8.1146,8.1093,8.1093,8.1093,8.0554,8.0015,8.0015,7.9323,7.8746,7.8861,7.8784,7.8746,7.8861,7.89,7.89,7.89,7.8784,7.8707,7.8707,7.8592,7.8246,7.7553,7.7476,7.7169,7.6438,7.6361,7.6361,7.6361,7.613,7.6015,7.6015,7.6015,7.6015,7.6015,7.6015,7.6015,7.6015,7.6015,7.6015,7.6015,7.6015,7.6015,7.7028,7.8401,7.9108,7.782,7.8108,7.8476,7.7734,7.7383,7.6953,7.6094,7.5898,7.5859,7.5742,7.5117,7.4883,7.5742,7.6523,7.7617,7.9453,8.1719,8.3633,8.4765,8.6328,8.7344,8.75,8.75,8.75,8.75,8.6015,8.5781,8.7422,8.5156,8.414,8.4883,8.4062,8.3164,8.2304,8.2304,8.2304,8.2304,8.2304,8.2304,8.2344,8.3047,8.3008,8.2344,8.3086,8.2969,8.2304,8.2304,8.2734,8.332,8.2578,8.2734,8.332,8.2578,8.2304,8.2304,8.2304,8.2176,8.2053,8.2053,8.1825,8.1524,8.1522,8.1374,8.1181,8.1161,8.1146,8.1131,8.1108,8.1093,8.1093,8.1093,8.1016,8.09,8.09,8.0208,7.9823,8.0554,8.0092,7.9823,8.0554,8.0708,8.0708,8.0708,8.0054,7.9592,7.9592,7.8977,7.8438,7.8323,7.8323,7.8246,7.813,7.813,7.813,7.813,7.6784,7.6015,7.6015,7.6015,7.6015,7.6015,7.6015,7.6015,7.6015,7.6015,7.6015,7.6015,7.6015,7.6015,7.6708,7.7553,7.8089,7.821,7.9045,7.9609,7.875,7.7851,7.6836,7.5469,7.4805,7.4492,7.4492,7.4531,7.5195,7.6992,7.8008,7.8984,8.0234,8.2265,8.3906,8.4804,8.6445,8.75,8.75,8.707,8.6797,8.6797,8.5625,8.5469,8.6719,8.5664,8.5195,8.5586,8.4765,8.4101,8.3711,8.2773,8.2539,8.3008,8.3476,8.3711,8.3711,8.4101,8.3828,8.3008,8.3437,8.3125,8.2304,8.2304,8.2539,8.2851,8.2461,8.2539,8.2851,8.2461,8.2304,8.2304,8.2304,8.2171,8.1992,8.1992,8.1819,8.1534,8.1425,8.1349,8.1256,8.1116,8.1093,8.1093,8.1093,8.1093,8.1093,8.1093,8.1093,8.1093,8.1093,8.0785,8.0631,8.1016,8.0785,8.0631,8.1016,8.1093,8.1093,8.1093,8.0746,8.0516,8.0516,8.0131,7.9708,7.9246,7.9208,7.9015,7.8515,7.8477,7.8477,7.8477,7.7784,7.7361,7.7361,7.7361,7.713,7.6707,7.713,7.713,7.6707,7.713,7.713,7.6707,7.6707,7.6438,7.6372,7.6834,7.7338,7.8825,7.9795,8.0351,8.0078,7.8711,7.707,7.5547,7.4687,7.414,7.3945,7.4805,7.6172,7.8164,7.9336,8.0234,8.0898,8.25,8.3906,8.4804,8.625,8.7265,8.7461,8.6914,8.6406,8.6211,8.5586,8.5508,8.6172,8.6211,8.6211,8.6211,8.5547,8.5117,8.4883,8.3789,8.3437,8.3906,8.4375,8.4687,8.4883,8.4883,8.4414,8.3594,8.3594,8.3125,8.2304,8.2304,8.2422,8.2578,8.2383,8.2422,8.2617,8.2617,8.2617,8.2617,8.2617,8.232,8.1914,8.1914,8.1739,8.1524,8.1371,8.1336,8.1311,8.1146,8.1093,8.1093,8.1093,8.1093,8.1093,8.1093,8.1093,8.1093,8.1093,8.1093,8.1093,8.1093,8.1093,8.1093,8.1093,8.1093,8.1093,8.1093,8.1093,8.1093,8.1093,8.1093,8.0823,8.0169,8.0092,7.9823,7.9169,7.9092,7.9092,7.9092,7.8707,7.8477,7.8477,7.8477,7.8207,7.7592,7.8169,7.8207,7.7592,7.8207,7.8169,7.7592,7.7592,7.713,7.6404,7.7046,7.7382,7.832,7.8633,7.9062,8.0586,7.9609,7.8125,7.7226,7.6953,7.668,7.5859,7.7109,7.8281,7.8476,7.9844,8.0937,8.0976,8.25,8.3906,8.4804,8.5703,8.6601,8.7422,8.7422,8.707,8.625,8.6133,8.6133,8.6211,8.6211,8.6211,8.6211,8.6133,8.5703,8.4922,8.5586,8.5547,8.4804,8.4062,8.4101,8.4883,8.4883,8.4414,8.3594,8.3594,8.3125,8.2304,8.2304,8.2773,8.3437,8.2617,8.2773,8.3515,8.3515,8.3515,8.3515,8.3515,8.272,8.1703,8.1703,8.1458,8.1131,8.1139,8.1139,8.1124,8.1108,8.1093,8.1093,8.1093,8.1093,8.1093,8.1093,8.1093,8.1093,8.1093,8.1093,8.1093,8.1093,8.1093,8.1093,8.1093,8.1093,8.1093,8.1093,8.1093,8.1093,8.1093,8.1093,8.1093,8.1016,8.1016,8.0977,8.0939,8.09,8.09,8.09,7.94,7.8477,7.8477,7.8477,7.8477,7.84,7.8477,7.8477,7.84,7.8477,7.8477,7.84,7.84,7.7977,7.5966,7.5934,7.6172,7.8633,7.8867,7.8789,7.9922,7.9687,7.9023,7.8164,7.7578,7.7265,7.7461,7.8047,7.8828,7.9883,8.1054,8.1797,8.1797,8.2851,8.3711,8.4062,8.4844,8.5508,8.5859,8.5898,8.5508,8.4648,8.5078,8.539,8.539,8.5898,8.6445,8.6992,8.6484,8.6289,8.6523,8.5781,8.5781,8.6523,8.6172,8.6211,8.6484,8.5976,8.5234,8.4375,8.3828,8.3398,8.3086,8.2539,8.2812,8.3554,8.3242,8.332,8.3672,8.4219,8.4414,8.4336,8.3789,8.3107,8.2427,8.1882,8.1414,8.1093,8.1093,8.1093,8.1093,8.1093,8.1093,8.1093,8.1093,8.1093,8.1093,8.1093,8.1093,8.1093,8.1093,8.1093,8.1093,8.1093,8.1093,8.1093,8.1093,8.1093,8.1093,8.1093,8.1093,8.1093,8.1093,8.1093,8.1093,8.1093,8.1093,8.1093,8.1093,8.1093,8.1093,8.1093,8.0477,8.0131,8.0131,8.0131,7.9862,7.9323,7.9823,7.9862,7.9323,7.9862,7.9823,7.9323,7.9323,7.8861,7.539,7.5039,7.5234,7.7851,7.8281,7.8359,7.9453,7.9922,7.9961,7.9414,7.8398,7.7773,7.8398,7.8711,7.9258,8.039,8.1562,8.2304,8.2304,8.2812,8.3281,8.3554,8.414,8.4609,8.4883,8.5156,8.4961,8.4062,8.5078,8.5586,8.5312,8.6133,8.6875,8.7461,8.6914,8.6914,8.75,8.6328,8.6328,8.75,8.75,8.75,8.7461,8.6328,8.5469,8.4844,8.3672,8.3203,8.3125,8.2539,8.2656,8.3203,8.3476,8.3789,8.4062,8.4687,8.4883,8.4765,8.3906,8.3337,8.2894,8.2303,8.184,8.1477,8.1477,8.1285,8.1131,8.14,8.1285,8.117,8.14,8.1285,8.117,8.14,8.1285,8.1093,8.1093,8.1093,8.1093,8.1093,8.1093,8.1093,8.1093,8.1093,8.1093,8.1093,8.1093,8.1093,8.1093,8.1093,8.1093,8.1093,8.1093,8.1093,8.1093,8.1093,8.1093,8.1093,8.1093,8.1093,8.1093,8.1093,8.0823,8.0208,8.0785,8.0823,8.0208,8.0823,8.0785,8.0208,8.0208,7.9746,7.4805,7.4609,7.4805,7.5703,7.6562,7.7656,7.9336,8.039,8.1015,8.1015,7.9687,7.8515,7.8515,7.914,7.9687,7.9687,8.1172,8.2304,8.2304,8.2304,8.2617,8.3476,8.3594,8.3945,8.4804,8.5664,8.582,8.4961,8.6523,8.7109,8.625,8.7031,8.75,8.75,8.75,8.75,8.75,8.75,8.75,8.75,8.75,8.75,8.7422,8.5703,8.4883,8.4804,8.3047,8.2304,8.2304,8.2304,8.2304,8.2383,8.3242,8.414,8.4883,8.4922,8.4922,8.4804,8.3906,8.3334,8.3034,8.2987,8.2681,8.2285,8.2285,8.1747,8.1285,8.2054,8.1747,8.1285,8.2093,8.1708,8.1323,8.2093,8.167,8.1093,8.1093,8.1093,8.1093,8.1093,8.1093,8.1093,8.1093,8.1093,8.1093,8.1093,8.1093,8.1093,8.1093,8.1093,8.1093,8.1093,8.1093,8.1093,8.1093,8.1093,8.1093,8.1093,8.1093,8.1093,8.1093,8.1093,8.1093,8.1093,8.1093,8.1093,8.1093,8.1093,8.1093,8.1093,8.1093,8.0631,7.3906,7.414,7.4961,7.6445,7.789,7.9414,8.1133,8.125,8.1172,8.1797,8.0547,7.9336,7.9336,7.9531,7.9687,7.9687,8.1172,8.2304,8.2304,8.2304,8.2383,8.2656,8.2695,8.2773,8.3047,8.4414,8.4922,8.4062,8.6172,8.7109,8.625,8.7031,8.75,8.75,8.75,8.75,8.75,8.75,8.75,8.75,8.6875,8.6914,8.7422,8.5703,8.4883,8.4804,8.3047,8.2656,8.3203,8.3203,8.2851,8.2383,8.3242,8.375,8.414,8.5351,8.582,8.5703,8.4804,8.4626,8.456,8.3384,8.2681,8.2285,8.2285,8.1747,8.1285,8.2054,8.2131,8.2285,8.3747,8.3054,8.1862,8.1516,8.1285,8.1093,8.1093,8.1093,8.1093,8.1093,8.1093,8.1093,8.1093,8.1093,8.1093,8.1093,8.1093,8.1093,8.1093,8.1093,8.1093,8.1093,8.1093,8.1093,8.1093,8.1093,8.1093,8.1093,8.1093,8.1093,8.1093,8.1093,8.1093,8.1093,8.1093,8.1093,8.1093,8.1093,8.1093,8.1093,8.1093,8.0977,7.4883,7.4961,7.5625,7.7695,7.8437,7.9336,8.1758,8.1875,8.1679,8.2187,8.1172,8.0234,8.0234,8.0234,8.0234,8.0234,8.1406,8.2304,8.2304,8.2304,8.2304,8.2304,8.2304,8.2422,8.2773,8.4062,8.4844,8.4648,8.6406,8.7265,8.6758,8.7226,8.75,8.75,8.75,8.75,8.75,8.7148,8.6992,8.6953,8.6094,8.5976,8.6445,8.539,8.4726,8.4297,8.289,8.2617,8.3086,8.3086,8.2773,8.2383,8.3242,8.3828,8.4258,8.5312,8.5664,8.5547,8.4687,8.443,8.4326,8.3345,8.2681,8.2285,8.2285,8.1747,8.1323,8.2477,8.2554,8.2708,8.4439,8.3862,8.267,8.2208,8.1593,8.1093,8.1093,8.1093,8.1208,8.1516,8.1593,8.1593,8.1593,8.1862,8.1862,8.1208,8.1093,8.1093,8.1093,8.1093,8.1093,8.1093,8.1093,8.1093,8.1093,8.1093,8.1093,8.1093,8.1093,8.1093,8.1093,8.1093,8.1093,8.1093,8.1093,8.1093,8.1093,8.1093,8.1093,8.1093,8.1093,8.1093,7.6758,7.6562,7.6719,7.9219,7.8789,7.8594,8.1601,8.2304,8.2304,8.2383,8.1797,8.1172,8.1015,8.1054,8.1094,8.1015,8.1719,8.2304,8.2304,8.2304,8.2304,8.2304,8.2383,8.2734,8.3515,8.4453,8.5351,8.6133,8.6992,8.75,8.75,8.75,8.75,8.75,8.75,8.7461,8.7383,8.6601,8.6172,8.6054,8.5195,8.4765,8.4765,8.4765,8.4297,8.3437,8.2656,8.2304,8.2304,8.2304,8.2304,8.2383,8.3164,8.3984,8.4687,8.4765,8.4765,8.4687,8.3867,8.3366,8.3104,8.3009,8.2658,8.2285,8.2285,8.1785,8.1554,8.3131,8.3093,8.2901,8.4593,8.4362,8.3708,8.3708,8.2477,8.1323,8.1323,8.1285,8.1439,8.217,8.2247,8.2208,8.2285,8.2939,8.2978,8.1554,8.1323,8.1285,8.1208,8.1285,8.1285,8.1208,8.1208,8.1208,8.1208,8.1131,8.1093,8.1093,8.1093,8.1093,8.1093,8.1093,8.1093,8.1093,8.1093,8.1093,8.1093,8.1093,8.1093,8.1093,8.1093,8.1093,7.5273,7.6523,7.8398,8.0234,8.1484,8.2226,8.2304,8.2304,8.25,8.3164,8.3164,8.2617,8.125,8.1562,8.1797,8.1094,8.1719,8.2304,8.2304,8.2304,8.2304,8.2304,8.289,8.3398,8.3594,8.5,8.6015,8.6172,8.6992,8.75,8.75,8.75,8.75,8.75,8.75,8.7187,8.6484,8.6289,8.5859,8.5156,8.4297,8.3867,8.3867,8.3867,8.3398,8.2578,8.2383,8.2304,8.2304,8.2304,8.2304,8.2304,8.25,8.2695,8.2929,8.3633,8.3867,8.3827,8.3487,8.361,8.3787,8.2968,8.2509,8.2285,8.2285,8.217,8.2247,8.3285,8.3939,8.4555,8.5593,8.5247,8.4632,8.4632,8.3824,8.3054,8.3054,8.2516,8.2093,8.2285,8.1785,8.1554,8.217,8.2439,8.267,8.3016,8.3054,8.2824,8.2131,8.2631,8.2785,8.2131,8.2054,8.2054,8.2054,8.1477,8.1093,8.1093,8.1093,8.1093,8.1093,8.1093,8.1093,8.1093,8.1093,8.1093,8.1093,8.1093,8.1093,8.1093,8.1093,8.1093,7.5508,7.6836,7.8476,8.1015,8.2929,8.4101,8.3633,8.3554,8.3672,8.414,8.3554,8.2695,8.1797,8.2344,8.2773,8.2304,8.2969,8.3398,8.2969,8.2929,8.2773,8.2344,8.2695,8.332,8.414,8.5039,8.5937,8.6758,8.7226,8.75,8.75,8.75,8.75,8.75,8.7109,8.664,8.6211,8.5351,8.4726,8.4258,8.3398,8.2969,8.2969,8.2969,8.2969,8.289,8.2461,8.2304,8.2304,8.2304,8.2304,8.2304,8.2304,8.2497,8.2834,8.3302,8.3401,8.3284,8.3181,8.3034,8.2776,8.22,8.1876,8.1747,8.1747,8.1977,8.2477,8.3362,8.4209,8.5093,8.5901,8.5786,8.5478,8.5478,8.4516,8.3593,8.3593,8.3247,8.3054,8.3478,8.3208,8.3054,8.3478,8.3208,8.3208,8.4093,8.3862,8.3439,8.2978,8.3324,8.3247,8.2401,8.2285,8.2131,8.1747,8.1323,8.1093,8.1093,8.1093,8.1093,8.1093,8.1093,8.1093,8.1093,8.1093,8.1093,8.1093,8.1093,8.1093,8.1093,8.1093,8.1093,7.5742,7.7305,7.8789,8.1797,8.3828,8.5039,8.4726,8.4687,8.4687,8.4687,8.3633,8.2695,8.2539,8.3242,8.3789,8.3633,8.4336,8.4609,8.3711,8.3594,8.3281,8.2383,8.2578,8.332,8.4765,8.5156,8.5937,8.7383,8.75,8.75,8.75,8.7344,8.7265,8.7265,8.6445,8.5898,8.5742,8.4336,8.3515,8.3359,8.2656,8.2304,8.2304,8.2304,8.2695,8.3359,8.2617,8.2304,8.2304,8.2304,8.2304,8.2304,8.2304,8.2646,8.311,8.3092,8.2986,8.2822,8.2754,8.2126,8.1395,8.1347,8.1242,8.1093,8.1093,8.1785,8.267,8.3401,8.4324,8.5247,8.594,8.6094,8.6094,8.6094,8.5055,8.4016,8.4016,8.3901,8.4055,8.4747,8.4901,8.4901,8.4901,8.4401,8.4286,8.5016,8.4478,8.3978,8.3824,8.3939,8.3708,8.2824,8.2747,8.2401,8.1593,8.1516,8.1477,8.1323,8.1323,8.1323,8.1323,8.117,8.1093,8.1093,8.1093,8.1093,8.1093,8.1093,8.1093,8.1093,8.1093,8.1093,7.3672,7.7656,8.1914,8.3125,8.4726,8.5625,8.4101,8.3789,8.3789,8.3789,8.4179,8.4336,8.3554,8.414,8.4492,8.3711,8.4336,8.4609,8.3711,8.3594,8.3281,8.2383,8.3633,8.4648,8.4883,8.6289,8.7265,8.7461,8.75,8.75,8.75,8.6797,8.6367,8.6367,8.5547,8.4726,8.3945,8.3711,8.3203,8.2461,8.2344,8.2304,8.2304,8.2304,8.2344,8.2461,8.2344,8.2304,8.2304,8.2304,8.2304,8.2304,8.2304,8.2343,8.2419,8.2254,8.2179,8.2094,8.1718,8.1519,8.1359,8.121,8.1139,8.1093,8.1093,8.217,8.3439,8.3555,8.4747,8.5978,8.6055,8.6094,8.6094,8.6094,8.594,8.5786,8.5786,8.5209,8.4747,8.4901,8.4901,8.4901,8.4901,8.5401,8.5824,8.594,8.5824,8.5517,8.4824,8.5324,8.544,8.4632,8.4555,8.4209,8.3324,8.3247,8.2939,8.217,8.2131,8.2131,8.2131,8.1477,8.1093,8.1093,8.1093,8.1093,8.1093,8.1093,8.1093,8.1093,8.1093,8.1093,7.3984,7.8437,8.2617,8.3984,8.5273,8.6015,8.5234,8.5078,8.5078,8.5078,8.5351,8.5351,8.4492,8.5039,8.5508,8.5117,8.5781,8.6054,8.5195,8.4648,8.4179,8.3789,8.3554,8.4023,8.5508,8.5898,8.6445,8.7422,8.75,8.7304,8.6797,8.6406,8.5976,8.5508,8.4648,8.3984,8.3594,8.3125,8.2695,8.2304,8.2304,8.2223,8.2122,8.2122,8.2178,8.2304,8.2304,8.2304,8.2304,8.2304,8.2304,8.2304,8.2304,8.2222,8.2115,8.1899,8.1739,8.1636,8.1336,8.1242,8.1214,8.1116,8.1093,8.117,8.1631,8.2631,8.3708,8.417,8.517,8.6094,8.6094,8.6094,8.6094,8.6094,8.6094,8.6094,8.6094,8.5824,8.5555,8.5555,8.5555,8.5555,8.5555,8.5863,8.6094,8.6094,8.6094,8.5978,8.5632,8.5901,8.5786,8.4978,8.4901,8.4555,8.367,8.3593,8.3439,8.3054,8.2554,8.2285,8.2285,8.1516,8.1093,8.1093,8.1093,8.1093,8.1093,8.1093,8.1093,8.1093,8.1093,8.1093,7.3945,7.789,8.1172,8.3359,8.4726,8.5547,8.5547,8.5703,8.5859,8.5859,8.6054,8.6054,8.5625,8.6094,8.6445,8.625,8.6914,8.7187,8.6328,8.5469,8.4804,8.4609,8.3437,8.3476,8.5664,8.5469,8.5859,8.7383,8.75,8.7109,8.625,8.5976,8.5469,8.4609,8.3711,8.3281,8.3281,8.2617,8.2265,8.2221,8.2221,8.212,8.1909,8.1909,8.1996,8.2168,8.2168,8.2175,8.2221,8.2221,8.2264,8.2304,8.2304,8.2175,8.198,8.1753,8.1572,8.1359,8.1152,8.1246,8.14,8.14,8.1554,8.1862,8.2439,8.3247,8.4055,8.4709,8.5478,8.6094,8.6094,8.6094,8.6094,8.6094,8.6094,8.6094,8.6094,8.6094,8.6094,8.6094,8.6094,8.6094,8.6094,8.6094,8.6094,8.6094,8.6094,8.6094,8.6094,8.6094,8.5863,8.5286,8.5209,8.4863,8.3978,8.4132,8.4132,8.3939,8.3324,8.2978,8.2978,8.1977,8.14,8.14,8.1208,8.1093,8.1093,8.1093,8.1093,8.1093,8.1093,8.1093,7.2461,7.4805,7.7031,8.0351,8.2461,8.375,8.375,8.4375,8.4961,8.4961,8.5625,8.6445,8.7226,8.7383,8.7148,8.6328,8.6914,8.7187,8.6328,8.5469,8.4609,8.3789,8.3594,8.3906,8.4883,8.5664,8.6523,8.7422,8.75,8.7109,8.625,8.5429,8.457,8.3711,8.2812,8.2383,8.2383,8.2304,8.2218,8.2039,8.2039,8.1899,8.1742,8.1742,8.1703,8.1718,8.1718,8.185,8.2039,8.2039,8.2122,8.2304,8.2304,8.2175,8.198,8.1753,8.1572,8.1359,8.1152,8.1593,8.2247,8.2247,8.2785,8.3478,8.3516,8.4132,8.4863,8.4901,8.5478,8.6094,8.6094,8.6094,8.6094,8.6094,8.6094,8.6094,8.6094,8.6094,8.6094,8.6094,8.6094,8.6094,8.6094,8.6094,8.6094,8.6094,8.6094,8.6094,8.6094,8.6094,8.6094,8.6055,8.6055,8.5709,8.4901,8.5517,8.5632,8.4901,8.4786,8.4747,8.4747,8.3131,8.2247,8.2247,8.1477,8.1093,8.1093,8.1093,8.1093,8.1093,8.1093,8.1093,7.1038,7.2845,7.5038,7.8383,8.015,8.1523,8.3203,8.4258,8.5078,8.5625,8.5976,8.6484,8.7344,8.75,8.7383,8.7109,8.7304,8.7383,8.707,8.6289,8.582,8.6054,8.5117,8.5,8.6445,8.6367,8.6562,8.7422,8.6992,8.6289,8.539,8.4531,8.3672,8.2773,8.2461,8.2223,8.2115,8.2115,8.1996,8.1825,8.1825,8.1688,8.1532,8.1532,8.1425,8.1324,8.1447,8.1672,8.1996,8.2125,8.2222,8.2304,8.217,8.2059,8.1967,8.1645,8.1769,8.2133,8.1923,8.2439,8.3131,8.3131,8.3362,8.3708,8.4247,8.467,8.5016,8.5517,8.5901,8.6094,8.6094,8.6094,8.6094,8.6094,8.6094,8.6094,8.6094,8.6094,8.6094,8.6094,8.6094,8.6094,8.6094,8.6094,8.594,8.5401,8.5786,8.5901,8.5401,8.5786,8.6094,8.6094,8.6094,8.5978,8.5709,8.594,8.5978,8.5709,8.5209,8.4901,8.4901,8.3247,8.2285,8.2285,8.1516,8.1093,8.1093,8.1093,8.1093,8.1093,8.1093,8.1093,6.9374,7.0766,7.285,7.6446,7.7643,7.8906,8.2383,8.3398,8.3984,8.5469,8.6015,8.6484,8.7344,8.75,8.75,8.75,8.75,8.75,8.75,8.6758,8.6406,8.6992,8.5781,8.5469,8.6914,8.6523,8.6562,8.7422,8.6679,8.582,8.4961,8.4062,8.3203,8.2344,8.2304,8.2218,8.1992,8.1992,8.1867,8.1609,8.1609,8.1473,8.1285,8.1285,8.1228,8.1124,8.1383,8.167,8.1904,8.212,8.2218,8.2176,8.2056,8.1904,8.1785,8.1783,8.2109,8.2521,8.2686,8.3324,8.4055,8.4055,8.4209,8.4555,8.5132,8.5286,8.5401,8.594,8.6094,8.6094,8.6094,8.6094,8.6094,8.6094,8.6094,8.6094,8.6094,8.6094,8.6094,8.6094,8.6094,8.6094,8.6094,8.6094,8.594,8.5401,8.5747,8.5901,8.5363,8.5786,8.6094,8.6094,8.6094,8.6094,8.6094,8.6094,8.6094,8.6094,8.5593,8.5286,8.5286,8.3939,8.3054,8.2747,8.19,8.1362,8.1093,8.1093,8.1093,8.1093,8.1093,8.1093,0.0,0.0,0.0,7.4371,7.4946,7.582,8.0898,8.1445,8.1601,8.4258,8.5508,8.6367,8.7344,8.75,8.75,8.75,8.75,8.75,8.75,8.6758,8.625,8.625,8.5508,8.5312,8.6172,8.625,8.6601,8.7422,8.6679,8.5781,8.4961,8.4062,8.3164,8.2304,8.2304,8.2178,8.1984,8.198,8.1799,8.1395,8.1395,8.1298,8.1093,8.1093,8.1093,8.1139,8.1514,8.1688,8.1742,8.1904,8.1992,8.1992,8.1984,8.1764,8.1523,8.2324,8.2494,8.2516,8.3324,8.4209,8.4939,8.4939,8.5478,8.6094,8.6094,8.6094,8.6094,8.6094,8.6094,8.6094,8.6094,8.6094,8.6094,8.6094,8.6094,8.6094,8.6094,8.6094,8.6094,8.6094,8.6094,8.6094,8.6094,8.6094,8.6094,8.6055,8.6055,8.6055,8.6055,8.6055,8.6055,8.6094,8.6094,8.6094,8.6094,8.6094,8.6094,8.6094,8.6094,8.6094,8.6094,8.5324,8.4478,8.3593,8.2747,8.19,8.1093,8.1093,8.1093,8.1093,8.1093,8.1093,6.5654,0.0,0.0,0.0,0.0,0.0,7.5976,7.7031,7.8398,8.2226,8.3203,8.4219,8.6992,8.75,8.75,8.75,8.75,8.75,8.75,8.7304,8.7148,8.7148,8.6914,8.6875,8.7109,8.7148,8.7226,8.7461,8.6094,8.5156,8.4922,8.3476,8.2496,8.211,8.2068,8.1904,8.1572,8.1563,8.1425,8.1181,8.1181,8.1161,8.1093,8.1093,8.1093,8.1139,8.1514,8.1688,8.1742,8.1904,8.1992,8.1976,8.1695,8.1861,8.2274,8.2361,8.3149,8.4209,8.4478,8.5093,8.5786,8.5786,8.594,8.6094,8.6094,8.6094,8.6094,8.6094,8.6094,8.6094,8.6094,8.6094,8.6094,8.6094,8.6094,8.6094,8.6094,8.6094,8.6094,8.6094,8.6094,8.6094,8.6094,8.6094,8.5901,8.5324,8.5247,8.5247,8.5247,8.5247,8.544,8.6055,8.6094,8.6094,8.6094,8.6094,8.6094,8.6094,8.6094,8.6094,8.6094,8.5324,8.4478,8.3593,8.2747,8.19,8.1093,8.1093,8.1093,8.1093,8.1093,8.1093,0.0,0.0,0.0,6.8722,0.0,0.0,7.4447,7.5266,7.6446,8.1197,8.2175,8.304,8.5898,8.6719,8.6953,8.6953,8.7265,8.75,8.75,8.75,8.75,8.75,8.75,8.75,8.75,8.75,8.75,8.75,8.6211,8.5117,8.4414,8.3314,8.2511,8.2031,8.1904,8.1703,8.1418,8.1407,8.1285,8.1093,8.1093,8.1093,8.1093,8.1093,8.1093,8.1124,8.1425,8.1582,8.163,8.2069,8.2085,8.1889,8.1892,8.2135,8.2557,8.3149,8.4016,8.4939,8.5286,8.5709,8.6094,8.6094,8.6094,8.6094,8.6094,8.6094,8.6094,8.6094,8.6094,8.6094,8.6094,8.6094,8.6094,8.6094,8.6094,8.6094,8.6094,8.6094,8.6094,8.6094,8.6094,8.6094,8.6094,8.6094,8.594,8.5478,8.5401,8.5401,8.5401,8.5401,8.5593,8.6055,8.6094,8.6094,8.6094,8.6094,8.6094,8.6094,8.6094,8.6094,8.6094,8.567,8.5016,8.417,8.3285,8.2285,8.1093,8.1093,8.1093,8.1093,8.1093,8.1093,6.4821,6.5158,0.0,0.0,6.8024,0.0,7.4236,7.4541,7.5009,8.0099,8.1208,8.1854,8.3899,8.4997,8.5543,8.5426,8.6403,8.7224,8.7461,8.7578,8.7617,8.75,8.7577,8.7577,8.75,8.746,8.746,8.75,8.6601,8.5351,8.3672,8.3328,8.2847,8.2132,8.1831,8.1572,8.1359,8.1359,8.1285,8.1093,8.1093,8.1093,8.1093,8.1208,8.117,8.1108,8.1414,8.1523,8.16,8.2297,8.2298,8.1856,8.2483,8.2673,8.2785,8.4324,8.4978,8.5132,8.5863,8.6094,8.6094,8.6094,8.6094,8.6094,8.6094,8.6094,8.6094,8.6094,8.6094,8.6094,8.6094,8.6094,8.6094,8.6094,8.6094,8.6094,8.6094,8.6094,8.6094,8.6094,8.6094,8.6094,8.6094,8.6094,8.6094,8.6094,8.6017,8.6017,8.6094,8.6017,8.6017,8.6094,8.6094,8.6094,8.6094,8.6094,8.6094,8.6094,8.6094,8.6094,8.6094,8.6094,8.5709,8.4939,8.3939,8.2708,8.1246,8.1131,8.1093,8.1093,8.1093,8.1093,6.3893,6.457,6.5414,6.6579,6.7107,0.0,6.9124,7.02,7.1848,7.4988,7.6163,7.7377,7.9834,8.1009,8.1399,8.0697,8.3025,8.5512,8.7264,8.8047,8.8242,8.7578,8.7911,8.8019,8.7539,8.7286,8.7277,8.7461,8.6054,8.4687,8.3672,8.2742,8.2416,8.2805,8.1922,8.1347,8.1176,8.1176,8.1131,8.1093,8.1093,8.1093,8.1131,8.1785,8.1708,8.1162,8.1994,8.2375,8.2375,8.253,8.2526,8.2472,8.3133,8.3826,8.4439,8.4786,8.5324,8.5901,8.6055,8.6094,8.6094,8.6094,8.6094,8.6094,8.6094,8.6094,8.6094,8.6094,8.6094,8.6094,8.6094,8.6094,8.6094,8.6094,8.6094,8.6094,8.6094,8.6094,8.6094,8.6094,8.6094,8.6094,8.6094,8.6094,8.6094,8.6094,8.5555,8.5363,8.6017,8.5517,8.5401,8.6017,8.6094,8.6094,8.6094,8.6094,8.6094,8.6094,8.6094,8.6094,8.6094,8.6094,8.5709,8.4939,8.3362,8.2401,8.2054,8.14,8.1093,8.1093,8.1093,8.1093,6.3097,6.3371,6.3984,6.509,6.5391,0.0,0.0,6.8704,7.006,7.2746,7.3626,7.4475,7.6306,7.7683,7.8695,7.9116,8.1328,8.3526,8.5032,8.6683,8.7631,8.736,8.7564,8.769,8.7538,8.7375,8.7177,8.6875,8.6054,8.4961,8.3672,8.3016,8.2562,8.2357,8.1726,8.1285,8.1093,8.1093,8.1093,8.1093,8.1093,8.1093,8.1131,8.1939,8.2093,8.1724,8.2227,8.2698,8.3084,8.3084,8.3354,8.3789,8.4134,8.4516,8.4939,8.5363,8.5747,8.6094,8.6094,8.6094,8.6094,8.6094,8.6094,8.6094,8.6094,8.6094,8.6094,8.6094,8.6094,8.6094,8.6094,8.6094,8.6094,8.6094,8.6094,8.6094,8.6094,8.6094,8.6094,8.6094,8.6094,8.6094,8.6094,8.6094,8.6094,8.6094,8.5747,8.5632,8.6055,8.5747,8.567,8.6055,8.6094,8.6094,8.6094,8.6094,8.6094,8.6094,8.6094,8.6094,8.6094,8.6094,8.5709,8.4939,8.4055,8.317,8.2285,8.19,8.1477,8.1093,8.1093,8.1093,6.3511,6.3361,6.3709,6.4805,0.0,6.4936,0.0,0.0,0.0,7.1048,7.1605,7.1998,7.2835,7.4266,7.5743,7.7127,7.9187,8.085,8.1549,8.398,8.5858,8.6278,8.6722,8.7077,8.7182,8.707,8.6719,8.6015,8.5625,8.4922,8.3672,8.325,8.2718,8.1968,8.16,8.1324,8.1176,8.1139,8.1139,8.1176,8.1124,8.1093,8.1131,8.2093,8.2439,8.2324,8.2631,8.3208,8.3862,8.3862,8.4362,8.5132,8.5132,8.5132,8.5209,8.5863,8.6094,8.6094,8.6094,8.6094,8.6094,8.6094,8.6094,8.6094,8.6094,8.6094,8.6094,8.6094,8.6094,8.6094,8.6094,8.6094,8.6094,8.6094,8.6094,8.6094,8.6094,8.6094,8.6094,8.6094,8.6094,8.6094,8.6094,8.6094,8.6094,8.6094,8.6094,8.6094,8.6094,8.6094,8.6094,8.6094,8.6094,8.6094,8.6094,8.6094,8.6094,8.6094,8.6094,8.6094,8.6094,8.6094,8.5786,8.5132,8.4978,8.4209,8.2785,8.2631,8.2054,8.1093,8.1246,8.1323,0.0,0.0,0.0,6.6987,6.7321,6.7552,6.6436,0.0,6.8257,6.7808,0.0,6.8899,6.9026,0.0,0.0,7.0773,7.4075,7.6657,7.6773,7.9664,8.2162,8.333,8.547,8.6631,8.6141,8.5538,8.5156,8.5078,8.3633,8.3008,8.3554,8.2664,8.2367,8.2824,8.192,8.1395,8.1359,8.1196,8.1196,8.1347,8.1181,8.1093,8.1131,8.2708,8.3016,8.2401,8.3939,8.467,8.4747,8.4747,8.5247,8.5978,8.5978,8.5978,8.5978,8.6055,8.6094,8.6094,8.6094,8.6094,8.6094,8.6094,8.6094,8.6094,8.6094,8.6094,8.6094,8.6094,8.6094,8.6094,8.6094,8.6094,8.6094,8.6094,8.6094,8.6094,8.6094,8.6094,8.6094,8.6094,8.6094,8.6094,8.6094,8.6094,8.6094,8.6094,8.6094,8.6094,8.6094,8.6094,8.6094,8.6094,8.6094,8.6094,8.6094,8.6094,8.6094,8.6094,8.6094,8.6094,8.6094,8.6094,8.6055,8.5978,8.5247,8.4786,8.4593,8.3824,8.2631,8.1131,8.1823,8.217,0.0,0.0,6.6859,6.6513,6.6667,6.6782,6.6051,6.6436,6.6859,6.6474,0.0,0.0,0.0,0.0,0.0,0.0,7.2745,7.4707,7.5168,7.6938,7.9117,8.1765,8.3019,8.3865,8.4329,8.414,8.401,8.414,8.3008,8.2461,8.2812,8.2416,8.2263,8.2429,8.1961,8.1645,8.1418,8.1311,8.1244,8.1228,8.1131,8.1093,8.117,8.2824,8.3401,8.3093,8.3824,8.4709,8.5517,8.4555,8.4901,8.6094,8.6094,8.6094,8.6094,8.6094,8.6094,8.6094,8.6094,8.6094,8.6094,8.6094,8.6094,8.6094,8.6094,8.6094,8.6094,8.6094,8.6094,8.6094,8.6094,8.6094,8.6094,8.6094,8.6094,8.6094,8.6094,8.6094,8.6094,8.6094,8.6094,8.6094,8.6094,8.6094,8.6094,8.6094,8.6094,8.6094,8.6094,8.6094,8.6094,8.6094,8.6094,8.6094,8.6094,8.6094,8.6094,8.6094,8.6094,8.6094,8.6094,8.6094,8.6094,8.6094,8.5786,8.5363,8.4901,8.4516,8.3747,8.2554,8.2901,8.3054,6.7856,6.7667,6.7513,6.7051,6.6744,6.6474,6.6013,6.6244,6.659,6.659,6.6936,0.0,0.0,0.0,0.0,0.0,0.0,7.336,7.3937,7.4784,7.636,7.9223,8.0454,8.1709,8.342,8.2994,8.284,8.3469,8.2304,8.1797,8.2265,8.2304,8.2219,8.1996,8.1992,8.1861,8.1563,8.1447,8.1335,8.1258,8.1161,8.1093,8.1131,8.2593,8.3362,8.3593,8.3862,8.4632,8.5709,8.4709,8.4863,8.5786,8.6017,8.6094,8.6094,8.6094,8.6094,8.6094,8.6094,8.6094,8.6094,8.6094,8.6094,8.6094,8.6094,8.6094,8.6094,8.6094,8.6094,8.6094,8.6094,8.6094,8.6094,8.6094,8.6094,8.6094,8.6094,8.6094,8.6094,8.6094,8.6094,8.6094,8.6094,8.6094,8.6094,8.6094,8.6094,8.6094,8.6094,8.6094,8.6094,8.6094,8.6094,8.6094,8.6094,8.6094,8.6094,8.6094,8.6094,8.6094,8.6094,8.6094,8.6094,8.6094,8.6094,8.5824,8.5247,8.5247,8.4901,8.4286,8.4055,8.3939,7.2285,7.2158,7.1591,6.9975,6.8936,6.7898,6.6282,6.7167,6.8321,6.8321,6.9629,7.0744,7.0744,0.0,0.0,0.0,0.0,0.0,0.0,7.3014,7.3899,7.4798,7.7987,8.1212,8.3992,8.2156,8.1485,8.317,8.1122,8.0508,8.2226,8.2304,8.2219,8.1996,8.1992,8.1988,8.198,8.16,8.1473,8.1695,8.1298,8.1093,8.1131,8.1939,8.2785,8.3632,8.4478,8.4901,8.4978,8.5709,8.5593,8.5016,8.5786,8.6094,8.6094,8.6094,8.6094,8.6094,8.6094,8.6094,8.6094,8.6094,8.6094,8.6094,8.6094,8.6094,8.6094,8.6094,8.6094,8.6094,8.6094,8.6094,8.6094,8.6094,8.6094,8.6094,8.6094,8.6094,8.6094,8.6094,8.6094,8.6094,8.6094,8.6094,8.6094,8.6094,8.6094,8.6094,8.6094,8.6094,8.6094,8.6094,8.6094,8.6094,8.6094,8.6094,8.6094,8.6094,8.6094,8.6094,8.6094,8.6094,8.6094,8.6094,8.6094,8.6094,8.6055,8.6055,8.6055,8.6017,8.5209,8.4863,7.3374,7.3286,7.2812,7.0965,6.986,6.8821,6.709,6.759,6.8385,6.8385,6.9744,7.0898,7.0898,0.0,0.0,0.0,0.0,0.0,0.0,7.1129,7.1898,7.4399,7.6798,7.8683,7.9776,8.0271,8.076,8.1357,8.0735,8.0863,8.2035,8.2113,8.2122,8.2217,8.2062,8.1953,8.1819,8.1524,8.1359,8.1285,8.1191,8.1093,8.1131,8.1939,8.2439,8.2747,8.3054,8.3824,8.4901,8.4555,8.4939,8.5709,8.5978,8.6094,8.6094,8.6094,8.6094,8.6094,8.6094,8.6094,8.6094,8.6094,8.6094,8.6094,8.6094,8.6094,8.6094,8.6094,8.6094,8.6094,8.6094,8.6094,8.6094,8.6094,8.6094,8.6094,8.6094,8.6094,8.6094,8.6094,8.6094,8.6094,8.6094,8.6094,8.6094,8.6094,8.6094,8.6094,8.6094,8.6094,8.6094,8.6094,8.6094,8.6094,8.6094,8.6094,8.6094,8.6094,8.6094,8.6094,8.6094,8.6094,8.6094,8.6094,8.6094,8.6094,8.6094,8.6094,8.6094,8.6094,8.5824,8.5709,7.4833,7.4789,7.4403,7.3123,7.2122,7.1014,6.9321,6.9821,7.0629,7.0629,7.1514,7.2437,7.3053,0.0,0.0,0.0,0.0,0.0,0.0,7.0706,7.1514,7.3976,7.5589,7.701,7.8347,7.8832,7.9423,8.0326,7.9967,8.0095,8.0958,8.162,8.189,8.1641,8.1851,8.1894,8.1688,8.1522,8.1336,8.1224,8.1131,8.1093,8.1131,8.1631,8.2016,8.2324,8.2631,8.3401,8.4439,8.4478,8.4978,8.5709,8.5978,8.6094,8.6094,8.6094,8.6094,8.6094,8.6094,8.6094,8.6094,8.6094,8.6094,8.6094,8.6094,8.6094,8.6094,8.6094,8.6094,8.6094,8.6094,8.6094,8.6094,8.6094,8.6094,8.6094,8.6094,8.6094,8.6094,8.6094,8.6094,8.6094,8.6094,8.6094,8.6094,8.6094,8.6094,8.6094,8.6094,8.6094,8.6094,8.6094,8.6094,8.6094,8.6094,8.6094,8.6094,8.6094,8.6094,8.6094,8.6094,8.6094,8.6094,8.6094,8.6094,8.6094,8.6094,8.6094,8.6094,8.6094,8.6094,8.6094]}]]